[[{"header":{"parameterUnit":"m.s-1","parameterCategory":1,"la1":31.0,"la2":29.5877,"lo1":-88.7671,"lo2":-86.6584,"dy":0.0162,"dx":0.0185,"nx":115,"ny":88,"refTime":"2024-08-27T06:00:00:Z","depth":0,"parameterNumber":2,"parameterNumberName":"U-component_of_WINDS"},"data":[0.0,0.0,0.0,0.0,0.0,0.0,0.0,0.0,0.0,0.0,0.0,0.0,0.0,0.0,0.0,0.0,0.0,0.0,0.0,0.0,0.0,0.0,0.0,0.0,0.0,0.0,0.0,0.0,0.0,0.0,0.0,0.0,0.0,0.0,0.0,0.0,0.0,0.0,0.0,0.0,0.0,0.0,0.0,0.0,0.0,0.0,0.0,0.0,0.0,0.0,0.0,0.0,0.0,0.0,0.0,0.0,0.0,0.0,0.0,0.0,0.0,0.0,0.0,0.0,0.0,0.0,0.0,0.0,0.0,0.0,0.0,0.0,0.0,0.0,0.0,0.0,0.0,0.0,0.0,0.0,0.0,0.0,0.0,0.0,0.0,0.0,0.0,0.0,0.0,0.0,0.0,0.0,0.0,0.0,0.0,0.0,0.0,0.0,0.0,0.0,0.0,0.0,0.0,0.0,0.0,0.0,0.0,0.0,0.0,0.0,0.0,0.0,0.0,0.0,0.0,0.0,0.0,0.0,0.0,0.0,0.0,0.0,0.0,0.0,0.0,0.0,0.0,0.0,0.0,0.0,0.0,0.0,0.0,0.0,0.0,0.0,0.0,0.0,0.0,0.0,0.0,0.0,0.0,0.0,0.0,0.0,0.0,0.0,0.0,0.0,0.0,0.0,0.0,0.0,0.0,0.0,0.0,0.0,0.0,0.0,0.0,0.0,0.0,0.0,0.0,0.0,0.0,0.0,0.0,0.0,0.0,0.0,0.0,0.0,0.0,0.0,0.0,0.0,0.0,0.0,0.0,0.0,0.0,0.0,0.0,0.0,0.0,0.0,0.0,0.0,0.0,0.0,0.0,0.0,0.0,0.0,0.0,0.0,0.0,0.0,0.0,0.0,0.0,0.0,0.0,0.0,0.0,0.0,0.0,0.0,0.0,0.0,0.0,0.0,0.0,0.0,0.0,0.0,0.0,0.0,0.0,0.0,0.0,0.0,0.0,0.0,0.0,0.0,0.0,0.0,0.0,0.0,0.0,0.0,0.0,0.0,0.0,0.0,0.0,0.0,0.0,0.0,0.0,0.0,0.0,0.0,0.0,0.0,0.0,0.0,0.0,0.0,0.0,0.0,0.0,0.0,0.0,0.0,0.0,0.0,0.0,0.0,0.0,0.0,0.0,0.0,0.0,0.0,0.0,0.0,0.0,0.0,0.0,0.0,0.0,0.0,0.0,0.0,0.0,0.0,0.0,0.0,0.0,0.0,0.0,0.0,0.0,0.0,0.0,0.0,0.0,0.0,0.0,0.0,0.0,0.0,0.0,0.0,0.0,0.0,0.0,0.0,0.0,0.0,0.0,0.0,0.0,0.0,0.0,0.0,0.0,0.0,0.0,0.0,0.0,0.0,0.0,0.0,0.0,0.0,0.0,0.0,0.0,0.0,0.0,0.0,0.0,0.0,0.0,0.0,0.0,0.0,0.0,0.0,0.0,0.0,0.0,0.0,0.0,0.0,0.0,0.0,0.0,0.0,0.0,0.0,0.0,0.0,0.0,0.0,0.0,0.0,0.0,0.0,0.0,0.0,0.0,0.0,0.0,0.0,0.0,0.0,0.0,0.0,0.0,0.0,0.0,0.0,0.0,0.0,0.0,0.0,0.0,0.0,0.0,0.0,0.0,0.0,0.0,0.0,0.0,0.0,0.0,0.0,0.0,0.0,0.0,0.0,0.0,0.0,0.0,0.0,0.0,0.0,0.0,0.0,0.0,0.0,0.0,0.0,0.0,0.0,0.0,0.0,0.0,0.0,0.0,0.0,0.0,0.0,0.0,0.0,0.0,0.0,0.0,0.0,0.0,0.0,0.0,0.0,0.0,0.0,0.0,0.0,0.0,0.0,0.0,0.0,0.0,0.0,0.0,0.0,0.0,0.0,0.0,0.0,0.0,0.0,0.0,0.0,0.0,0.0,0.0,0.0,0.0,0.0,0.0,0.0,0.0,0.0,0.0,0.0,0.0,0.0,0.0,0.0,0.0,0.0,0.0,0.0,0.0,0.0,0.0,0.0,0.0,0.0,0.0,0.0,0.0,0.0,0.0,0.0,0.0,0.0,0.0,0.0,0.0,0.0,0.0,0.0,0.0,0.0,0.0,0.0,0.0,0.0,0.0,0.0,0.0,0.0,0.0,0.0,0.0,0.0,0.0,0.0,0.0,0.0,0.0,0.0,0.0,0.0,0.0,0.0,0.0,0.0,0.0,0.0,0.0,0.0,0.0,0.0,0.0,0.0,0.0,0.0,0.0,0.0,0.0,0.0,0.0,0.0,0.0,0.0,0.0,0.0,0.0,0.0,0.0,0.0,0.0,0.0,0.0,0.0,0.0,0.0,0.0,0.0,0.0,0.0,0.0,0.0,0.0,0.0,0.0,0.0,0.0,0.0,0.0,0.0,0.0,0.0,0.0,0.0,0.0,0.0,0.0,0.0,0.0,0.0,0.0,0.0,0.0,0.0,0.0,0.0,0.0,0.0,0.0,0.0,0.0,0.0,0.0,0.0,0.0,0.0,0.0,0.0,0.0,0.0,0.0,0.0,0.0,0.0,0.0,0.0,0.0,0.0,0.0,0.0,0.0,0.0,0.0,0.0,0.0,0.0,0.0,0.0,0.0,0.0,0.0,0.0,0.0,0.0,0.0,0.0,0.0,0.0,0.0,0.0,0.0,0.0,0.0,0.0,0.0,0.0,0.0,0.0,0.0,0.0,0.0,0.0,0.0,0.0,0.0,0.0,0.0,0.0,0.0,0.0,0.0,0.0,0.0,0.0,0.0,0.0,0.0,0.0,0.0,0.0,0.0,0.0,0.0,0.0,0.0,0.0,0.0,0.0,0.0,0.0,0.0,0.0,0.0,0.0,0.0,0.0,0.0,0.0,0.0,0.0,0.0,0.0,0.0,0.0,0.0,0.0,0.0,0.0,0.0,0.0,0.0,0.0,0.0,0.0,0.0,0.0,0.0,0.0,0.0,0.0,0.0,0.0,0.0,0.0,0.0,0.0,0.0,0.0,0.0,0.0,0.0,0.0,0.0,0.0,0.0,0.0,0.0,0.0,0.0,0.0,0.0,0.0,0.0,0.0,0.0,0.0,0.0,0.0,0.0,0.0,0.0,0.0,0.0,0.0,0.0,0.0,0.0,0.0,0.0,0.0,0.0,0.0,0.0,0.0,0.0,0.0,0.0,0.0,0.0,0.0,0.0,0.0,0.0,0.0,0.0,0.0,0.0,0.0,0.0,0.0,0.0,0.0,0.0,0.0,0.0,0.0,0.0,0.0,0.0,0.0,0.0,0.0,0.0,0.0,0.0,0.0,0.0,0.0,0.0,0.0,0.0,0.0,0.0,0.0,0.0,0.0,0.0,0.0,0.0,0.0,0.0,0.0,0.0,0.0,0.0,0.0,0.0,0.0,0.0,0.0,0.0,0.0,0.0,0.0,0.0,0.0,0.0,0.0,0.0,0.0,0.0,0.0,0.0,0.0,0.0,0.0,0.0,0.0,0.0,0.0,0.0,0.0,0.0,0.0,0.0,0.0,0.0,0.0,0.0,0.0,0.0,0.0,0.0,0.0,0.0,0.0,0.0,0.0,0.0,0.0,0.0,0.0,0.0,0.0,0.0,0.0,0.0,0.0,0.0,0.0,0.0,0.0,0.0,0.0,0.0,0.0,0.0,0.0,0.0,0.0,0.0,0.0,0.0,0.0,0.0,0.0,0.0,0.0,0.0,0.0,0.0,0.0,0.0,0.0,0.0,0.0,0.0,0.0,0.0,0.0,0.0,0.0,0.0,0.0,0.0,0.0,0.0,0.0,0.0,0.0,0.0,0.0,0.0,0.0,0.0,0.0,0.0,0.0,0.0,0.0,0.0,0.0,0.0,0.0,0.0,0.0,0.0,0.0,0.0,0.0,0.0,0.0,0.0,0.0,0.0,0.0,0.0,0.0,0.0,0.0,0.0,0.0,0.0,0.0,0.0,0.0,0.0,0.0,0.0,0.0,0.0,0.0,0.0,0.0,0.0,0.0,0.0,0.0,0.0,0.0,0.0,0.0,0.0,0.0,0.0,0.0,0.0,0.0,0.0,0.0,0.0,0.0,0.0,0.0,0.0,0.0,0.0,0.0,0.0,0.0,0.0,0.0,0.0,0.0,0.0,0.0,0.0,0.0,0.0,0.0,0.0,0.0,0.0,0.0,0.0,0.0,0.0,0.0,0.0,0.0,0.0,0.0,0.0,0.0,0.0,0.0,1.129,0.0,0.0,0.0,0.0,0.0,0.0,0.0,0.0,0.0,0.0,0.0,0.0,0.0,0.0,0.0,0.0,0.0,0.0,0.0,0.0,0.0,0.0,0.0,0.0,0.0,0.0,0.0,0.0,0.0,0.0,0.0,0.0,0.0,0.0,0.0,0.0,0.0,0.0,0.0,0.0,0.0,0.0,0.0,0.0,0.0,0.0,0.0,0.0,0.0,0.0,0.0,0.0,0.0,0.0,0.0,0.0,0.0,0.0,0.0,0.0,0.0,0.0,0.0,0.0,0.0,0.0,0.0,0.0,0.0,0.0,0.0,0.0,0.0,0.0,0.0,0.0,0.0,0.0,0.0,0.0,0.0,0.0,0.0,0.0,0.0,0.0,0.0,0.0,0.0,0.0,0.0,0.0,0.0,0.0,0.0,0.0,0.0,0.0,0.0,0.0,0.0,0.0,0.0,0.0,0.0,0.0,0.0,0.0,0.0,0.0,1.1577,1.2936,1.225,1.1915,1.2019,0.0,0.0,0.0,0.0,0.0,0.0,0.0,0.0,0.0,0.0,0.0,0.0,0.0,0.0,0.0,0.0,0.0,0.0,0.0,0.0,0.0,0.0,0.0,0.0,0.0,0.0,0.0,0.0,0.0,0.0,0.0,0.0,0.0,0.0,0.0,0.0,0.0,0.0,0.0,0.0,0.0,0.0,0.0,0.0,0.0,0.0,0.0,0.0,0.0,0.0,0.0,0.0,0.0,0.0,0.0,0.0,0.0,0.0,0.0,0.0,0.0,0.0,0.0,0.0,0.0,0.0,0.0,0.0,0.0,0.0,0.0,0.0,0.0,0.0,0.0,0.0,0.0,0.0,0.0,0.0,0.0,0.0,0.0,0.0,0.0,0.0,0.0,0.0,0.0,0.0,0.0,0.0,0.0,0.0,0.0,0.0,0.0,0.0,0.0,0.0,0.0,0.0,0.0,0.0,0.0,0.0,0.0,0.0,0.0,0.0,0.0,0.0,1.2919,1.2294,1.222,0.0,0.0,0.0,0.0,0.0,0.0,0.0,0.0,0.0,0.0,0.0,0.0,0.0,0.0,0.0,0.0,0.0,0.0,0.0,0.0,0.0,0.0,0.0,0.0,0.0,0.0,0.0,0.0,0.0,0.0,0.0,0.0,0.0,0.0,0.0,0.0,0.0,0.0,0.0,0.0,0.0,0.0,0.0,0.0,0.0,0.0,0.0,0.0,0.0,0.0,0.0,0.0,0.0,0.0,0.0,0.0,0.0,0.0,0.0,0.0,0.0,0.0,0.0,0.0,0.0,0.0,0.0,0.0,0.0,0.0,0.0,0.0,0.0,0.0,0.0,0.0,0.0,0.0,0.0,0.0,0.0,0.0,0.0,0.0,0.0,0.0,0.0,0.0,0.0,0.0,0.0,0.0,0.0,0.0,0.0,0.0,0.0,0.0,0.0,0.0,0.0,0.0,0.0,0.0,0.0,0.0,0.0,0.0,0.0,0.0,1.3184,1.3898,1.3651,0.0,1.1372,0.0,0.0,0.0,0.0,0.0,0.0,0.0,0.0,0.0,0.0,0.0,0.0,0.0,0.0,0.0,0.0,0.0,0.0,0.0,0.0,0.0,0.0,0.0,0.0,0.0,0.0,0.0,0.0,0.0,0.0,0.0,0.0,0.0,0.0,0.0,0.0,0.0,0.0,0.0,0.0,0.0,0.0,0.0,0.0,0.0,0.0,0.0,0.0,0.0,0.0,0.0,0.0,0.0,0.0,0.0,0.0,0.0,0.0,0.0,0.0,0.0,0.0,0.0,0.0,0.0,0.0,0.0,0.0,0.0,0.0,0.0,0.0,0.0,0.0,0.0,0.0,0.0,0.0,0.0,0.0,0.0,0.0,0.0,0.0,0.0,0.0,0.0,0.0,0.0,0.0,0.0,0.0,0.0,0.0,0.0,0.0,0.0,0.0,0.0,0.0,0.0,0.0,0.0,0.0,0.0,0.0,0.0,0.0,0.0,0.0,1.3262,1.3845,1.3603,1.2789,0.0,0.0,0.0,0.0,0.0,0.0,0.0,0.0,0.0,0.0,0.0,0.0,0.0,0.0,0.0,0.0,0.0,0.0,0.0,0.0,0.0,0.0,0.0,0.0,0.0,0.0,0.0,0.0,0.0,0.0,0.0,0.0,0.0,0.0,0.0,0.0,0.0,0.0,0.0,0.0,0.0,0.0,0.0,0.0,0.0,0.0,0.0,0.0,0.0,0.0,0.0,0.0,0.0,0.0,0.0,0.0,0.0,0.0,0.0,0.0,0.0,0.0,0.0,0.0,0.0,0.0,0.0,0.0,0.0,0.0,0.0,0.0,0.0,0.0,0.0,0.0,0.0,0.0,0.0,0.0,0.0,0.0,0.0,0.0,0.0,0.0,0.0,0.0,0.0,0.0,0.0,0.0,0.0,0.0,0.0,0.0,0.0,0.0,0.0,0.0,0.0,0.0,0.0,0.0,0.0,0.0,0.0,0.0,0.0,0.0,1.3285,1.339,1.3665,1.3509,1.2728,1.139,0.0,0.0,0.0,0.0,0.0,0.0,0.0,0.0,0.0,0.0,0.0,0.0,0.0,0.0,0.0,0.0,0.0,0.0,0.0,0.0,0.0,0.0,0.0,0.0,0.0,0.0,0.0,0.0,0.0,0.0,0.0,0.0,0.0,0.0,0.0,0.0,0.0,0.0,0.0,0.0,0.0,0.0,0.0,0.0,0.0,0.0,0.0,0.0,0.0,0.0,0.0,0.0,0.0,0.0,0.0,0.0,0.0,0.0,0.0,0.0,0.0,0.0,0.0,0.0,0.0,0.0,0.0,0.0,0.0,0.0,0.0,0.0,0.0,0.0,0.0,0.0,0.0,0.0,0.0,0.0,0.0,0.0,0.0,0.0,0.0,0.0,0.0,0.0,0.0,0.0,0.0,0.0,0.0,0.0,0.0,0.0,0.0,0.0,0.0,0.0,0.0,0.0,0.0,0.0,0.0,0.0,0.0,0.0,1.41,1.406,1.3877,1.3528,1.3557,1.2743,0.0,0.0,0.0,0.0,0.0,0.0,0.0,0.0,0.0,0.0,0.0,0.0,0.0,0.0,0.0,0.0,0.0,0.0,0.0,0.0,0.0,0.0,0.0,0.0,0.0,0.0,0.0,0.0,0.0,0.0,0.0,0.0,0.0,0.0,0.0,0.0,0.0,0.0,0.0,0.0,0.0,0.0,0.0,0.0,0.0,0.0,0.0,0.0,0.0,0.0,0.0,0.0,0.0,0.0,0.0,0.0,0.0,0.0,0.0,0.0,0.0,0.0,0.0,0.0,0.0,0.0,0.0,0.0,0.0,0.0,0.0,0.0,0.0,0.0,0.0,0.0,0.0,0.0,0.0,0.0,0.0,0.0,0.0,0.0,0.0,0.0,0.0,0.0,0.0,0.0,0.0,0.0,0.0,0.0,0.0,0.0,0.0,0.0,0.0,0.0,0.0,0.0,0.0,0.0,0.0,0.0,0.0,0.0,0.0,1.4183,1.3917,1.3746,1.3686,1.3428,1.2619,0.0,0.0,0.0,0.0,0.0,0.0,0.0,0.0,0.0,0.0,0.0,0.0,0.0,0.0,0.0,0.0,0.0,0.0,0.0,0.0,0.0,0.0,0.0,0.0,0.0,0.0,0.0,0.0,0.0,0.0,0.0,0.0,0.0,0.0,0.0,0.0,0.0,0.0,0.0,0.0,0.0,0.0,0.0,0.0,0.0,0.0,0.0,0.0,0.0,0.0,0.0,0.0,0.0,0.0,0.0,0.0,0.0,0.0,0.0,0.0,0.0,0.0,0.0,0.0,0.0,0.0,0.0,0.0,0.0,0.0,0.0,0.0,0.0,0.0,0.0,0.0,0.0,0.0,0.0,0.0,0.0,0.0,0.0,0.0,0.0,0.0,0.0,0.0,0.0,0.0,0.0,0.0,0.0,0.0,0.0,0.0,0.0,0.0,0.0,0.0,0.0,0.0,0.0,0.0,0.0,0.0,0.0,0.0,0.0,1.4162,0.0,1.3848,0.0,1.3461,1.2634,0.0,0.0,0.0,0.0,0.0,0.0,0.0,0.0,0.0,0.0,0.0,0.0,0.0,0.0,0.0,0.0,0.0,0.0,0.0,0.0,0.0,0.0,0.0,0.0,0.0,0.0,0.0,0.0,0.0,0.0,0.0,0.0,0.0,0.0,0.0,0.0,0.0,0.0,0.0,0.0,0.0,0.0,0.0,0.0,0.0,0.0,0.0,0.0,0.0,0.0,0.0,0.0,0.0,0.0,0.0,0.0,0.0,0.0,0.0,0.0,0.0,0.0,0.0,0.0,0.0,0.0,0.0,0.0,0.0,0.0,0.0,0.0,0.0,0.0,0.0,0.0,0.0,0.0,0.0,0.0,0.0,0.0,0.0,0.0,0.0,0.0,0.0,0.0,0.0,0.0,0.0,0.0,0.0,0.0,0.0,0.0,0.0,0.0,0.0,0.0,0.0,0.0,0.0,0.0,0.0,0.0,0.0,0.0,1.4268,1.4105,1.4208,1.4193,1.4016,1.3682,1.2789,0.0,0.0,0.0,0.0,0.0,0.0,0.0,0.0,0.0,0.0,0.0,0.0,0.0,0.0,0.0,0.0,0.0,0.0,0.0,0.0,0.0,0.0,0.0,0.0,0.0,0.0,0.0,0.0,0.0,0.0,0.0,0.0,0.0,0.0,0.0,0.0,0.0,0.0,0.0,0.0,0.0,0.0,0.0,0.0,0.0,0.0,0.0,0.0,0.0,0.0,0.0,0.0,0.0,0.0,0.0,0.0,0.0,0.0,0.0,0.0,0.0,0.0,0.0,0.0,0.0,0.0,0.0,0.0,0.0,0.0,0.0,0.0,0.0,0.0,0.0,0.0,0.0,0.0,0.0,0.0,0.0,0.0,0.0,0.0,0.0,0.0,0.0,0.0,0.0,0.0,0.0,0.0,0.0,0.0,0.0,0.0,0.0,0.0,0.0,0.0,0.0,0.0,0.0,0.0,0.0,0.0,0.0,0.0,0.0,1.4191,1.415,1.4392,1.4766,1.3959,1.3318,0.0,0.0,0.0,0.0,0.0,0.0,0.0,0.0,0.0,0.0,0.0,0.0,0.0,0.0,0.0,0.0,0.0,0.0,0.0,0.0,0.0,0.0,0.0,0.0,0.0,0.0,0.0,0.0,0.0,0.0,0.0,0.0,0.0,0.0,0.0,0.0,0.0,0.0,0.0,0.0,0.0,0.0,0.0,0.0,0.0,0.0,0.0,0.0,0.0,0.0,0.0,0.0,0.0,0.0,0.0,0.0,0.0,0.0,0.0,0.0,0.0,0.0,0.0,0.0,0.0,0.0,0.0,0.0,0.0,0.0,0.0,0.0,0.0,0.0,0.0,0.0,0.0,0.0,0.0,0.0,0.0,0.0,0.0,0.0,0.0,0.0,0.0,0.0,0.0,0.0,0.0,0.0,0.0,0.0,0.0,0.0,0.0,0.0,0.0,0.0,0.0,0.0,0.0,0.0,0.0,0.0,0.0,0.0,0.0,1.4952,1.5184,1.5501,1.5868,1.47,1.3927,1.3684,0.0,0.0,0.0,0.0,0.0,0.0,0.0,0.0,0.0,0.0,0.0,0.0,0.0,0.0,0.0,0.0,0.0,0.0,0.0,0.0,0.0,0.0,0.0,0.0,0.0,0.0,0.0,0.0,0.0,0.0,0.0,0.0,0.0,0.0,0.0,0.0,0.0,0.0,0.0,0.0,0.0,0.0,0.0,0.0,0.0,0.0,0.0,0.0,0.0,0.0,0.0,0.0,0.0,0.0,0.0,0.0,0.0,0.0,0.0,0.0,0.0,0.0,0.0,0.0,0.0,0.0,0.0,0.0,0.0,0.0,0.0,0.0,0.0,0.0,0.0,0.0,0.0,0.0,0.0,0.0,0.0,0.0,0.0,0.0,0.0,0.0,0.0,0.0,0.0,0.0,0.0,0.0,0.0,0.0,0.0,0.0,0.0,0.0,0.0,0.0,0.0,0.0,0.0,0.0,0.0,0.0,0.0,0.0,1.6177,1.7074,1.7393,1.7051,1.5724,1.4634,0.0,0.0,0.0,0.0,0.0,0.0,0.0,0.0,0.0,0.0,0.0,0.0,0.0,0.0,0.0,0.0,0.0,0.0,0.0,0.0,0.0,0.0,0.0,0.0,0.0,0.0,0.0,0.0,0.0,0.0,0.0,0.0,0.0,0.0,0.0,0.0,0.0,0.0,0.0,0.0,0.0,0.0,0.0,0.0,0.0,0.0,0.0,0.0,0.0,0.0,0.0,0.0,0.0,0.0,0.0,0.0,0.0,0.0,0.0,0.0,0.0,0.0,0.0,0.0,0.0,0.0,0.0,0.0,0.0,0.0,0.0,0.0,0.0,0.0,0.0,0.0,0.0,0.0,0.0,0.0,0.0,0.0,0.0,0.0,0.0,0.0,0.0,0.0,0.0,0.0,0.0,0.0,0.0,0.0,0.0,0.0,0.0,0.0,0.0,0.0,0.0,0.0,0.0,0.0,0.0,0.0,0.0,0.0,0.0,1.711,1.8583,1.8939,1.795,1.607,1.519,0.0,0.0,0.0,0.0,0.0,0.0,0.0,0.0,0.0,0.0,0.0,0.0,0.0,0.0,0.0,0.0,0.0,0.0,0.0,0.0,0.0,0.0,0.0,0.0,0.0,0.0,0.0,0.0,0.0,0.0,0.0,0.0,0.0,0.0,0.0,0.0,0.0,0.0,0.0,0.0,0.0,0.0,0.0,0.0,0.0,0.0,0.0,0.0,0.0,0.0,0.0,0.0,0.0,0.0,0.0,0.0,0.0,0.0,0.0,0.0,0.0,0.0,0.0,0.0,0.0,0.0,0.0,0.0,0.0,0.0,0.0,0.0,0.0,0.0,0.0,0.0,0.0,0.0,0.0,0.0,0.0,0.0,0.0,0.0,0.0,0.0,0.0,0.0,0.0,0.0,0.0,0.0,0.0,0.0,0.0,0.0,0.0,0.0,0.0,0.0,0.0,0.0,0.0,0.0,0.0,0.0,0.0,0.0,1.7953,1.8641,2.0352,2.0689,1.9531,1.7472,1.6273,0.0,0.0,0.0,0.0,0.0,0.0,0.0,0.0,0.0,0.0,0.0,0.0,0.0,0.0,0.0,0.0,0.0,0.0,0.0,0.0,0.0,0.0,0.0,0.0,0.0,0.0,0.0,0.0,0.0,0.0,0.0,0.0,0.0,0.0,0.0,0.0,0.0,0.0,0.0,0.0,0.0,0.0,0.0,0.0,0.0,0.0,0.0,0.0,0.0,0.0,0.0,0.0,0.0,0.0,0.0,0.0,0.0,0.0,0.0,0.0,0.0,0.0,0.0,0.0,0.0,0.0,0.0,0.0,0.0,0.0,0.0,0.0,0.0,0.0,0.0,0.0,0.0,0.0,0.0,0.0,0.0,0.0,0.0,0.0,0.0,0.0,0.0,0.0,0.0,0.0,0.0,0.0,0.0,0.0,0.0,0.0,0.0,0.0,0.0,0.0,0.0,0.0,0.0,0.0,0.0,0.0,0.0,0.0,1.9049,2.0427,2.1974,2.2278,2.1219,1.9295,1.7577,0.0,0.0,0.0,0.0,0.0,0.0,0.0,0.0,0.0,0.0,0.0,0.0,0.0,0.0,0.0,0.0,0.0,0.0,0.0,0.0,0.0,0.0,0.0,0.0,0.0,0.0,0.0,0.0,0.0,0.0,0.0,0.0,0.0,0.0,0.0,0.0,0.0,0.0,0.0,0.0,0.0,0.0,0.0,0.0,0.0,0.0,0.0,0.0,0.0,0.0,0.0,0.0,0.0,0.0,0.0,0.0,0.0,0.0,0.0,0.0,0.0,0.0,0.0,0.0,0.0,0.0,0.0,0.0,0.0,0.0,0.0,0.0,0.0,0.0,0.0,0.0,0.0,0.0,0.0,0.0,0.0,0.0,0.0,0.0,0.0,0.0,0.0,0.0,0.0,0.0,0.0,0.0,0.0,0.0,0.0,0.0,0.0,0.0,0.0,0.0,0.0,0.0,0.0,0.0,0.0,0.0,0.0,0.0,1.9381,2.1363,2.2329,2.2334,2.1378,1.9957,1.83,0.0,0.0,0.0,0.0,0.0,0.0,0.0,0.0,0.0,0.0,0.0,0.0,0.0,0.0,0.0,0.0,0.0,0.0,0.0,0.0,0.0,0.0,0.0,0.0,0.0,0.0,0.0,0.0,0.0,0.0,0.0,0.0,0.0,0.0,0.0,0.0,0.0,0.0,0.0,0.0,0.0,0.0,0.0,0.0,0.0,0.0,0.0,0.0,1.2561,0.0,0.0,0.0,0.0,0.0,0.0,0.0,0.0,0.0,0.0,0.0,0.0,0.0,0.0,0.0,0.0,0.0,0.0,0.0,0.0,0.0,0.0,0.0,0.0,0.0,0.0,0.0,0.0,0.0,0.0,0.0,0.0,0.0,0.0,0.0,0.0,0.0,0.0,0.0,0.0,0.0,0.0,0.0,0.0,0.0,0.0,0.0,0.0,0.0,0.0,0.0,0.0,0.0,0.0,0.0,0.0,0.0,0.0,0.0,2.0772,2.2801,2.3261,2.2983,2.2029,2.0975,1.9155,0.0,0.0,0.0,0.0,0.0,0.0,0.0,0.0,0.0,0.0,0.0,0.0,0.0,0.0,0.0,0.0,0.0,0.0,0.0,0.0,0.0,0.0,0.0,0.0,0.0,0.0,0.0,0.0,0.0,0.0,0.0,0.0,0.0,0.0,0.0,0.0,0.0,0.0,0.0,0.0,0.0,0.0,0.0,0.0,0.0,0.0,0.0,0.0,0.0,0.0,0.0,0.0,0.0,0.0,0.0,0.0,0.0,0.0,0.0,0.0,0.0,0.0,0.0,0.0,0.0,0.0,0.0,0.0,0.0,0.0,0.0,0.0,0.0,0.0,0.0,0.0,0.0,0.0,0.0,0.0,0.0,0.0,0.0,0.0,0.0,0.0,0.0,0.0,0.0,0.0,0.0,0.0,0.0,0.0,0.0,0.0,0.0,0.0,0.0,0.0,0.0,0.0,0.0,0.0,0.0,0.0,0.0,2.0324,2.2215,2.4321,2.4397,2.3921,2.2959,2.2123,2.0017,1.651,0.0,0.0,0.0,0.0,0.0,0.0,0.0,0.0,0.0,0.0,0.0,0.0,0.0,0.0,0.0,0.0,0.0,0.0,0.0,0.0,0.0,0.0,0.0,0.0,0.0,0.0,0.0,0.0,0.0,0.0,0.0,0.0,0.0,0.0,0.0,0.0,0.0,0.0,1.2373,1.3203,0.0,0.0,0.0,0.0,0.0,0.0,0.0,0.0,1.2965,0.0,0.0,0.0,0.0,0.0,0.0,0.0,0.0,0.0,0.0,0.0,0.0,0.0,0.0,0.0,0.0,0.0,0.0,0.0,0.0,0.0,0.0,0.0,0.0,0.0,0.0,0.0,0.0,0.0,0.0,0.0,0.0,0.0,0.0,0.0,0.0,0.0,0.0,0.0,0.0,0.0,0.0,0.0,0.0,0.0,0.0,0.0,0.0,0.0,0.0,0.0,0.0,0.0,0.0,0.0,0.0,1.9437,2.0188,2.2098,2.5266,2.526,2.4786,2.3972,2.3004,2.0667,1.6836,0.0,0.0,0.0,0.0,0.0,0.0,0.0,0.0,0.0,0.0,0.0,0.0,0.0,0.0,0.0,0.0,0.0,0.0,0.0,0.0,0.0,0.0,0.0,0.0,0.0,0.0,0.0,0.0,0.0,0.0,0.0,0.0,0.0,0.0,0.0,0.0,0.0,0.0,0.0,1.4505,1.481,0.0,0.0,0.0,0.0,0.0,0.0,0.0,0.0,1.2649,0.0,0.0,0.0,0.0,0.0,0.0,0.0,0.0,0.0,0.0,0.0,0.0,0.0,0.0,0.0,0.0,0.0,0.0,0.0,0.0,0.0,0.0,0.0,0.0,0.0,0.0,0.0,0.0,0.0,0.0,0.0,0.0,0.0,0.0,0.0,0.0,0.0,0.0,0.0,0.0,0.0,0.0,0.0,0.0,0.0,0.0,0.0,0.0,0.0,0.0,0.0,0.0,0.0,0.0,0.0,1.8951,2.0851,2.2825,2.4845,2.4837,2.4559,2.4138,2.2827,2.0432,0.0,0.0,0.0,0.0,0.0,0.0,0.0,0.0,0.0,0.0,0.0,0.0,0.0,0.0,0.0,0.0,0.0,0.0,0.0,0.0,0.0,0.0,0.0,0.0,0.0,0.0,0.0,0.0,0.0,0.0,0.0,0.0,0.0,0.0,0.0,0.0,0.0,0.0,0.0,0.0,1.4767,1.4867,1.4501,0.0,0.0,0.0,0.0,0.0,0.0,1.3208,1.2617,0.0,0.0,0.0,0.0,0.0,0.0,0.0,0.0,0.0,0.0,0.0,0.0,0.0,0.0,0.0,0.0,0.0,0.0,0.0,0.0,0.0,0.0,0.0,0.0,0.0,0.0,0.0,0.0,0.0,0.0,0.0,0.0,0.0,0.0,0.0,0.0,0.0,0.0,0.0,0.0,0.0,0.0,0.0,0.0,0.0,0.0,0.0,0.0,0.0,0.0,0.0,0.0,0.0,0.0,0.0,1.862,2.143,2.3456,2.4494,2.4503,2.4428,2.4326,2.2581,2.0068,0.0,0.0,0.0,0.0,0.0,0.0,0.0,0.0,0.0,0.0,0.0,0.0,0.0,0.0,0.0,0.0,0.0,0.0,0.0,0.0,0.0,0.0,0.0,0.0,0.0,0.0,0.0,0.0,0.0,0.0,0.0,0.0,0.0,0.0,0.0,0.0,0.0,0.0,0.0,0.0,0.0,1.514,1.5216,1.4916,0.0,0.0,0.0,0.0,1.4419,1.3625,0.0,0.0,0.0,0.0,0.0,0.0,0.0,0.0,0.0,0.0,0.0,0.0,0.0,0.0,0.0,0.0,0.0,0.0,0.0,0.0,0.0,0.0,0.0,0.0,0.0,0.0,0.0,0.0,0.0,0.0,0.0,0.0,0.0,0.0,0.0,0.0,0.0,0.0,0.0,0.0,0.0,0.0,0.0,0.0,0.0,0.0,0.0,0.0,0.0,0.0,0.0,0.0,0.0,0.0,0.0,0.0,1.9411,2.1349,2.3308,2.5315,2.5383,2.5325,2.5219,2.2871,2.0126,0.0,0.0,0.0,0.0,0.0,0.0,0.0,0.0,0.0,0.0,0.0,0.0,0.0,0.0,0.0,0.0,0.0,0.0,0.0,0.0,0.0,0.0,0.0,0.0,0.0,0.0,0.0,0.0,0.0,0.0,0.0,0.0,0.0,0.0,0.0,0.0,0.0,0.0,0.0,0.0,0.0,1.6673,1.6293,1.5542,1.5025,0.0,0.0,1.3871,1.4349,1.4138,0.0,0.0,0.0,0.0,0.0,0.0,0.0,0.0,0.0,0.0,0.0,0.0,0.0,0.0,0.0,0.0,0.0,0.0,0.0,0.0,0.0,0.0,0.0,0.0,0.0,0.0,0.0,0.0,0.0,0.0,0.0,0.0,0.0,0.0,0.0,0.0,0.0,0.0,0.0,0.0,0.0,0.0,0.0,0.0,0.0,0.0,0.0,0.0,0.0,0.0,0.0,0.0,0.0,0.0,0.0,1.6795,1.8802,2.1359,2.3405,2.4816,2.5233,2.5426,2.5385,2.2973,2.0311,0.0,0.0,0.0,0.0,0.0,0.0,0.0,0.0,0.0,0.0,0.0,0.0,0.0,0.0,0.0,0.0,0.0,0.0,0.0,0.0,0.0,0.0,0.0,0.0,0.0,0.0,0.0,0.0,0.0,0.0,0.0,0.0,0.0,0.0,0.0,0.0,0.0,0.0,0.0,0.0,0.0,0.0,1.6026,1.5769,0.0,0.0,0.0,1.3903,1.4083,0.0,0.0,0.0,0.0,0.0,0.0,0.0,0.0,0.0,0.0,0.0,0.0,0.0,0.0,0.0,0.0,0.0,0.0,0.0,0.0,0.0,0.0,0.0,0.0,0.0,0.0,0.0,0.0,0.0,0.0,0.0,0.0,0.0,0.0,0.0,0.0,0.0,0.0,0.0,0.0,0.0,0.0,0.0,0.0,0.0,0.0,0.0,0.0,0.0,0.0,0.0,0.0,0.0,0.0,0.0,0.0,0.0,1.8555,2.1545,2.3582,2.4563,2.5129,2.541,2.5293,2.2949,0.0,0.0,0.0,0.0,0.0,0.0,0.0,0.0,0.0,0.0,0.0,0.0,0.0,0.0,0.0,0.0,0.0,0.0,0.0,0.0,0.0,0.0,0.0,0.0,0.0,0.0,0.0,1.1446,0.0,0.0,0.0,0.0,0.0,0.0,0.0,0.0,0.0,0.0,0.0,0.0,0.0,0.0,1.5492,1.6075,1.5852,1.5415,0.0,0.0,1.3852,1.4039,1.3461,1.2979,0.0,0.0,0.0,0.0,0.0,0.0,0.0,0.0,0.0,0.0,0.0,0.0,0.0,0.0,0.0,0.0,0.0,0.0,0.0,0.0,0.0,0.0,0.0,0.0,0.0,0.0,0.0,0.0,0.0,0.0,0.0,0.0,0.0,0.0,0.0,0.0,0.0,0.0,0.0,0.0,0.0,0.0,0.0,0.0,0.0,0.0,0.0,0.0,0.0,0.0,0.0,0.0,0.0,0.0,1.6951,1.9488,2.1867,2.3854,2.5349,2.5492,2.5385,2.5184,2.286,2.0333,0.0,0.0,0.0,0.0,0.0,0.0,0.0,0.0,0.0,0.0,0.0,0.0,0.0,0.0,0.0,0.0,0.0,0.0,0.0,0.0,0.0,0.0,0.0,0.0,0.0,0.0,0.0,0.0,0.0,0.0,0.0,0.0,0.0,0.0,0.0,0.0,0.0,0.0,0.0,0.0,0.0,1.648,1.7032,1.5772,1.4969,0.0,1.4547,1.395,1.4394,1.4068,1.3522,1.2872,0.0,0.0,0.0,0.0,0.0,0.0,0.0,0.0,0.0,0.0,0.0,0.0,0.0,0.0,0.0,0.0,0.0,0.0,0.0,0.0,0.0,0.0,0.0,0.0,0.0,0.0,0.0,0.0,0.0,0.0,0.0,0.0,0.0,0.0,0.0,0.0,0.0,0.0,0.0,0.0,0.0,0.0,0.0,0.0,0.0,0.0,0.0,0.0,0.0,0.0,0.0,0.0,0.0,1.7501,1.9532,2.2342,2.4342,2.5434,2.5461,2.5369,2.5212,2.2879,2.0489,0.0,0.0,0.0,0.0,0.0,0.0,0.0,0.0,0.0,0.0,0.0,0.0,0.0,0.0,0.0,0.0,0.0,0.0,0.0,0.0,0.0,0.0,0.0,0.0,0.0,0.0,0.0,0.0,1.2324,1.261,1.2287,0.0,0.0,0.0,0.0,0.0,0.0,0.0,0.0,0.0,0.0,1.577,1.6169,1.5768,0.0,0.0,1.5132,1.4735,1.4829,1.4111,1.3491,1.3126,1.2459,0.0,0.0,0.0,0.0,0.0,0.0,0.0,0.0,0.0,0.0,0.0,0.0,0.0,0.0,0.0,0.0,0.0,0.0,0.0,0.0,0.0,0.0,0.0,0.0,0.0,0.0,0.0,0.0,0.0,0.0,0.0,0.0,0.0,0.0,0.0,0.0,0.0,0.0,0.0,0.0,0.0,0.0,0.0,0.0,0.0,0.0,0.0,0.0,0.0,0.0,0.0,0.0,1.7555,1.9473,2.2321,2.4365,2.5449,2.5415,2.5313,2.5133,2.3303,2.126,0.0,0.0,0.0,0.0,0.0,0.0,0.0,0.0,0.0,0.0,0.0,0.0,0.0,0.0,0.0,0.0,0.0,0.0,0.0,0.0,0.0,0.0,0.0,0.0,0.0,0.0,0.0,0.0,1.225,1.24,1.2086,0.0,0.0,0.0,0.0,0.0,0.0,0.0,0.0,0.0,0.0,1.5583,1.5927,1.5833,1.5648,1.535,1.5226,1.5008,1.4629,1.4044,1.3536,1.3318,0.0,0.0,0.0,0.0,0.0,0.0,0.0,0.0,0.0,0.0,0.0,0.0,0.0,0.0,0.0,0.0,0.0,0.0,0.0,0.0,0.0,0.0,0.0,0.0,0.0,0.0,0.0,0.7147,0.0,0.0,0.702,0.0,0.0,0.0,0.0,0.0,0.0,0.0,0.0,0.0,0.0,0.0,0.0,0.0,0.0,0.0,0.0,0.0,0.0,0.0,0.0,0.0,0.0,1.6995,1.9381,2.1795,2.3758,2.5348,2.5322,2.5241,2.5096,2.4282,2.2691,2.027,0.0,0.0,0.0,0.0,0.0,0.0,0.0,0.0,0.0,0.0,0.0,0.0,0.0,0.0,0.0,0.0,0.0,0.0,0.0,0.0,0.0,0.0,0.0,0.0,0.0,0.0,1.2107,1.1982,1.1869,0.0,0.0,0.0,0.0,0.0,0.0,0.0,0.0,0.0,1.5856,1.6031,1.6244,1.6689,1.5992,1.5258,1.484,1.4767,1.4493,1.3774,1.38,1.3736,0.0,0.0,0.0,0.0,0.0,0.0,0.0,0.0,0.0,0.0,0.0,0.0,0.0,0.0,0.0,0.0,0.0,0.0,0.0,0.0,0.0,0.0,0.0,0.0,0.0,0.0,0.0,0.8475,0.7621,0.0,0.0,0.0,0.0,0.0,0.0,0.0,0.0,0.0,0.0,0.0,1.5509,1.6739,0.0,0.0,0.0,0.0,0.0,0.0,0.0,0.0,0.0,0.0,0.0,0.0,1.8503,1.9438,2.2746,2.4762,2.5263,2.5244,2.5201,2.5096,2.427,2.2395,1.9387,0.0,0.0,0.0,0.0,0.0,0.0,0.0,0.0,0.0,0.0,0.0,0.0,0.0,0.0,0.0,0.0,0.0,0.0,0.0,0.0,0.0,0.0,0.0,0.0,0.0,1.2066,0.0,0.0,0.0,0.0,0.0,0.0,0.0,0.0,0.0,0.0,0.0,1.557,1.5914,1.5893,1.5897,1.5996,1.5583,1.5294,0.0,0.0,0.0,0.0,0.0,0.0,0.0,0.0,0.0,0.0,0.0,0.0,0.0,0.0,1.3941,1.2907,1.3258,1.3663,1.334,0.0,0.0,0.0,0.0,0.0,0.0,0.0,0.0,0.0,0.0,0.0,0.0,0.0,0.0,1.1298,1.0649,0.9842,0.0,0.0,0.0,0.0,0.0,0.0,0.0,0.0,1.6951,1.8041,1.8209,1.939,1.9439,1.8586,1.8673,1.7186,0.0,0.0,0.0,0.0,0.0,0.0,0.0,0.0,1.9063,1.9722,2.3034,2.4898,2.5197,2.513,2.5091,2.5041,2.4119,2.2609,2.0431,1.8304,1.6455,0.0,0.0,0.0,0.0,0.0,0.0,0.0,0.0,0.0,0.0,0.0,0.0,0.0,0.0,0.0,0.0,0.0,0.0,0.0,0.0,0.0,0.0,0.0,1.2008,0.0,0.0,0.0,0.0,0.0,0.0,0.0,0.0,0.0,1.498,1.5562,1.5968,1.6142,1.6025,1.5956,1.5922,0.0,0.0,0.0,0.0,0.0,0.0,0.0,1.4419,1.4202,1.4143,1.3922,1.3398,1.3589,1.3794,1.36,0.0,0.0,1.345,1.3597,1.3847,1.3871,1.3947,1.3936,1.3857,1.3434,1.3076,0.0,0.0,0.0,0.0,1.3209,0.0,0.0,0.0,1.5057,1.5386,0.0,1.3974,0.0,0.0,0.0,0.0,1.3154,1.5979,0.0,0.0,2.0824,2.1986,2.0872,2.1483,2.1382,2.0615,2.0861,2.0168,1.8609,1.6692,0.0,0.0,0.0,0.0,0.0,0.0,1.8654,2.0262,2.2633,2.4285,2.5157,2.4987,2.4934,2.4962,2.394,2.3332,2.3182,2.1113,1.9487,1.8408,1.5518,0.0,0.0,0.0,0.0,0.0,0.0,0.0,0.0,0.0,0.0,0.0,0.0,0.0,0.0,0.0,0.0,0.0,0.0,0.0,0.0,1.2689,0.0,0.0,0.0,0.0,0.0,0.0,0.0,0.0,0.0,1.4706,1.5374,1.6054,1.6553,1.6693,0.0,0.0,0.0,0.0,1.6126,1.5628,1.5915,1.6066,1.5633,1.5295,1.5044,1.471,0.0,0.0,1.4053,1.3986,1.3917,1.3745,1.3963,1.4263,1.4689,1.4504,1.4467,1.478,1.409,1.3611,1.3478,1.2847,1.2225,1.93,0.0,0.0,0.0,0.0,1.6716,1.7186,1.8027,1.7845,1.7621,1.7349,1.6719,0.0,0.0,0.0,0.0,0.0,0.0,1.8522,1.9807,2.145,2.2401,2.2795,2.3592,2.352,2.2656,2.2734,2.2168,2.1115,2.055,1.8852,1.6098,0.0,0.0,0.0,0.0,1.9916,2.1043,2.3266,2.4563,2.4842,2.4842,2.4846,2.4856,2.4398,2.3843,2.3249,2.2428,2.1075,1.9198,1.7999,0.0,0.0,0.0,0.0,0.0,0.0,0.0,0.0,0.0,0.0,0.0,0.0,0.0,0.0,0.0,0.0,0.0,0.0,0.0,1.2965,1.2954,1.2757,0.0,0.0,0.0,0.0,0.0,0.0,0.0,0.0,0.0,1.6104,1.6277,1.6497,0.0,0.0,1.6138,1.607,1.5555,1.5149,1.4958,1.479,0.0,1.468,1.4596,1.4439,1.4223,1.3972,1.3962,1.4359,1.4052,1.3744,1.3683,1.3529,1.3466,1.3824,1.3773,1.351,1.2928,1.2791,1.2664,1.2456,1.1911,1.1494,2.2932,2.1032,1.9773,1.9361,1.9516,1.9314,1.9805,2.0709,2.0526,2.0371,2.0214,1.9375,1.8968,1.8957,1.8175,0.0,0.0,0.0,2.0562,2.2092,2.2841,2.3547,2.4163,2.4587,2.4486,2.3964,2.3864,2.3574,2.3007,2.2451,2.1206,1.9227,0.0,1.7059,1.7574,1.9414,2.0946,2.2121,2.3952,2.5096,2.5491,2.5223,2.4933,2.4663,2.4444,2.4116,2.3617,2.3382,2.2514,2.0868,2.0061,1.8335,0.0,0.0,0.0,0.0,0.0,0.0,0.0,0.0,0.0,0.0,0.0,1.0916,1.03,0.0,0.0,0.0,1.3679,1.3648,1.3675,1.361,0.0,0.0,0.0,0.0,0.0,0.0,0.0,1.589,1.5919,1.6074,1.6592,1.6401,1.6414,1.6946,1.6376,1.5882,1.5696,0.0,1.4863,1.4755,1.454,1.449,1.4775,1.4466,1.4113,1.3889,1.3783,1.3777,1.4238,1.4002,1.3707,1.3575,1.3446,1.3166,1.2837,1.2895,1.287,1.2385,1.2116,1.2006,1.1844,1.1302,1.0774,2.5605,2.5368,2.2554,2.1389,2.1438,2.1387,2.2034,2.3081,2.3022,2.338,2.3847,2.199,2.1561,2.2135,2.04,0.0,2.0912,2.1999,2.2962,2.3876,2.462,2.4961,2.494,2.4685,2.4575,2.4575,2.4441,2.4392,2.4284,2.3006,2.2461,2.2632,2.1089,1.9861,1.9161,2.0385,2.1829,2.3346,2.4577,2.5671,2.6613,2.5874,2.5171,2.4483,2.4228,2.4134,2.4192,2.4077,2.3707,2.2996,2.1817,2.0435,1.8824,0.0,0.0,0.0,0.0,0.0,0.0,0.0,0.0,0.0,0.0,0.0,0.0,0.0,0.0,0.0,1.5134,0.0,1.523,1.4742,0.0,0.0,0.0,1.4761,1.6132,1.6161,1.6344,1.7138,0.0,0.0,1.6837,1.6404,1.6355,1.7079,1.6294,1.5557,1.5405,1.521,1.4983,1.4647,1.4784,1.5019,1.5036,1.4552,1.3984,1.3705,1.3654,1.3635,1.3777,1.3722,1.3602,1.3302,1.3392,1.3143,1.1957,1.204,1.2326,1.268,1.2009,1.1372,1.1359,1.0734,1.0189,2.5675,2.5613,2.4827,2.4503,2.4455,2.4386,2.4521,2.4786,2.4753,2.4812,2.4926,2.4391,2.4255,2.4328,2.3817,2.3719,2.3936,2.4024,2.4197,2.4415,2.4511,2.4543,2.4549,2.4481,2.4393,2.4284,2.4266,2.421,2.4171,2.3817,2.3565,2.339,2.3441,2.2688,2.1181,2.2024,2.2944,2.3884,2.4963,2.5715,2.6133,2.5555,2.5216,2.5093,2.4542,2.421,2.4154,2.4154,2.4061,2.3839,2.3601,2.2555,2.0528,1.8121,0.0,0.0,0.0,0.0,0.0,0.0,0.0,0.0,0.0,1.2509,1.0578,0.0,1.3799,0.0,1.6096,1.7488,1.7896,1.747,0.0,0.0,1.634,1.6248,1.6573,1.7088,1.7241,1.665,1.708,1.7307,1.7017,1.6402,1.6063,1.6231,1.5882,1.5423,1.5115,1.4605,1.4206,1.403,1.3979,1.3902,1.3852,1.3656,1.3413,1.3332,1.308,1.2928,1.3024,1.2856,1.2717,1.2607,1.2192,1.1916,1.1915,1.1483,1.1111,1.1286,1.1293,1.1036,1.0608,1.0171,0.9801,2.5648,2.5654,2.5595,2.5168,2.4514,2.5197,2.548,2.5429,2.534,2.5284,2.5271,2.5179,2.5118,2.507,2.5023,2.4996,2.4931,2.4734,2.4657,2.4692,2.4564,2.4479,2.4446,2.4375,2.4303,2.4192,2.4135,2.4077,2.4016,2.4016,2.3873,2.3625,2.4225,2.3954,2.2867,2.3545,2.4276,2.5042,2.602,2.6257,2.5693,2.5518,2.4843,2.354,2.3196,2.2622,2.1736,2.1874,2.1954,2.1892,2.2038,2.1327,1.9603,1.7895,1.6121,0.0,0.0,0.0,0.0,0.0,0.0,0.0,0.0,0.0,0.0,0.0,1.5396,1.5875,1.7719,1.8722,1.8384,1.8271,1.8109,1.799,1.764,1.7555,1.7792,1.805,1.8,1.7441,1.7502,1.7541,1.7339,1.6633,1.6079,1.6144,1.571,1.5217,1.4726,1.4198,1.3924,1.365,1.3468,1.3311,1.3028,1.3114,1.3073,1.2912,1.2771,1.2619,1.2454,1.2369,1.2277,1.202,1.1766,1.1532,1.141,1.1066,1.071,1.0513,1.0377,1.014,0.9761,0.959,0.929,2.56,2.5601,2.5601,2.4772,2.3605,2.4984,2.5323,2.4887,2.4764,2.4788,2.4916,2.5061,2.5063,2.5023,2.5023,2.4977,2.4917,2.4749,2.4723,2.4757,2.4631,2.4513,2.4425,2.4339,2.4247,2.4135,2.4018,2.3937,2.3855,2.3855,2.3783,2.3718,2.4264,2.4488,2.4319,2.4988,2.5651,2.6286,2.7165,2.6922,2.5553,2.5516,2.426,2.1687,2.1403,2.0526,1.8893,1.9077,1.9177,1.9055,1.9242,1.899,1.822,1.6922,1.5847,0.0,1.3114,0.0,0.0,0.0,0.0,0.0,0.0,0.0,0.0,1.7372,1.783,1.8606,1.9548,1.9625,1.8411,1.8531,1.8821,1.9183,1.8794,1.873,1.9198,1.8828,1.8506,1.849,1.776,1.7398,1.7358,1.6808,1.6319,1.6043,1.5618,1.5002,1.4339,1.3977,1.3769,1.357,1.3216,1.2853,1.2624,1.271,1.2607,1.2272,1.2266,1.2283,1.1946,1.206,1.2072,1.1489,1.158,1.1478,1.0695,1.0636,1.0382,0.9962,0.9502,0.9201,0.9122,0.8873,0.8734,2.5593,2.5613,2.5556,2.5344,2.5089,2.5395,2.4062,2.1684,2.1611,2.2221,2.3422,2.4632,2.5144,2.5076,2.5089,2.5076,2.5044,2.4749,2.4642,2.4642,2.4375,2.4247,2.419,2.4152,2.4075,2.3939,2.3858,2.3771,2.366,2.3553,2.3732,2.4159,2.4716,2.5251,2.5796,0.0,0.0,0.0,2.7021,2.6989,2.6618,2.4963,2.3843,2.322,2.1417,0.0,1.9257,1.9402,1.9263,1.8739,1.8923,0.0,0.0,0.0,0.0,0.0,0.0,0.0,0.0,0.0,0.0,0.0,1.7774,1.7484,1.7808,1.8638,1.9522,2.0465,2.0628,2.0882,2.1443,2.1003,2.0743,2.0939,2.0101,1.9574,1.968,1.9144,1.8501,1.775,1.7804,1.7444,1.6482,1.6378,1.6211,1.5474,1.4987,1.4702,1.4374,1.3839,1.3563,1.3427,1.2885,1.2496,1.2421,1.1895,1.1505,1.1241,1.1063,1.1154,1.1348,1.1417,1.1529,1.1269,1.1005,1.075,1.043,0.9971,0.9493,0.9139,0.8803,0.8531,0.8535,0.8139,0.7605,2.543,2.5414,2.5414,2.4973,0.0,2.4291,2.2954,2.0807,2.2349,2.3399,2.4085,2.4853,2.5156,2.5032,2.4509,2.4086,2.3746,2.2976,2.2837,2.3253,2.3053,2.3319,2.3937,2.3953,2.3831,2.3682,2.3934,2.3957,2.3802,2.4073,2.4349,2.4662,2.527,2.5678,2.6018,2.6582,2.6859,2.6808,2.6859,2.6656,2.6234,2.5353,2.4255,2.3125,2.2292,0.0,0.0,0.0,0.0,0.0,0.0,0.0,0.0,0.0,0.0,2.0901,1.9932,1.9754,2.0705,2.0652,2.0854,2.1631,2.163,2.1148,2.007,2.125,2.2293,2.2782,2.2657,2.2676,2.3076,2.2442,2.1837,2.1545,2.0619,1.9922,1.9524,1.8899,1.8342,1.793,1.7511,1.7025,1.6531,1.6118,1.5764,1.5283,1.4743,1.4325,1.4082,1.381,1.3528,1.3179,1.248,1.1951,1.1729,1.1413,1.0901,1.0727,1.0641,1.0594,1.0597,1.0711,1.0641,1.0395,1.0301,1.0193,0.9706,0.932,0.8924,0.8506,0.7832,0.7434,0.7444,0.7244,0.7009,2.5255,2.5215,2.5274,2.4541,2.3371,2.3445,2.2644,2.1534,2.3872,0.0,0.0,2.512,2.5234,2.5055,2.4319,2.3675,2.307,2.197,2.1809,2.2485,2.2211,2.2674,2.3774,2.3747,2.3665,2.3579,2.4025,2.4217,2.4162,2.4659,2.4988,2.5136,2.5613,2.5897,2.5958,2.6404,2.6674,2.6657,2.6708,2.637,2.5729,2.5705,2.4772,2.2851,2.3059,2.2421,2.0767,2.1308,2.1479,2.1184,2.1408,2.1513,2.1411,2.1433,2.1411,2.1411,2.1383,2.202,2.3441,2.3366,2.3714,2.4768,2.4759,2.4104,2.2638,2.3887,2.4687,2.4686,2.4399,2.4096,2.378,2.3068,2.2348,2.1668,2.0773,1.9918,1.943,1.8539,1.8022,1.7976,1.7108,1.6454,1.6526,1.5831,1.5175,1.4989,1.442,1.3886,1.3594,1.3509,1.3201,1.2439,1.1798,1.1316,1.0982,1.0636,1.0463,1.012,1.0115,1.009,0.9878,0.9894,0.9822,0.9507,0.9626,0.9468,0.8925,0.863,0.8326,0.7836,0.7039,0.6337,0.6253,0.6405,0.624,2.5215,2.5205,2.5212,2.505,2.4808,2.4809,2.458,2.4137,2.3359,2.2986,2.308,2.4862,2.5604,2.5554,2.6024,2.6169,2.5962,2.504,2.4704,2.4766,2.3907,2.3563,2.3721,2.354,2.3697,2.4056,2.4051,2.4237,2.4579,2.4603,2.4904,2.5452,2.5461,2.5749,2.6336,2.6504,2.6537,2.6606,2.6691,2.6624,2.6438,2.5155,2.4349,2.4018,2.2715,2.1706,2.1169,2.1339,2.1134,2.0638,2.0807,2.1532,2.2873,2.2856,2.3587,2.5409,2.5429,2.5533,2.6034,2.6118,2.5983,2.5697,2.5228,2.4791,2.4689,2.4922,2.4948,2.4582,2.4436,2.4049,2.3303,2.2724,2.224,2.1679,2.0663,1.9963,1.9652,1.8435,1.7499,1.7306,1.6544,1.5721,1.5332,1.5227,1.4816,1.3957,1.3633,1.3451,1.2778,1.2595,1.2237,1.1494,1.0982,1.0636,1.0381,0.9689,0.9345,0.9082,0.8811,0.8828,0.9239,0.9285,0.9196,0.9368,0.9048,0.8743,0.8192,0.7717,0.7338,0.6836,0.6437,0.6234,0.5839,0.5537,0.5229,2.6312,2.6279,2.6284,2.6289,2.6294,2.6199,2.6106,2.5925,2.5097,2.4543,2.4416,2.5688,2.6227,2.6142,2.5887,2.5569,2.5154,2.4169,2.3919,2.4208,2.3766,2.3864,2.4363,2.3967,2.3964,2.4315,2.4299,2.4535,2.5019,2.5327,2.5698,2.6051,2.6,2.615,2.6468,2.6485,2.652,2.6554,2.6572,2.6606,2.6572,2.5981,2.5696,2.5713,2.5146,2.4813,2.4627,2.4797,2.4812,2.4535,2.4624,2.4976,2.5669,2.5552,2.5872,2.6797,2.6699,2.6599,2.6657,2.6838,2.677,2.6319,2.6254,2.6154,2.589,2.5333,2.4867,2.4658,2.464,2.442,2.3919,2.318,2.2493,2.185,2.083,1.9909,1.9038,1.8075,1.7241,1.6811,1.6103,1.5404,1.4931,1.4636,1.4139,1.313,1.2778,1.2174,1.1585,1.1332,1.1154,1.0814,1.0376,0.9951,0.9602,0.917,0.8823,0.8556,0.8376,0.8239,0.8488,0.8401,0.8347,0.8343,0.8125,0.7838,0.7419,0.7039,0.6637,0.6239,0.5737,0.5436,0.5144,0.4602,0.4182,2.7253,2.7182,2.7163,2.7182,2.7186,2.7078,2.6951,2.6861,2.6733,2.6463,2.6169,2.6595,2.683,2.6731,2.6027,2.5482,2.4848,2.3893,2.3689,2.4076,2.3893,2.427,2.4964,2.4427,2.4379,2.472,2.4695,2.4957,2.5547,2.6045,2.6312,2.6415,2.6415,2.6415,2.6415,2.6415,2.645,2.645,2.645,2.6503,2.6623,2.6792,2.6926,2.6975,2.7293,2.7478,2.7526,2.776,2.7886,2.7811,2.7829,2.7771,2.773,2.7509,2.7411,2.739,2.7262,2.7199,2.713,2.7221,2.7153,2.6744,2.7029,2.695,2.6317,2.55,2.4976,2.493,2.4963,2.4792,2.4235,2.3526,2.2665,2.1815,2.0933,1.9803,1.8412,1.7676,1.7035,1.6363,1.5583,1.5011,1.4648,1.4062,1.3307,1.254,1.1671,1.1068,1.0727,1.0381,1.0207,1.012,0.9859,0.9428,0.8907,0.8732,0.8556,0.8201,0.8113,0.7986,0.7814,0.7779,0.7615,0.755,0.7385,0.7177,0.6778,0.6523,0.6234,0.5842,0.5336,0.4834,0.4437,0.3788,0.3357,2.7244,2.7189,2.7119,2.6954,2.6913,2.6817,2.6716,2.6603,2.7128,2.7326,2.7139,2.723,2.7211,2.722,2.7629,2.7727,2.762,2.688,2.638,2.6244,2.5639,2.5177,2.5069,2.4827,2.5022,2.5486,2.5311,2.5514,2.6112,2.6173,2.6203,2.622,2.6256,2.622,2.622,2.6239,2.6274,2.6312,2.633,2.64,2.6606,2.6775,2.6942,2.7103,2.7181,2.7324,2.7465,2.7526,2.7587,2.7617,2.7569,2.7526,2.7496,2.7247,2.7346,2.793,2.7827,2.7923,2.831,2.7958,2.751,2.7153,2.6848,2.647,2.5954,2.5692,2.5604,2.5531,2.5348,2.4757,2.3975,2.3267,2.2469,2.1469,2.0714,1.9628,1.8424,1.7577,1.6698,1.5747,1.508,1.4458,1.3904,1.3392,1.2802,1.1946,1.1246,1.0814,1.0641,1.0125,0.9694,0.9519,0.9345,0.917,0.8727,0.8376,0.8201,0.8028,0.7764,0.7609,0.7649,0.7552,0.7397,0.7201,0.7162,0.6816,0.6502,0.6163,0.5834,0.5441,0.4937,0.4435,0.3638,0.2966,0.283,2.8465,2.8445,2.8384,2.8262,2.8073,2.7962,2.7807,2.7725,2.7886,2.7921,2.7816,2.7808,2.7772,2.7799,2.8002,2.8071,2.8035,2.7454,2.7186,2.7068,2.648,2.6113,2.5842,2.5321,2.5394,2.5899,2.5497,2.5562,2.6106,2.6151,2.6079,2.6079,2.6043,2.6023,2.6007,2.6007,2.6043,2.6063,2.6225,2.6547,2.6933,2.6842,2.6842,2.6957,2.7055,2.7135,2.723,2.7215,2.7247,2.7293,2.7247,2.7184,2.7137,2.7417,2.7675,2.7876,2.8048,2.8139,2.8073,2.8159,2.7998,2.7564,2.761,2.7456,2.6947,2.6505,2.6055,2.5646,2.5108,2.4408,2.3484,2.3083,2.2543,2.1705,2.113,2.0186,1.8621,1.776,1.6773,1.5372,1.4678,1.4152,1.3406,1.2717,1.2118,1.151,1.0987,1.0641,1.0299,0.9864,0.9519,0.917,0.9087,0.8911,0.8648,0.8376,0.8113,0.7852,0.7499,0.7323,0.7248,0.7002,0.6809,0.6803,0.6653,0.651,0.6158,0.5704,0.536,0.4904,0.4234,0.363,0.2826,0.2336,0.2169,2.933,2.927,2.9222,2.9085,2.8881,2.8737,2.8594,2.851,2.8353,2.8219,2.8154,2.8071,2.805,2.8039,2.7957,2.7911,2.7806,2.7504,2.7272,2.7149,2.6825,2.6607,2.6383,2.5848,2.5761,2.6002,2.5657,2.5657,2.6082,2.6026,2.5937,2.5901,2.5881,2.5791,2.5717,2.5701,2.568,2.5626,2.5921,2.6412,2.6991,2.6933,2.6944,2.7114,2.7198,2.7212,2.7087,2.7007,2.711,2.7296,2.7231,2.7284,2.7471,2.7928,2.8195,2.823,2.8655,2.8754,2.8329,2.8603,2.8542,2.7968,2.8168,2.8057,2.7524,2.6736,2.6082,2.5453,2.4738,2.3897,2.3175,2.2882,2.2533,2.1818,2.1435,2.0492,1.8918,1.797,1.6731,1.5355,1.46,1.3814,1.2996,1.2198,1.1516,1.1251,1.0814,1.0386,1.0038,0.9694,0.9262,0.9003,0.8823,0.8648,0.8476,0.8204,0.8025,0.7672,0.7319,0.7054,0.6881,0.6612,0.6352,0.6542,0.6327,0.604,0.5713,0.5305,0.4732,0.4303,0.3731,0.2925,0.2322,0.1718,0.132,2.9262,2.9178,2.9085,2.8876,2.863,2.8612,2.8484,2.8327,2.8237,2.8154,2.8071,2.7957,2.7824,2.7701,2.7672,2.7595,2.7426,2.7258,2.6954,2.6607,2.6607,2.6504,2.6241,2.621,2.6139,2.601,2.5928,2.5892,2.5934,2.5897,2.5828,2.5701,2.5663,2.5535,2.5285,2.523,2.5153,2.5059,2.5406,2.5913,2.6639,2.7027,2.7381,2.7754,2.7809,2.7607,2.7162,2.696,2.7216,2.7861,2.7755,2.8007,2.8665,2.869,2.8875,2.9291,2.9922,3.0152,2.9632,2.931,2.8903,2.8323,2.7868,2.7494,2.6922,2.6204,2.5633,2.5075,2.4268,2.356,2.3008,2.279,2.2367,2.1587,2.1214,2.0472,1.9161,1.8002,1.6834,1.5599,1.4599,1.3581,1.2528,1.1757,1.1251,1.0911,1.0477,1.0038,0.9777,0.9345,0.8999,0.8823,0.8652,0.8476,0.8028,0.8025,0.7757,0.7404,0.7234,0.7054,0.6881,0.6707,0.6447,0.6204,0.6006,0.5707,0.5305,0.4759,0.4221,0.3696,0.312,0.2421,0.1817,0.1212,0.071,2.9112,2.8998,2.881,2.8687,2.8587,2.8458,2.8353,2.8237,2.8182,2.8025,2.7864,2.7777,2.7582,2.7307,2.7164,2.7164,2.7164,2.6657,2.6385,2.6349,2.6118,2.5974,2.6026,2.6026,2.5974,2.5811,2.5811,2.5717,2.5584,2.5546,2.5378,2.5169,2.5114,2.4974,2.4679,2.4664,2.4664,2.4744,2.5176,2.6025,2.7146,2.7633,2.8119,2.8633,2.8402,2.8253,2.8163,2.8056,2.8138,2.8463,2.8443,2.8488,2.8699,2.8982,2.9367,2.9839,3.0025,2.9793,2.9212,2.8904,2.8527,2.7894,2.7494,2.7011,2.6433,2.5839,2.5353,2.4917,2.4442,2.3775,2.2992,2.2852,2.2771,2.2327,2.1883,2.1154,1.984,1.8485,1.7056,1.5703,1.4162,1.2699,1.2106,1.1424,1.0911,1.0472,1.0125,0.9777,0.9248,0.8907,0.8736,0.8384,0.8296,0.8204,0.768,0.7852,0.776,0.7411,0.7146,0.6877,0.6612,0.6435,0.6177,0.5822,0.5703,0.5299,0.4802,0.4076,0.3616,0.3067,0.2495,0.191,0.1414,0.0707,0.0101,2.8863,2.8743,2.8637,2.8536,2.8484,2.8327,2.8237,2.8154,2.8025,2.7864,2.7701,2.7582,2.7289,2.6989,2.6674,2.6573,2.6607,2.6104,2.5921,2.5937,2.5712,2.5654,2.5712,2.5787,2.5659,2.54,2.5323,2.5169,2.4974,2.5123,2.491,2.4477,2.4639,2.4533,2.412,2.4204,2.4271,2.4369,2.4932,2.5973,2.7163,2.789,2.8592,2.9214,2.9083,2.8804,2.8674,2.8586,2.8758,2.9017,2.9068,2.9075,2.917,2.9499,2.9757,2.9935,2.9705,2.9353,2.8902,2.8642,2.8404,2.8003,2.7489,2.6895,2.6284,2.5592,2.5104,2.4726,2.3999,2.3255,2.2787,2.2417,2.2207,2.1952,2.1668,2.0958,1.9803,1.8171,1.6532,1.4823,1.3269,1.2186,1.1591,1.1079,1.0564,1.0038,0.9868,0.934,0.8811,0.864,0.8556,0.8032,0.8028,0.7852,0.7499,0.7496,0.7408,0.7146,0.7058,0.67,0.6343,0.6169,0.5902,0.5549,0.5126,0.4716,0.4152,0.3501,0.2986,0.2442,0.1876,0.1195,0.0602,0.0,-0.0707,2.8562,2.8492,2.851,2.8414,2.83,2.8191,2.8154,2.8053,2.7836,2.7672,2.7552,2.7276,2.6971,2.6674,2.621,2.5905,2.5758,2.5647,2.5513,2.5355,2.5448,2.541,2.5278,2.5371,2.5201,2.471,2.4564,2.4343,2.4147,2.4574,2.4492,2.4006,2.4369,2.4162,2.3406,2.3739,2.3797,2.3859,2.46,2.5623,2.6614,2.768,2.8682,2.9604,2.9708,2.9293,2.8444,2.8528,2.8971,2.9503,2.9586,2.9822,3.0071,3.0152,2.9995,2.9528,2.9289,2.9123,2.9027,2.8813,2.8734,2.8492,2.7888,2.7044,2.6314,2.5361,2.4628,2.432,2.3158,2.2138,2.2172,2.1406,2.0766,2.0323,2.0287,1.977,1.875,1.7209,1.5234,1.3355,1.2248,1.1837,1.1241,1.0641,1.0038,0.9777,0.934,0.8819,0.8552,0.8288,0.8116,0.794,0.7764,0.7588,0.7319,0.7051,0.6966,0.6792,0.6792,0.6612,0.6257,0.5991,0.5636,0.5282,0.4567,0.4152,0.3641,0.2986,0.2375,0.1831,0.117,0.0396,-0.04,-0.121,-0.1916,2.8174,2.811,2.8228,2.8264,2.8209,2.8007,2.7893,2.7818,2.7689,2.743,2.71,2.6956,2.659,2.6085,2.5705,2.546,2.5201,2.5005,2.495,2.5005,2.4831,2.467,2.4574,2.4492,2.4395,2.4328,2.4051,2.4051,2.4219,2.4105,2.3809,2.3623,2.3595,2.3348,2.2918,2.3038,2.3201,2.3684,2.4589,2.5682,2.6891,2.7846,2.8766,2.9496,2.9665,2.9468,2.9021,2.9433,2.9732,2.9887,2.9946,2.9985,2.9935,2.9705,2.939,2.9041,2.9201,2.91,2.8793,2.8836,2.8777,2.838,2.7315,2.6351,2.5734,2.455,2.3819,2.371,2.2733,2.2082,2.1709,2.0896,2.0255,2.0232,1.991,1.9291,1.8286,1.6542,1.4493,1.2588,1.1821,1.1311,1.0722,1.012,0.9689,0.9161,0.8811,0.8464,0.8028,0.794,0.776,0.7323,0.7234,0.7231,0.6877,0.6609,0.6343,0.6346,0.6346,0.6254,0.5991,0.5636,0.5371,0.4835,0.4121,0.3506,0.2993,0.2386,0.1776,0.1049,0.0291,-0.0591,-0.1603,-0.2417,-0.3022,2.7869,2.7829,2.7961,2.8053,2.8025,2.7806,2.7642,2.7522,2.7386,2.7036,2.6674,2.6385,2.6052,2.5556,2.523,2.5013,2.4766,2.4343,2.4261,2.441,2.4271,2.4063,2.3909,2.358,2.3537,2.3638,2.3377,2.329,2.3465,2.3377,2.3143,2.283,2.2934,2.2814,2.2463,2.2709,2.3142,2.3822,2.4791,2.5951,2.7152,2.8065,2.877,2.9348,2.9502,2.9441,2.9289,2.9605,2.9782,2.981,2.9897,2.981,2.9483,2.9212,2.8982,2.8889,2.8965,2.9003,2.8961,2.891,2.8726,2.8253,2.7039,2.586,2.5091,2.3944,2.322,2.29,2.2066,2.134,2.0874,2.007,1.9497,1.9153,1.866,1.7959,1.6693,1.5033,1.3393,1.1904,1.1187,1.0697,1.0294,0.968,0.9336,0.8719,0.8368,0.8021,0.7499,0.7415,0.7058,0.6881,0.6789,0.6609,0.6346,0.6077,0.5811,0.5811,0.5902,0.5811,0.5542,0.528,0.5015,0.43,0.3585,0.3138,0.2618,0.1813,0.1103,0.0282,-0.0673,-0.1761,-0.2784,-0.3416,-0.4128,2.7565,2.7565,2.7701,2.776,2.7701,2.7552,2.7369,2.7117,2.6873,2.6573,2.6262,2.5762,2.5427,2.523,2.4815,2.4549,2.4359,2.3867,2.3465,2.345,2.3493,2.3391,2.2995,2.277,2.2694,2.2754,2.2558,2.2342,2.2282,2.2618,2.2526,2.2123,2.2572,2.2629,2.2451,2.2795,2.3507,2.4246,2.5176,2.6303,2.7488,2.8202,2.8764,2.9213,2.9213,2.9152,2.8997,2.8997,2.912,2.9332,2.9518,2.9432,2.8998,2.8826,2.8964,2.8956,2.8722,2.8985,2.9363,2.8913,2.8396,2.8176,2.6854,2.5743,2.4771,2.3621,2.2665,2.212,2.1113,2.0281,1.9787,1.8957,1.8144,1.7314,1.686,1.5753,1.349,1.2713,1.2104,1.1161,1.0554,1.0197,0.985,0.9161,0.8723,0.8372,0.7933,0.758,0.7231,0.6969,0.67,0.6523,0.6435,0.6077,0.5811,0.5542,0.5275,0.5008,0.5188,0.5099,0.4919,0.4746,0.4389,0.3764,0.3047,0.2599,0.2065,0.1263,0.0365,-0.0561,-0.1624,-0.2915,-0.3844,-0.4489,-0.5231,2.71,2.6839,2.7255,2.7272,2.71,2.7004,2.6858,2.659,2.6315,2.5997,2.5631,2.5297,2.4981,2.471,2.441,2.4078,2.3782,2.3436,2.2889,2.2388,2.2249,2.2095,2.1921,2.1921,2.2077,2.2263,2.2077,2.217,2.242,2.2203,2.2123,2.2123,2.2399,2.2672,2.2898,2.3259,2.401,2.4893,2.572,2.6507,2.7317,2.8122,2.8668,2.8873,2.8779,2.8606,2.8398,2.8155,2.8286,2.8842,2.9216,2.927,2.8993,2.9261,2.9276,2.9139,2.9337,2.9241,2.8828,2.8623,2.8268,2.7423,2.6042,2.4936,2.4436,2.3071,2.1997,2.1216,2.0413,1.9775,1.915,1.8154,1.6742,1.5092,1.5163,1.4697,1.2945,1.2126,1.1467,1.0371,0.9937,0.96,0.9109,0.8719,0.8372,0.794,0.7588,0.7231,0.6881,0.6615,0.6435,0.626,0.6083,0.5633,0.5275,0.5006,0.465,0.4295,0.4297,0.4389,0.421,0.4032,0.3583,0.3045,0.242,0.1883,0.1345,0.0719,-0.0275,-0.1397,-0.2556,-0.3754,-0.4897,-0.576,-0.6412,2.6741,2.6454,2.6807,2.6856,2.6657,2.659,2.6383,2.6049,2.5815,2.5481,2.5075,2.4839,2.4558,2.4276,2.3994,2.3681,2.329,2.2904,2.2342,2.1684,2.1153,2.1068,2.118,2.1326,2.1471,2.165,2.1554,2.1793,2.2049,2.1888,2.1888,2.2194,2.2484,2.2681,2.271,2.3378,2.399,2.483,2.5492,2.6217,2.7206,2.7667,2.8012,2.8204,2.8125,2.7978,2.771,2.7408,2.7545,2.8134,2.8473,2.85,2.8378,2.8643,2.8853,2.8887,2.8963,2.8713,2.846,2.8022,2.7235,2.6316,2.5077,2.4201,2.3492,2.2549,2.1747,2.0578,2.0015,1.9318,1.8321,1.7051,1.5455,1.4019,1.3738,1.3295,1.1781,1.12,1.0612,0.9867,0.9372,0.8998,0.8521,0.8321,0.7929,0.7499,0.7143,0.67,0.626,0.6171,0.6083,0.5816,0.5547,0.5099,0.4741,0.4474,0.4115,0.376,0.3403,0.3496,0.3406,0.3227,0.2957,0.251,0.1793,0.1167,0.0629,-0.018,-0.1362,-0.2492,-0.3565,-0.4494,-0.5654,-0.6426,-0.7084,2.6418,2.626,2.6385,2.6385,2.6279,2.6208,2.5888,2.5481,2.5291,2.5036,2.4614,2.4343,2.4094,2.3897,2.3551,2.3187,2.2694,2.2263,2.167,2.1042,2.0472,2.0334,2.0736,2.0835,2.0934,2.0983,2.0997,2.118,2.1444,2.1492,2.1698,2.2027,2.2457,2.2637,2.2728,2.3271,2.39,2.4562,2.5056,2.5799,2.6689,2.7027,2.7261,2.7464,2.7479,2.7312,2.7086,2.6826,2.693,2.7423,2.7569,2.7631,2.7425,2.7476,2.7779,2.8181,2.8025,2.7854,2.7921,2.69,2.5842,2.5077,2.4196,2.3356,2.2689,2.2273,2.1425,1.9849,1.9567,1.8606,1.7014,1.5641,1.4299,1.3084,1.2365,1.1558,1.0854,1.0182,0.9693,0.9266,0.879,0.8531,0.8134,0.7805,0.7386,0.7071,0.6744,0.6254,0.5725,0.5458,0.528,0.5191,0.4832,0.4563,0.4206,0.3939,0.3582,0.3224,0.2777,0.2689,0.2689,0.251,0.2332,0.1884,0.0987,0.036,0.0,-0.1088,-0.2365,-0.3321,-0.4152,-0.5181,-0.6238,-0.6695,-0.7356,2.6189,2.5787,2.601,2.5885,2.5567,2.5572,2.5438,2.5091,2.4695,2.4508,2.4287,2.3909,2.3551,2.326,2.2979,2.2466,2.1827,2.1492,2.0993,2.0271,2.0016,1.9811,2.0016,2.0169,2.0422,2.0523,2.0623,2.0809,2.0957,2.1055,2.1068,2.1385,2.216,2.2592,2.305,2.3644,2.4496,2.5089,2.532,2.559,2.6112,2.639,2.6587,2.6953,2.693,2.6721,2.6539,2.6433,2.6433,2.6707,2.7195,2.7477,2.7457,2.7755,2.7937,2.7783,2.7507,2.7106,2.6634,2.5859,2.5011,2.4085,2.3288,2.2616,2.2344,2.1824,2.0706,1.9366,1.8884,1.7779,1.5417,1.4299,1.3222,1.2137,1.1329,1.0663,1.0154,0.9666,0.9242,0.8913,0.8466,0.8085,0.7654,0.7473,0.7042,0.6717,0.6256,0.5794,0.527,0.4823,0.4656,0.4567,0.4208,0.3941,0.4028,0.3582,0.2867,0.2509,0.2061,0.1703,0.1703,0.1524,0.1256,0.0717,0.0,-0.045,-0.0905,-0.2013,-0.3307,-0.4018,-0.474,-0.5676,-0.6432,-0.6979,-0.7438,2.5917,2.5524,2.5621,2.547,2.5201,2.5169,2.5029,2.4686,2.4426,2.4094,2.3739,2.348,2.3009,2.2495,2.2296,2.1827,2.1153,2.066,2.0207,1.972,1.946,1.9303,1.9344,1.9488,1.9683,2.0003,2.022,2.0422,2.066,2.0785,2.1103,2.1559,2.2183,2.2704,2.3148,2.3757,2.4137,2.4449,2.4709,2.4929,2.5287,2.5577,2.5879,2.615,2.6165,2.6071,2.5921,2.6002,2.5962,2.6087,2.6463,2.6797,2.688,2.7044,2.7159,2.7083,2.6387,2.5878,2.5322,2.4622,2.3752,2.2909,2.238,2.201,2.1619,2.1155,2.0334,1.916,1.8184,1.6909,1.4023,1.3011,1.2144,1.1403,1.0663,1.0067,0.962,0.9241,0.8894,0.8563,0.8102,0.7713,0.7349,0.7062,0.6797,0.6404,0.5728,0.5269,0.4685,0.4249,0.4113,0.3944,0.3587,0.3496,0.3762,0.3314,0.2239,0.1792,0.1345,0.0807,0.0538,0.0359,0.009,-0.0359,-0.0807,-0.1347,-0.1896,-0.3019,-0.3891,-0.4667,-0.5294,-0.6059,-0.6543,-0.7012,-0.747,2.5642,2.5339,2.5278,2.5139,2.4982,2.4886,2.467,2.4302,2.4135,2.3696,2.3127,2.2979,2.2434,2.1841,2.1636,2.1251,2.056,1.9901,1.9408,1.9316,1.8999,1.8893,1.8881,1.891,1.8951,1.9396,1.9656,2.0016,2.0258,2.051,2.0666,2.1661,2.2233,2.2392,2.2751,2.3324,2.3665,2.3712,2.3877,2.411,2.4513,2.4765,2.5075,2.5411,2.5536,2.5536,2.5536,2.5592,2.5633,2.5494,2.5578,2.5605,2.5605,2.5647,2.5688,2.5796,2.4869,2.4314,2.3991,2.3376,2.2543,2.1584,2.156,2.133,2.0754,2.036,1.9732,1.861,1.7362,1.5543,1.31,1.217,1.149,1.0893,1.0218,0.9695,0.9241,0.8856,0.8489,0.8205,0.7749,0.7359,0.7034,0.6728,0.646,0.6111,0.5368,0.4748,0.4169,0.3769,0.3714,0.366,0.3392,0.2957,0.3136,0.2777,0.1792,0.1255,0.0718,0.0179,-0.0269,-0.0628,-0.0807,-0.0986,-0.1435,-0.2067,-0.2721,-0.36,-0.4471,-0.5134,-0.5693,-0.6219,-0.6695,-0.7153,-0.7489,2.5492,2.51,2.5045,2.4886,2.4655,2.4467,2.4302,2.4021,2.3566,2.3172,2.2844,2.2296,2.1766,2.1286,2.0908,2.0359,1.9708,1.921,1.8946,1.8839,1.8679,1.8572,1.8464,1.841,1.841,1.8518,1.8827,1.9186,1.9436,1.95,1.9859,2.0127,2.0646,2.1142,2.1852,2.2419,2.2924,2.3193,2.3399,2.369,2.4034,2.4274,2.4505,2.4905,2.5118,2.5244,2.523,2.5425,2.555,2.5494,2.5244,2.4948,2.4637,2.4567,2.4461,2.4223,2.3535,2.2994,2.2702,2.2246,2.1713,2.128,2.0828,2.0422,2.0091,1.9606,1.8776,1.7346,1.5586,1.3708,1.2451,1.1734,1.0917,1.0304,0.9852,0.9468,0.8937,0.8479,0.8097,0.7799,0.7451,0.7091,0.6688,0.6265,0.5993,0.5412,0.4665,0.4208,0.3723,0.3432,0.3309,0.3254,0.328,0.2854,0.2511,0.1973,0.1345,0.0807,0.0359,-0.0179,-0.0718,-0.1256,-0.1615,-0.1615,-0.2157,-0.2794,-0.3564,-0.4177,-0.4714,-0.5315,-0.5797,-0.6393,-0.6645,-0.6892,-0.7078,2.4328,2.3732,2.3983,2.4035,2.3937,2.4096,2.3909,2.3551,2.3113,2.2572,2.2049,2.1479,2.0944,2.0497,2.0156,1.9617,1.9064,1.8679,1.8464,1.8344,1.8193,1.8084,1.8009,1.7977,1.7767,1.7767,1.7931,1.8356,1.8721,1.8869,1.9042,1.9516,1.9837,2.0312,2.0876,2.1309,2.1906,2.2409,2.2723,2.3098,2.3577,2.3852,2.4274,2.4492,2.4721,2.4892,2.4892,2.5018,2.5018,2.4778,2.458,2.4163,2.3623,2.3207,2.3015,2.3088,2.2482,2.1996,2.1731,2.1308,2.0808,2.0355,1.9971,1.9561,1.9127,1.8506,1.7612,1.6142,1.4974,1.329,1.2289,1.1557,1.0894,1.0231,0.9703,0.918,0.8703,0.8331,0.7872,0.7484,0.735,0.6976,0.6271,0.5921,0.5477,0.4818,0.3993,0.3611,0.3381,0.3189,0.3079,0.2947,0.2979,0.2573,0.2056,0.1525,0.1076,0.0628,0.009,-0.0359,-0.0897,-0.1346,-0.1795,-0.1974,-0.27,-0.3247,-0.3723,-0.4225,-0.4799,-0.5293,-0.5736,-0.619,-0.6468,-0.6714,-0.6802,2.346,2.2794,2.3176,2.33,2.3243,2.3556,2.3377,2.2875,2.2512,2.1894,2.1126,2.0746,2.0308,1.9759,1.9368,1.8982,1.8581,1.8409,1.8269,1.8261,1.8103,1.7878,1.7732,1.752,1.7486,1.7362,1.7132,1.739,1.7952,1.817,1.8577,1.8838,1.9124,1.953,1.9977,2.0325,2.0812,2.1277,2.1611,2.2117,2.2883,2.3449,2.3949,2.4189,2.4376,2.4447,2.4319,2.435,2.4234,2.3917,2.361,2.3314,2.2616,2.1898,2.1694,2.1883,2.1568,2.1221,2.0853,2.0529,2.0058,1.9584,1.9305,1.8822,1.8239,1.7473,1.6506,1.5146,1.417,1.3345,1.232,1.152,1.0886,1.0229,0.9643,0.9066,0.8565,0.825,0.7949,0.7565,0.7334,0.6872,0.6254,0.5634,0.528,0.458,0.3766,0.3611,0.3313,0.3128,0.2935,0.2729,0.2511,0.22,0.1779,0.1256,0.0987,0.0628,0.009,-0.0359,-0.0897,-0.1346,-0.1705,-0.2154,-0.269,-0.3236,-0.3704,-0.4188,-0.465,-0.5126,-0.5603,-0.5974,-0.623,-0.6498,-0.6625,2.4045,2.3625,2.3543,2.3404,2.3069,2.2921,2.2558,2.2049,2.1609,2.114,2.061,2.0156,1.9759,1.9303,1.8721,1.8545,1.8487,1.8351,1.8289,1.8449,1.8359,1.824,1.8154,1.7723,1.7408,1.7116,1.6686,1.6772,1.7242,1.7411,1.7523,1.7824,1.8137,1.8338,1.8851,1.9249,1.9814,2.0332,2.0543,2.1144,2.2027,2.2488,2.3025,2.3436,2.3734,2.3734,2.3458,2.3433,2.3242,2.2942,2.2518,2.2113,2.1635,2.1419,2.0797,2.0517,2.0268,2.0232,1.9979,1.9728,1.9375,1.8995,1.8638,1.8188,1.7489,1.6545,1.5538,1.4866,1.3973,1.3086,1.2164,1.1456,1.0679,1.0053,0.9635,0.9101,0.8548,0.8399,0.8097,0.7795,0.7642,0.6945,0.6251,0.5628,0.501,0.4311,0.3692,0.3545,0.3326,0.3149,0.2802,0.26,0.2477,0.2172,0.1769,0.1249,0.0897,0.0718,0.0179,-0.0359,-0.0718,-0.1166,-0.1705,-0.2154,-0.2599,-0.3047,-0.3419,-0.3906,-0.4514,-0.4957,-0.5329,-0.5603,-0.5876,-0.6142,-0.6407,2.2557,2.1943,2.2265,2.2191,2.1936,2.202,2.1799,2.1382,2.0944,2.0459,2.0003,1.9552,1.9093,1.8548,1.8073,1.8014,1.8052,1.7941,1.8062,1.828,1.8243,1.811,1.7759,1.7451,1.7236,1.6931,1.6558,1.6457,1.6765,1.7026,1.7143,1.7259,1.7456,1.7573,1.784,1.8092,1.8646,1.9206,1.9738,2.0192,2.0694,2.1219,2.1666,2.2006,2.2408,2.247,2.2421,2.2335,2.2127,2.1694,2.1279,2.0782,2.0302,1.9854,1.937,1.8927,1.8825,1.9031,1.9433,1.9077,1.8766,1.8353,1.7925,1.7218,1.6445,1.556,1.4734,1.4146,1.3536,1.2794,1.2152,1.1632,1.0903,1.0335,0.9817,0.9252,0.8805,0.8598,0.8403,0.8102,0.7808,0.7219,0.6535,0.5914,0.5358,0.4873,0.4171,0.3787,0.3545,0.3243,0.2829,0.2314,0.2273,0.2229,0.1836,0.142,0.1075,0.0807,0.0269,-0.0179,-0.0538,-0.0987,-0.1436,-0.1795,-0.2153,-0.2602,-0.3141,-0.3609,-0.4193,-0.462,-0.4966,-0.5223,-0.5485,-0.5866,-0.6131,2.1148,2.0559,2.1108,2.1213,2.0964,2.1192,2.1028,2.0696,2.0359,1.9862,1.9239,1.8709,1.8104,1.7667,1.7455,1.7438,1.762,1.7525,1.7616,1.7697,1.7767,1.7627,1.75,1.7238,1.6983,1.6709,1.6239,1.6153,1.6379,1.6645,1.6818,1.6971,1.7251,1.7176,1.7042,1.7275,1.777,1.8112,1.8873,1.9306,1.9599,2.013,2.0488,2.0838,2.107,2.1302,2.1239,2.1152,2.0887,2.044,2.0063,1.9617,1.9044,1.8738,1.836,1.7983,1.7825,1.7944,1.8291,1.8276,1.7979,1.7709,1.7115,1.6347,1.547,1.4657,1.4062,1.3639,1.3209,1.2607,1.2077,1.1669,1.1115,1.0616,1.0187,0.9602,0.9113,0.8994,0.8754,0.8535,0.8169,0.7803,0.7104,0.6301,0.5726,0.537,0.4813,0.4193,0.3728,0.3416,0.3079,0.2664,0.2348,0.2311,0.2106,0.169,0.1343,0.0897,0.0448,0.009,-0.0269,-0.0628,-0.0987,-0.1346,-0.1705,-0.2154,-0.2602,-0.3235,-0.3873,-0.4104,-0.443,-0.4659,-0.5005,-0.5379,-0.5739,2.067,2.0455,2.0851,2.0899,2.0752,2.0434,2.0169,1.9901,1.9695,1.9133,1.8321,1.7501,1.7056,1.6825,1.6746,1.6839,1.7358,1.6977,1.7081,1.7293,1.7445,1.7331,1.7159,1.6968,1.676,1.628,1.5975,1.5816,1.5846,1.6101,1.6474,1.6898,1.6931,1.6954,1.6887,1.6869,1.7002,1.7286,1.7859,1.8412,1.8791,1.9287,1.9706,2.025,2.0534,2.0537,2.0237,2.002,1.9683,1.9233,1.8834,1.8499,1.8076,1.7719,1.7413,1.708,1.6806,1.6867,1.7003,1.7206,1.7347,1.709,1.6394,1.5477,1.4734,1.4328,1.3822,1.3215,1.2881,1.246,1.194,1.1472,1.1182,1.08,1.0377,0.9963,0.9551,0.9404,0.9252,0.8922,0.8467,0.794,0.7648,0.6925,0.6579,0.6134,0.5648,0.5098,0.4243,0.385,0.3488,0.3121,0.2613,0.2406,0.2484,0.2061,0.1705,0.1256,0.0897,0.0448,0.009,-0.0269,-0.0628,-0.0987,-0.1346,-0.1705,-0.2153,-0.2694,-0.3238,-0.3607,-0.3908,-0.4231,-0.4555,-0.4908,-0.5239,2.0055,1.9914,2.0016,2.0016,2.0055,1.9823,1.9617,1.9384,1.8975,1.8267,1.7335,1.6719,1.6409,1.6305,1.6128,1.6301,1.6764,1.6703,1.6649,1.6665,1.6706,1.6576,1.6435,1.6321,1.6162,1.5919,1.5663,1.5663,1.5774,1.5557,1.5694,1.6093,1.6336,1.6132,1.603,1.6268,1.6402,1.6592,1.6835,1.7252,1.7262,1.7846,1.825,1.8308,1.8895,1.8813,1.8643,1.8654,1.8385,1.8114,1.7716,1.7364,1.7019,1.6652,1.6288,1.6062,1.5733,1.5623,1.5678,1.5945,1.6043,1.5636,1.5068,1.4573,1.4062,1.3561,1.3313,1.2966,1.2552,1.2152,1.1946,1.1688,1.137,1.1027,1.0642,1.0226,0.9911,0.9676,0.929,0.8806,0.8401,0.7931,0.7718,0.7495,0.7219,0.7022,0.6528,0.5964,0.4931,0.4195,0.3898,0.3589,0.3076,0.2747,0.274,0.2409,0.2063,0.1705,0.1256,0.0897,0.0448,0.009,-0.0269,-0.0538,-0.0897,-0.1345,-0.1794,-0.2242,-0.2694,-0.315,-0.3524,-0.3912,-0.4137,-0.4364,-0.4671,1.9629,1.942,1.9368,1.942,1.9512,1.9368,1.9146,1.8869,1.8441,1.749,1.6415,1.5921,1.5684,1.5664,1.5417,1.5588,1.5882,1.5872,1.5722,1.566,1.5604,1.5463,1.5392,1.5455,1.5562,1.5413,1.5443,1.5418,1.535,1.4846,1.4948,1.5208,1.5428,1.5155,1.5423,1.5433,1.5827,1.6024,1.627,1.644,1.6446,1.6883,1.7226,1.714,1.7532,1.755,1.7491,1.7501,1.7373,1.7028,1.6751,1.6412,1.5982,1.5505,1.5111,1.4832,1.4587,1.4364,1.4609,1.4801,1.4914,1.4448,1.4243,1.3737,1.3313,1.2881,1.2711,1.2558,1.2169,1.195,1.1922,1.1673,1.1484,1.1144,1.0792,1.0388,1.0011,0.9712,0.9188,0.8674,0.8267,0.8034,0.7701,0.7562,0.7158,0.6901,0.6597,0.5917,0.5074,0.4561,0.4368,0.3966,0.3635,0.3396,0.3161,0.2753,0.2422,0.2152,0.1793,0.1256,0.0897,0.0448,0.0179,0.009,-0.0359,-0.0897,-0.1346,-0.1705,-0.2153,-0.2781,-0.3063,-0.3347,-0.3622,-0.3837,-0.404,1.9389,1.9052,1.9158,1.9275,1.9316,1.9093,1.8774,1.8333,1.7897,1.6933,1.5623,1.4902,1.4744,1.4827,1.4737,1.4956,1.5112,1.4874,1.453,1.4394,1.4402,1.4258,1.4402,1.4625,1.4697,1.4625,1.4712,1.4775,1.4561,1.4268,1.4235,1.4106,1.4117,1.4364,1.5067,1.5155,1.5384,1.5745,1.6035,1.6218,1.6426,1.6651,1.6711,1.6807,1.6706,1.6682,1.6673,1.6524,1.6315,1.6114,1.5903,1.5576,1.5215,1.4632,1.4321,1.4149,1.3679,1.3613,1.3871,1.42,1.3924,1.3548,1.3398,1.3137,1.2625,1.2369,1.2324,1.2204,1.1975,1.1817,1.1625,1.1521,1.1494,1.1189,1.0926,1.0393,0.9928,0.9577,0.9132,0.8547,0.8462,0.8325,0.7922,0.7537,0.7021,0.6666,0.6461,0.5937,0.5295,0.5012,0.4884,0.4452,0.4037,0.3873,0.3542,0.3118,0.2777,0.2598,0.224,0.1794,0.1346,0.0987,0.0807,0.0628,0.0269,-0.0359,-0.0718,-0.1076,-0.1619,-0.2075,-0.2426,-0.2788,-0.3056,-0.3334,-0.3451,1.9083,1.8905,1.8999,1.8999,1.8881,1.8893,1.8572,1.7897,1.6775,1.5623,1.4762,1.431,1.4362,1.4487,1.4771,1.4788,1.456,1.4782,1.441,1.3404,1.3397,1.3331,1.3477,1.3695,1.3768,1.355,1.3768,1.384,1.3251,1.3178,1.3105,1.3032,1.3105,1.3615,1.4186,1.4489,1.4625,1.4991,1.5338,1.5621,1.57,1.5982,1.6202,1.6272,1.5991,1.5912,1.5903,1.5675,1.5401,1.5125,1.4911,1.4672,1.4309,1.3844,1.3561,1.3388,1.3074,1.3001,1.2893,1.2832,1.2687,1.2625,1.2735,1.257,1.2215,1.2037,1.2037,1.2085,1.2043,1.2004,1.2097,1.1976,1.1833,1.1191,1.0755,1.0129,0.9703,0.9425,0.8992,0.8436,0.8127,0.8024,0.7738,0.7672,0.7267,0.7078,0.6851,0.6328,0.5687,0.5606,0.5585,0.497,0.4448,0.4277,0.4022,0.358,0.3224,0.3045,0.2689,0.2243,0.1885,0.1525,0.1256,0.1166,0.0718,0.0179,-0.018,-0.0452,-0.0907,-0.1362,-0.1727,-0.2076,-0.2424,-0.2702,-0.2809,1.8869,1.8691,1.8839,1.8732,1.856,1.8732,1.829,1.7157,1.569,1.479,1.4563,1.432,1.4513,1.4861,1.4968,1.4988,1.453,1.433,1.4042,1.2973,1.282,1.282,1.282,1.29,1.3112,1.2973,1.282,1.282,1.282,1.2224,1.2077,1.2224,1.2305,1.2666,1.3244,1.3542,1.3985,1.4274,1.4625,1.4768,1.4919,1.5133,1.5267,1.5267,1.5133,1.4919,1.4903,1.4689,1.4338,1.4072,1.3887,1.3726,1.3471,1.3104,1.2785,1.2667,1.2365,1.2169,1.1878,1.1875,1.1821,1.1914,1.1978,1.1942,1.1828,1.1728,1.1876,1.1975,1.2147,1.2218,1.2285,1.2152,1.1898,1.1338,1.071,1.0074,0.9531,0.9324,0.9106,0.8468,0.8208,0.8032,0.7764,0.7676,0.757,0.7397,0.7319,0.6786,0.6166,0.608,0.5991,0.5455,0.501,0.4739,0.4469,0.4028,0.376,0.3403,0.3047,0.2691,0.2423,0.2063,0.1884,0.1705,0.1257,0.09,0.0453,0.0091,-0.0276,-0.0647,-0.1021,-0.1376,-0.1804,-0.2082,-0.2192,1.8762,1.8433,1.8572,1.8518,1.8422,1.8464,1.7667,1.6197,1.4815,1.4587,1.5013,1.4533,1.4772,1.5423,1.5155,1.4882,1.4704,1.4034,1.347,1.2966,1.2673,1.2519,1.2452,1.2606,1.2599,1.2673,1.2526,1.2224,1.2599,1.1855,1.1484,1.1484,1.1558,1.1848,1.2218,1.2666,1.3185,1.3542,1.3833,1.3977,1.4194,1.4201,1.4338,1.4338,1.4114,1.3897,1.368,1.3462,1.3141,1.3012,1.2873,1.2775,1.2628,1.2261,1.2041,1.1804,1.1459,1.1198,1.1142,1.1128,1.1094,1.1125,1.122,1.1222,1.1449,1.1556,1.1775,1.1967,1.2161,1.2248,1.2243,1.2101,1.1957,1.1419,1.0871,1.0196,0.96,0.9281,0.9045,0.8783,0.8773,0.8564,0.8116,0.794,0.7852,0.7676,0.7588,0.7319,0.6697,0.6257,0.6169,0.5899,0.5455,0.5277,0.4921,0.4563,0.4119,0.3851,0.3492,0.3136,0.2957,0.2691,0.2511,0.2243,0.1977,0.1632,0.1205,0.0747,0.028,0.0,-0.0189,-0.0655,-0.1104,-0.1476,-0.1672,1.8426,1.8205,1.8356,1.8259,1.781,1.7056,1.6379,1.57,1.4765,1.4638,1.4844,1.4742,1.4967,1.5206,1.5272,1.4947,1.4514,1.4049,1.347,1.2959,1.2445,1.2452,1.2452,1.2305,1.215,1.1781,1.1558,1.1335,1.0962,1.0663,1.0887,1.0812,1.1037,1.1105,1.1335,1.1564,1.2224,1.2739,1.3032,1.3251,1.3404,1.3411,1.355,1.3535,1.3171,1.2959,1.2872,1.2512,1.2304,1.2164,1.1916,1.184,1.1921,1.1588,1.1394,1.1017,1.0626,1.0353,1.0411,1.0329,1.0386,1.0622,1.0791,1.0983,1.1174,1.1461,1.1703,1.2015,1.2293,1.2377,1.2388,1.2241,1.1962,1.1417,1.0872,1.0224,0.9638,0.9507,0.9342,0.9208,0.9106,0.8849,0.8484,0.8288,0.8201,0.794,0.7764,0.7584,0.7319,0.6789,0.6435,0.6254,0.5988,0.5722,0.5366,0.5008,0.4654,0.43,0.3941,0.3676,0.3509,0.3239,0.3051,0.2797,0.2552,0.2243,0.1828,0.1443,0.1143,0.0958,0.0674,0.019,-0.0283,-0.0661,-0.1044,1.8141,1.792,1.7865,1.7401,1.6673,1.5989,1.5526,1.5137,1.4643,1.4707,1.5149,1.5106,1.5271,1.5515,1.5536,1.5133,1.4482,1.3912,1.3331,1.2893,1.2224,1.2077,1.2077,1.1781,1.1484,1.1111,1.0812,1.0594,1.0143,1.0143,1.0293,1.0438,1.0588,1.0663,1.0812,1.0962,1.1267,1.1781,1.215,1.2372,1.2526,1.2606,1.2739,1.2806,1.2372,1.2144,1.2003,1.1571,1.1419,1.1206,1.1013,1.1049,1.1028,1.0716,1.0374,1.0028,0.987,0.9864,0.9899,0.9998,1.009,1.0287,1.0554,1.0826,1.1111,1.1367,1.1697,1.1965,1.2369,1.2677,1.2518,1.2346,1.1915,1.1389,1.0765,1.0145,1.001,0.988,0.9677,0.9505,0.9272,0.9089,0.8861,0.8664,0.8552,0.8556,0.8376,0.8197,0.7845,0.7404,0.6962,0.6694,0.6432,0.6169,0.5811,0.5542,0.5186,0.4921,0.4654,0.4395,0.4059,0.3912,0.3656,0.341,0.3161,0.286,0.2538,0.2337,0.2131,0.1853,0.1572,0.1174,0.0679,0.0193,-0.0097,1.7922,1.7656,1.7123,1.6368,1.5342,1.5284,1.5001,1.4474,1.4435,1.4899,1.5523,1.5521,1.5652,1.5808,1.5497,1.5062,1.441,1.3768,1.3193,1.282,1.2077,1.1706,1.1329,1.0887,1.1037,1.0887,1.0663,1.0293,1.0293,1.0067,0.9922,1.0143,1.0293,1.0368,1.0363,1.0363,1.0588,1.0887,1.1186,1.1409,1.1632,1.1706,1.1632,1.1632,1.1416,1.1117,1.0697,1.0447,1.0362,1.0309,1.0295,1.0372,1.0005,0.9647,0.9396,0.9239,0.9165,0.9298,0.9434,0.9622,0.9897,1.0192,1.0587,1.0834,1.1072,1.1468,1.179,1.1996,1.2383,1.2678,1.2603,1.2124,1.1609,1.1303,1.0891,1.036,1.0127,1.0062,0.9991,0.9855,0.9731,0.9448,0.9285,0.9178,0.9017,0.9054,0.8907,0.8727,0.8476,0.8032,0.769,0.7248,0.6877,0.6615,0.6343,0.6074,0.5808,0.5542,0.5292,0.507,0.4851,0.4623,0.4386,0.4146,0.3903,0.3663,0.3329,0.3139,0.296,0.2585,0.2401,0.2211,0.1701,0.1188,0.0791,1.7634,1.7323,1.6627,1.5921,1.5264,1.4737,1.4332,1.4165,1.4475,1.4974,1.5551,1.5495,1.5489,1.5542,1.507,1.4561,1.3977,1.3397,1.2893,1.2305,1.1706,1.118,1.1031,1.0738,1.0738,1.0588,1.0438,1.0218,0.9992,0.9695,0.9473,0.9549,0.9771,0.9846,0.9846,0.9841,0.9992,1.0143,1.0293,1.0669,1.1037,1.1037,1.0962,1.0818,1.0599,1.041,1.0089,1.0031,1.0041,1.0008,0.9849,0.9597,0.9269,0.8969,0.8709,0.8645,0.854,0.8702,0.9055,0.9324,0.9587,0.9983,1.0365,1.0658,1.0972,1.1496,1.1895,1.2066,1.2273,1.2565,1.2565,1.198,1.1492,1.1296,1.0998,1.0663,1.0325,1.0312,1.0283,1.0247,1.0116,1.0021,0.9844,0.9673,0.9593,0.9411,0.9306,0.9095,0.9042,0.879,0.8383,0.793,0.7337,0.6972,0.6887,0.6659,0.6418,0.6164,0.5916,0.57,0.558,0.5284,0.507,0.4923,0.4679,0.4328,0.4162,0.4095,0.3819,0.3428,0.3226,0.3025,0.2925,0.2501,0.2003,1.7345,1.6987,1.6056,1.5332,1.4728,1.4145,1.377,1.3659,1.3988,1.4322,1.4706,1.5069,1.532,1.5078,1.4497,1.3833,1.3251,1.282,1.2157,1.1558,1.1073,1.0582,1.0438,1.0396,1.0218,1.0073,1.0218,1.0067,0.9771,0.9397,0.917,0.9246,0.9397,0.9473,0.9473,0.9473,0.9549,0.962,0.9625,0.9857,1.0374,1.0374,1.0288,1.0148,0.9953,0.9761,0.9541,0.9488,0.9418,0.9251,0.911,0.8936,0.8636,0.8363,0.822,0.8223,0.8268,0.8298,0.8745,0.9104,0.9355,0.9742,1.0302,1.0728,1.0918,1.1341,1.1659,1.1834,1.2021,1.2278,1.237,1.198,1.1688,1.1389,1.0998,1.0489,1.0663,1.0905,1.0871,1.083,1.0815,1.0836,1.0653,1.0466,1.0309,1.0035,0.9899,0.9674,0.958,0.9437,0.9101,0.8759,0.8091,0.7703,0.7541,0.7319,0.7002,0.6828,0.6566,0.6389,0.62,0.6,0.5784,0.5615,0.5347,0.5077,0.4916,0.4834,0.4537,0.4033,0.3932,0.3831,0.3732,0.3632,0.3224,1.6931,1.6457,1.5517,1.4638,1.3855,1.3442,1.3099,1.2883,1.3154,1.3142,1.316,1.4356,1.4633,1.4225,1.371,1.3039,1.2472,1.1951,1.1265,1.0686,1.0198,0.9879,0.9725,0.9597,0.9755,0.985,0.9949,0.9933,0.9765,0.9241,0.8941,0.917,0.9246,0.9251,0.9246,0.9246,0.9322,0.9342,0.9357,0.9219,0.9433,0.9651,0.9753,0.9673,0.9476,0.937,0.9068,0.8864,0.8813,0.8572,0.8396,0.8097,0.8008,0.7739,0.7833,0.7818,0.7955,0.8119,0.8553,0.9069,0.9307,0.9693,1.0387,1.0678,1.0766,1.0893,1.1223,1.1466,1.1662,1.18,1.1795,1.1883,1.159,1.1487,1.0998,1.0605,1.0993,1.1282,1.126,1.1321,1.1367,1.1487,1.1328,1.113,1.0905,1.072,1.0505,1.0394,1.0163,0.9884,0.9661,0.9417,0.905,0.8651,0.8337,0.7905,0.7684,0.7539,0.7383,0.712,0.6831,0.6603,0.6358,0.6297,0.6027,0.5824,0.5627,0.5536,0.5138,0.4738,0.4636,0.4634,0.4533,0.4433,0.4234,1.6151,1.5216,1.4815,1.3923,1.2842,1.2413,1.2115,1.1855,1.2157,1.2192,1.2161,1.2342,1.2565,1.2505,1.2224,1.1726,1.1271,1.0918,1.0479,0.9823,0.9691,0.9463,0.9477,0.9637,0.9948,0.9974,0.9806,0.9408,0.9311,0.8861,0.856,0.8632,0.8946,0.9027,0.9037,0.9042,0.9148,0.9192,0.9218,0.9194,0.912,0.9277,0.9272,0.9197,0.9157,0.9091,0.898,0.8795,0.8679,0.8491,0.8027,0.7599,0.7392,0.7312,0.7359,0.7482,0.7607,0.7969,0.8425,0.8993,0.9335,0.9495,0.9933,1.0178,1.0095,0.9953,1.0371,1.0613,1.0822,1.0883,1.103,1.1203,1.1096,1.1292,1.0998,1.1096,1.1389,1.1487,1.1633,1.1691,1.1864,1.1839,1.1829,1.1547,1.1282,1.1148,1.0834,1.0716,1.0594,1.0366,1.0147,0.9997,0.9849,0.9507,0.8987,0.8528,0.8291,0.8248,0.8119,0.7824,0.7514,0.7186,0.7039,0.6939,0.6839,0.6734,0.6539,0.6139,0.5939,0.5639,0.5436,0.5334,0.5233,0.5135,0.4935]},{"header":{"parameterUnit":"m.s-1","parameterCategory":1,"la1":31.0,"la2":29.5877,"lo1":-88.7671,"lo2":-86.6584,"dy":0.0162,"dx":0.0185,"nx":115,"ny":88,"refTime":"2024-08-27T06:00:00:Z","depth":0,"parameterNumber":3,"parameterNumberName":"V-component_of_WINDS"},"data":[0.0,0.0,0.0,0.0,0.0,0.0,0.0,0.0,0.0,0.0,0.0,0.0,0.0,0.0,0.0,0.0,0.0,0.0,0.0,0.0,0.0,0.0,0.0,0.0,0.0,0.0,0.0,0.0,0.0,0.0,0.0,0.0,0.0,0.0,0.0,0.0,0.0,0.0,0.0,0.0,0.0,0.0,0.0,0.0,0.0,0.0,0.0,0.0,0.0,0.0,0.0,0.0,0.0,0.0,0.0,0.0,0.0,0.0,0.0,0.0,0.0,0.0,0.0,0.0,0.0,0.0,0.0,0.0,0.0,0.0,0.0,0.0,0.0,0.0,0.0,0.0,0.0,0.0,0.0,0.0,0.0,0.0,0.0,0.0,0.0,0.0,0.0,0.0,0.0,0.0,0.0,0.0,0.0,0.0,0.0,0.0,0.0,0.0,0.0,0.0,0.0,0.0,0.0,0.0,0.0,0.0,0.0,0.0,0.0,0.0,0.0,0.0,0.0,0.0,0.0,0.0,0.0,0.0,0.0,0.0,0.0,0.0,0.0,0.0,0.0,0.0,0.0,0.0,0.0,0.0,0.0,0.0,0.0,0.0,0.0,0.0,0.0,0.0,0.0,0.0,0.0,0.0,0.0,0.0,0.0,0.0,0.0,0.0,0.0,0.0,0.0,0.0,0.0,0.0,0.0,0.0,0.0,0.0,0.0,0.0,0.0,0.0,0.0,0.0,0.0,0.0,0.0,0.0,0.0,0.0,0.0,0.0,0.0,0.0,0.0,0.0,0.0,0.0,0.0,0.0,0.0,0.0,0.0,0.0,0.0,0.0,0.0,0.0,0.0,0.0,0.0,0.0,0.0,0.0,0.0,0.0,0.0,0.0,0.0,0.0,0.0,0.0,0.0,0.0,0.0,0.0,0.0,0.0,0.0,0.0,0.0,0.0,0.0,0.0,0.0,0.0,0.0,0.0,0.0,0.0,0.0,0.0,0.0,0.0,0.0,0.0,0.0,0.0,0.0,0.0,0.0,0.0,0.0,0.0,0.0,0.0,0.0,0.0,0.0,0.0,0.0,0.0,0.0,0.0,0.0,0.0,0.0,0.0,0.0,0.0,0.0,0.0,0.0,0.0,0.0,0.0,0.0,0.0,0.0,0.0,0.0,0.0,0.0,0.0,0.0,0.0,0.0,0.0,0.0,0.0,0.0,0.0,0.0,0.0,0.0,0.0,0.0,0.0,0.0,0.0,0.0,0.0,0.0,0.0,0.0,0.0,0.0,0.0,0.0,0.0,0.0,0.0,0.0,0.0,0.0,0.0,0.0,0.0,0.0,0.0,0.0,0.0,0.0,0.0,0.0,0.0,0.0,0.0,0.0,0.0,0.0,0.0,0.0,0.0,0.0,0.0,0.0,0.0,0.0,0.0,0.0,0.0,0.0,0.0,0.0,0.0,0.0,0.0,0.0,0.0,0.0,0.0,0.0,0.0,0.0,0.0,0.0,0.0,0.0,0.0,0.0,0.0,0.0,0.0,0.0,0.0,0.0,0.0,0.0,0.0,0.0,0.0,0.0,0.0,0.0,0.0,0.0,0.0,0.0,0.0,0.0,0.0,0.0,0.0,0.0,0.0,0.0,0.0,0.0,0.0,0.0,0.0,0.0,0.0,0.0,0.0,0.0,0.0,0.0,0.0,0.0,0.0,0.0,0.0,0.0,0.0,0.0,0.0,0.0,0.0,0.0,0.0,0.0,0.0,0.0,0.0,0.0,0.0,0.0,0.0,0.0,0.0,0.0,0.0,0.0,0.0,0.0,0.0,0.0,0.0,0.0,0.0,0.0,0.0,0.0,0.0,0.0,0.0,0.0,0.0,0.0,0.0,0.0,0.0,0.0,0.0,0.0,0.0,0.0,0.0,0.0,0.0,0.0,0.0,0.0,0.0,0.0,0.0,0.0,0.0,0.0,0.0,0.0,0.0,0.0,0.0,0.0,0.0,0.0,0.0,0.0,0.0,0.0,0.0,0.0,0.0,0.0,0.0,0.0,0.0,0.0,0.0,0.0,0.0,0.0,0.0,0.0,0.0,0.0,0.0,0.0,0.0,0.0,0.0,0.0,0.0,0.0,0.0,0.0,0.0,0.0,0.0,0.0,0.0,0.0,0.0,0.0,0.0,0.0,0.0,0.0,0.0,0.0,0.0,0.0,0.0,0.0,0.0,0.0,0.0,0.0,0.0,0.0,0.0,0.0,0.0,0.0,0.0,0.0,0.0,0.0,0.0,0.0,0.0,0.0,0.0,0.0,0.0,0.0,0.0,0.0,0.0,0.0,0.0,0.0,0.0,0.0,0.0,0.0,0.0,0.0,0.0,0.0,0.0,0.0,0.0,0.0,0.0,0.0,0.0,0.0,0.0,0.0,0.0,0.0,0.0,0.0,0.0,0.0,0.0,0.0,0.0,0.0,0.0,0.0,0.0,0.0,0.0,0.0,0.0,0.0,0.0,0.0,0.0,0.0,0.0,0.0,0.0,0.0,0.0,0.0,0.0,0.0,0.0,0.0,0.0,0.0,0.0,0.0,0.0,0.0,0.0,0.0,0.0,0.0,0.0,0.0,0.0,0.0,0.0,0.0,0.0,0.0,0.0,0.0,0.0,0.0,0.0,0.0,0.0,0.0,0.0,0.0,0.0,0.0,0.0,0.0,0.0,0.0,0.0,0.0,0.0,0.0,0.0,0.0,0.0,0.0,0.0,0.0,0.0,0.0,0.0,0.0,0.0,0.0,0.0,0.0,0.0,0.0,0.0,0.0,0.0,0.0,0.0,0.0,0.0,0.0,0.0,0.0,0.0,0.0,0.0,0.0,0.0,0.0,0.0,0.0,0.0,0.0,0.0,0.0,0.0,0.0,0.0,0.0,0.0,0.0,0.0,0.0,0.0,0.0,0.0,0.0,0.0,0.0,0.0,0.0,0.0,0.0,0.0,0.0,0.0,0.0,0.0,0.0,0.0,0.0,0.0,0.0,0.0,0.0,0.0,0.0,0.0,0.0,0.0,0.0,0.0,0.0,0.0,0.0,0.0,0.0,0.0,0.0,0.0,0.0,0.0,0.0,0.0,0.0,0.0,0.0,0.0,0.0,0.0,0.0,0.0,0.0,0.0,0.0,0.0,0.0,0.0,0.0,0.0,0.0,0.0,0.0,0.0,0.0,0.0,0.0,0.0,0.0,0.0,0.0,0.0,0.0,0.0,0.0,0.0,0.0,0.0,0.0,0.0,0.0,0.0,0.0,0.0,0.0,0.0,0.0,0.0,0.0,0.0,0.0,0.0,0.0,0.0,0.0,0.0,0.0,0.0,0.0,0.0,0.0,0.0,0.0,0.0,0.0,0.0,0.0,0.0,0.0,0.0,0.0,0.0,0.0,0.0,0.0,0.0,0.0,0.0,0.0,0.0,0.0,0.0,0.0,0.0,0.0,0.0,0.0,0.0,0.0,0.0,0.0,0.0,0.0,0.0,0.0,0.0,0.0,0.0,0.0,0.0,0.0,0.0,0.0,0.0,0.0,0.0,0.0,0.0,0.0,0.0,0.0,0.0,0.0,0.0,0.0,0.0,0.0,0.0,0.0,0.0,0.0,0.0,0.0,0.0,0.0,0.0,0.0,0.0,0.0,0.0,0.0,0.0,0.0,0.0,0.0,0.0,0.0,0.0,0.0,0.0,0.0,0.0,0.0,0.0,0.0,0.0,0.0,0.0,0.0,0.0,0.0,0.0,0.0,0.0,0.0,0.0,0.0,0.0,0.0,0.0,0.0,0.0,0.0,0.0,0.0,0.0,0.0,0.0,0.0,0.0,0.0,0.0,0.0,0.0,0.0,0.0,0.0,0.0,0.0,0.0,0.0,0.0,0.0,0.0,0.0,0.0,0.0,0.0,0.0,0.0,0.0,0.0,0.0,0.0,0.0,0.0,0.0,0.0,0.0,0.0,0.0,0.0,0.0,0.0,0.0,0.0,0.0,0.0,0.0,0.0,0.0,0.0,0.0,0.0,0.0,0.0,0.0,0.0,0.0,0.0,0.0,0.0,0.0,0.0,0.0,0.0,0.0,0.0,0.0,0.0,0.0,0.0,0.0,0.0,0.0,0.0,0.0,0.0,0.0,0.0,0.0,0.0,0.0,0.0,0.0,0.0,0.0,0.0,0.0,0.0,0.0,0.0,0.0,0.0,0.0,0.0,0.0,0.0,0.0,0.0,0.0,0.0,0.0,0.0,0.0,0.0,0.0,0.0,0.0,0.0,0.6098,0.0,0.0,0.0,0.0,0.0,0.0,0.0,0.0,0.0,0.0,0.0,0.0,0.0,0.0,0.0,0.0,0.0,0.0,0.0,0.0,0.0,0.0,0.0,0.0,0.0,0.0,0.0,0.0,0.0,0.0,0.0,0.0,0.0,0.0,0.0,0.0,0.0,0.0,0.0,0.0,0.0,0.0,0.0,0.0,0.0,0.0,0.0,0.0,0.0,0.0,0.0,0.0,0.0,0.0,0.0,0.0,0.0,0.0,0.0,0.0,0.0,0.0,0.0,0.0,0.0,0.0,0.0,0.0,0.0,0.0,0.0,0.0,0.0,0.0,0.0,0.0,0.0,0.0,0.0,0.0,0.0,0.0,0.0,0.0,0.0,0.0,0.0,0.0,0.0,0.0,0.0,0.0,0.0,0.0,0.0,0.0,0.0,0.0,0.0,0.0,0.0,0.0,0.0,0.0,0.0,0.0,0.0,0.0,0.0,0.0,0.5398,0.5759,0.6825,0.7018,0.6224,0.0,0.0,0.0,0.0,0.0,0.0,0.0,0.0,0.0,0.0,0.0,0.0,0.0,0.0,0.0,0.0,0.0,0.0,0.0,0.0,0.0,0.0,0.0,0.0,0.0,0.0,0.0,0.0,0.0,0.0,0.0,0.0,0.0,0.0,0.0,0.0,0.0,0.0,0.0,0.0,0.0,0.0,0.0,0.0,0.0,0.0,0.0,0.0,0.0,0.0,0.0,0.0,0.0,0.0,0.0,0.0,0.0,0.0,0.0,0.0,0.0,0.0,0.0,0.0,0.0,0.0,0.0,0.0,0.0,0.0,0.0,0.0,0.0,0.0,0.0,0.0,0.0,0.0,0.0,0.0,0.0,0.0,0.0,0.0,0.0,0.0,0.0,0.0,0.0,0.0,0.0,0.0,0.0,0.0,0.0,0.0,0.0,0.0,0.0,0.0,0.0,0.0,0.0,0.0,0.0,0.0,0.0,0.0,0.0,0.0,0.0,0.0,0.6905,0.7026,0.6429,0.0,0.0,0.0,0.0,0.0,0.0,0.0,0.0,0.0,0.0,0.0,0.0,0.0,0.0,0.0,0.0,0.0,0.0,0.0,0.0,0.0,0.0,0.0,0.0,0.0,0.0,0.0,0.0,0.0,0.0,0.0,0.0,0.0,0.0,0.0,0.0,0.0,0.0,0.0,0.0,0.0,0.0,0.0,0.0,0.0,0.0,0.0,0.0,0.0,0.0,0.0,0.0,0.0,0.0,0.0,0.0,0.0,0.0,0.0,0.0,0.0,0.0,0.0,0.0,0.0,0.0,0.0,0.0,0.0,0.0,0.0,0.0,0.0,0.0,0.0,0.0,0.0,0.0,0.0,0.0,0.0,0.0,0.0,0.0,0.0,0.0,0.0,0.0,0.0,0.0,0.0,0.0,0.0,0.0,0.0,0.0,0.0,0.0,0.0,0.0,0.0,0.0,0.0,0.0,0.0,0.0,0.0,0.0,0.0,0.0,0.563,0.6334,0.6806,0.0,0.6434,0.0,0.0,0.0,0.0,0.0,0.0,0.0,0.0,0.0,0.0,0.0,0.0,0.0,0.0,0.0,0.0,0.0,0.0,0.0,0.0,0.0,0.0,0.0,0.0,0.0,0.0,0.0,0.0,0.0,0.0,0.0,0.0,0.0,0.0,0.0,0.0,0.0,0.0,0.0,0.0,0.0,0.0,0.0,0.0,0.0,0.0,0.0,0.0,0.0,0.0,0.0,0.0,0.0,0.0,0.0,0.0,0.0,0.0,0.0,0.0,0.0,0.0,0.0,0.0,0.0,0.0,0.0,0.0,0.0,0.0,0.0,0.0,0.0,0.0,0.0,0.0,0.0,0.0,0.0,0.0,0.0,0.0,0.0,0.0,0.0,0.0,0.0,0.0,0.0,0.0,0.0,0.0,0.0,0.0,0.0,0.0,0.0,0.0,0.0,0.0,0.0,0.0,0.0,0.0,0.0,0.0,0.0,0.0,0.0,0.0,0.5939,0.6678,0.7157,0.698,0.0,0.0,0.0,0.0,0.0,0.0,0.0,0.0,0.0,0.0,0.0,0.0,0.0,0.0,0.0,0.0,0.0,0.0,0.0,0.0,0.0,0.0,0.0,0.0,0.0,0.0,0.0,0.0,0.0,0.0,0.0,0.0,0.0,0.0,0.0,0.0,0.0,0.0,0.0,0.0,0.0,0.0,0.0,0.0,0.0,0.0,0.0,0.0,0.0,0.0,0.0,0.0,0.0,0.0,0.0,0.0,0.0,0.0,0.0,0.0,0.0,0.0,0.0,0.0,0.0,0.0,0.0,0.0,0.0,0.0,0.0,0.0,0.0,0.0,0.0,0.0,0.0,0.0,0.0,0.0,0.0,0.0,0.0,0.0,0.0,0.0,0.0,0.0,0.0,0.0,0.0,0.0,0.0,0.0,0.0,0.0,0.0,0.0,0.0,0.0,0.0,0.0,0.0,0.0,0.0,0.0,0.0,0.0,0.0,0.0,0.5742,0.6315,0.7038,0.7373,0.7092,0.612,0.0,0.0,0.0,0.0,0.0,0.0,0.0,0.0,0.0,0.0,0.0,0.0,0.0,0.0,0.0,0.0,0.0,0.0,0.0,0.0,0.0,0.0,0.0,0.0,0.0,0.0,0.0,0.0,0.0,0.0,0.0,0.0,0.0,0.0,0.0,0.0,0.0,0.0,0.0,0.0,0.0,0.0,0.0,0.0,0.0,0.0,0.0,0.0,0.0,0.0,0.0,0.0,0.0,0.0,0.0,0.0,0.0,0.0,0.0,0.0,0.0,0.0,0.0,0.0,0.0,0.0,0.0,0.0,0.0,0.0,0.0,0.0,0.0,0.0,0.0,0.0,0.0,0.0,0.0,0.0,0.0,0.0,0.0,0.0,0.0,0.0,0.0,0.0,0.0,0.0,0.0,0.0,0.0,0.0,0.0,0.0,0.0,0.0,0.0,0.0,0.0,0.0,0.0,0.0,0.0,0.0,0.0,0.0,0.5768,0.6114,0.6656,0.7421,0.7285,0.7064,0.0,0.0,0.0,0.0,0.0,0.0,0.0,0.0,0.0,0.0,0.0,0.0,0.0,0.0,0.0,0.0,0.0,0.0,0.0,0.0,0.0,0.0,0.0,0.0,0.0,0.0,0.0,0.0,0.0,0.0,0.0,0.0,0.0,0.0,0.0,0.0,0.0,0.0,0.0,0.0,0.0,0.0,0.0,0.0,0.0,0.0,0.0,0.0,0.0,0.0,0.0,0.0,0.0,0.0,0.0,0.0,0.0,0.0,0.0,0.0,0.0,0.0,0.0,0.0,0.0,0.0,0.0,0.0,0.0,0.0,0.0,0.0,0.0,0.0,0.0,0.0,0.0,0.0,0.0,0.0,0.0,0.0,0.0,0.0,0.0,0.0,0.0,0.0,0.0,0.0,0.0,0.0,0.0,0.0,0.0,0.0,0.0,0.0,0.0,0.0,0.0,0.0,0.0,0.0,0.0,0.0,0.0,0.0,0.0,0.5875,0.6526,0.6966,0.7125,0.752,0.7322,0.0,0.0,0.0,0.0,0.0,0.0,0.0,0.0,0.0,0.0,0.0,0.0,0.0,0.0,0.0,0.0,0.0,0.0,0.0,0.0,0.0,0.0,0.0,0.0,0.0,0.0,0.0,0.0,0.0,0.0,0.0,0.0,0.0,0.0,0.0,0.0,0.0,0.0,0.0,0.0,0.0,0.0,0.0,0.0,0.0,0.0,0.0,0.0,0.0,0.0,0.0,0.0,0.0,0.0,0.0,0.0,0.0,0.0,0.0,0.0,0.0,0.0,0.0,0.0,0.0,0.0,0.0,0.0,0.0,0.0,0.0,0.0,0.0,0.0,0.0,0.0,0.0,0.0,0.0,0.0,0.0,0.0,0.0,0.0,0.0,0.0,0.0,0.0,0.0,0.0,0.0,0.0,0.0,0.0,0.0,0.0,0.0,0.0,0.0,0.0,0.0,0.0,0.0,0.0,0.0,0.0,0.0,0.0,0.0,0.5975,0.0,0.6717,0.0,0.7462,0.7258,0.0,0.0,0.0,0.0,0.0,0.0,0.0,0.0,0.0,0.0,0.0,0.0,0.0,0.0,0.0,0.0,0.0,0.0,0.0,0.0,0.0,0.0,0.0,0.0,0.0,0.0,0.0,0.0,0.0,0.0,0.0,0.0,0.0,0.0,0.0,0.0,0.0,0.0,0.0,0.0,0.0,0.0,0.0,0.0,0.0,0.0,0.0,0.0,0.0,0.0,0.0,0.0,0.0,0.0,0.0,0.0,0.0,0.0,0.0,0.0,0.0,0.0,0.0,0.0,0.0,0.0,0.0,0.0,0.0,0.0,0.0,0.0,0.0,0.0,0.0,0.0,0.0,0.0,0.0,0.0,0.0,0.0,0.0,0.0,0.0,0.0,0.0,0.0,0.0,0.0,0.0,0.0,0.0,0.0,0.0,0.0,0.0,0.0,0.0,0.0,0.0,0.0,0.0,0.0,0.0,0.0,0.0,0.0,0.5874,0.606,0.5813,0.5952,0.6499,0.7047,0.698,0.0,0.0,0.0,0.0,0.0,0.0,0.0,0.0,0.0,0.0,0.0,0.0,0.0,0.0,0.0,0.0,0.0,0.0,0.0,0.0,0.0,0.0,0.0,0.0,0.0,0.0,0.0,0.0,0.0,0.0,0.0,0.0,0.0,0.0,0.0,0.0,0.0,0.0,0.0,0.0,0.0,0.0,0.0,0.0,0.0,0.0,0.0,0.0,0.0,0.0,0.0,0.0,0.0,0.0,0.0,0.0,0.0,0.0,0.0,0.0,0.0,0.0,0.0,0.0,0.0,0.0,0.0,0.0,0.0,0.0,0.0,0.0,0.0,0.0,0.0,0.0,0.0,0.0,0.0,0.0,0.0,0.0,0.0,0.0,0.0,0.0,0.0,0.0,0.0,0.0,0.0,0.0,0.0,0.0,0.0,0.0,0.0,0.0,0.0,0.0,0.0,0.0,0.0,0.0,0.0,0.0,0.0,0.0,0.0,0.5095,0.5645,0.6183,0.669,0.7151,0.7194,0.0,0.0,0.0,0.0,0.0,0.0,0.0,0.0,0.0,0.0,0.0,0.0,0.0,0.0,0.0,0.0,0.0,0.0,0.0,0.0,0.0,0.0,0.0,0.0,0.0,0.0,0.0,0.0,0.0,0.0,0.0,0.0,0.0,0.0,0.0,0.0,0.0,0.0,0.0,0.0,0.0,0.0,0.0,0.0,0.0,0.0,0.0,0.0,0.0,0.0,0.0,0.0,0.0,0.0,0.0,0.0,0.0,0.0,0.0,0.0,0.0,0.0,0.0,0.0,0.0,0.0,0.0,0.0,0.0,0.0,0.0,0.0,0.0,0.0,0.0,0.0,0.0,0.0,0.0,0.0,0.0,0.0,0.0,0.0,0.0,0.0,0.0,0.0,0.0,0.0,0.0,0.0,0.0,0.0,0.0,0.0,0.0,0.0,0.0,0.0,0.0,0.0,0.0,0.0,0.0,0.0,0.0,0.0,0.0,0.4536,0.5154,0.5834,0.6451,0.6972,0.7211,0.7086,0.0,0.0,0.0,0.0,0.0,0.0,0.0,0.0,0.0,0.0,0.0,0.0,0.0,0.0,0.0,0.0,0.0,0.0,0.0,0.0,0.0,0.0,0.0,0.0,0.0,0.0,0.0,0.0,0.0,0.0,0.0,0.0,0.0,0.0,0.0,0.0,0.0,0.0,0.0,0.0,0.0,0.0,0.0,0.0,0.0,0.0,0.0,0.0,0.0,0.0,0.0,0.0,0.0,0.0,0.0,0.0,0.0,0.0,0.0,0.0,0.0,0.0,0.0,0.0,0.0,0.0,0.0,0.0,0.0,0.0,0.0,0.0,0.0,0.0,0.0,0.0,0.0,0.0,0.0,0.0,0.0,0.0,0.0,0.0,0.0,0.0,0.0,0.0,0.0,0.0,0.0,0.0,0.0,0.0,0.0,0.0,0.0,0.0,0.0,0.0,0.0,0.0,0.0,0.0,0.0,0.0,0.0,0.0,0.4297,0.4495,0.5028,0.5913,0.6594,0.7019,0.0,0.0,0.0,0.0,0.0,0.0,0.0,0.0,0.0,0.0,0.0,0.0,0.0,0.0,0.0,0.0,0.0,0.0,0.0,0.0,0.0,0.0,0.0,0.0,0.0,0.0,0.0,0.0,0.0,0.0,0.0,0.0,0.0,0.0,0.0,0.0,0.0,0.0,0.0,0.0,0.0,0.0,0.0,0.0,0.0,0.0,0.0,0.0,0.0,0.0,0.0,0.0,0.0,0.0,0.0,0.0,0.0,0.0,0.0,0.0,0.0,0.0,0.0,0.0,0.0,0.0,0.0,0.0,0.0,0.0,0.0,0.0,0.0,0.0,0.0,0.0,0.0,0.0,0.0,0.0,0.0,0.0,0.0,0.0,0.0,0.0,0.0,0.0,0.0,0.0,0.0,0.0,0.0,0.0,0.0,0.0,0.0,0.0,0.0,0.0,0.0,0.0,0.0,0.0,0.0,0.0,0.0,0.0,0.0,0.4029,0.4248,0.4854,0.5875,0.6575,0.7124,0.0,0.0,0.0,0.0,0.0,0.0,0.0,0.0,0.0,0.0,0.0,0.0,0.0,0.0,0.0,0.0,0.0,0.0,0.0,0.0,0.0,0.0,0.0,0.0,0.0,0.0,0.0,0.0,0.0,0.0,0.0,0.0,0.0,0.0,0.0,0.0,0.0,0.0,0.0,0.0,0.0,0.0,0.0,0.0,0.0,0.0,0.0,0.0,0.0,0.0,0.0,0.0,0.0,0.0,0.0,0.0,0.0,0.0,0.0,0.0,0.0,0.0,0.0,0.0,0.0,0.0,0.0,0.0,0.0,0.0,0.0,0.0,0.0,0.0,0.0,0.0,0.0,0.0,0.0,0.0,0.0,0.0,0.0,0.0,0.0,0.0,0.0,0.0,0.0,0.0,0.0,0.0,0.0,0.0,0.0,0.0,0.0,0.0,0.0,0.0,0.0,0.0,0.0,0.0,0.0,0.0,0.0,0.0,0.4685,0.3793,0.4002,0.4587,0.5508,0.6187,0.695,0.0,0.0,0.0,0.0,0.0,0.0,0.0,0.0,0.0,0.0,0.0,0.0,0.0,0.0,0.0,0.0,0.0,0.0,0.0,0.0,0.0,0.0,0.0,0.0,0.0,0.0,0.0,0.0,0.0,0.0,0.0,0.0,0.0,0.0,0.0,0.0,0.0,0.0,0.0,0.0,0.0,0.0,0.0,0.0,0.0,0.0,0.0,0.0,0.0,0.0,0.0,0.0,0.0,0.0,0.0,0.0,0.0,0.0,0.0,0.0,0.0,0.0,0.0,0.0,0.0,0.0,0.0,0.0,0.0,0.0,0.0,0.0,0.0,0.0,0.0,0.0,0.0,0.0,0.0,0.0,0.0,0.0,0.0,0.0,0.0,0.0,0.0,0.0,0.0,0.0,0.0,0.0,0.0,0.0,0.0,0.0,0.0,0.0,0.0,0.0,0.0,0.0,0.0,0.0,0.0,0.0,0.0,0.0,0.4573,0.3602,0.3825,0.423,0.4899,0.5624,0.6528,0.0,0.0,0.0,0.0,0.0,0.0,0.0,0.0,0.0,0.0,0.0,0.0,0.0,0.0,0.0,0.0,0.0,0.0,0.0,0.0,0.0,0.0,0.0,0.0,0.0,0.0,0.0,0.0,0.0,0.0,0.0,0.0,0.0,0.0,0.0,0.0,0.0,0.0,0.0,0.0,0.0,0.0,0.0,0.0,0.0,0.0,0.0,0.0,0.0,0.0,0.0,0.0,0.0,0.0,0.0,0.0,0.0,0.0,0.0,0.0,0.0,0.0,0.0,0.0,0.0,0.0,0.0,0.0,0.0,0.0,0.0,0.0,0.0,0.0,0.0,0.0,0.0,0.0,0.0,0.0,0.0,0.0,0.0,0.0,0.0,0.0,0.0,0.0,0.0,0.0,0.0,0.0,0.0,0.0,0.0,0.0,0.0,0.0,0.0,0.0,0.0,0.0,0.0,0.0,0.0,0.0,0.0,0.0,0.4608,0.3575,0.3837,0.4139,0.4447,0.5208,0.6123,0.0,0.0,0.0,0.0,0.0,0.0,0.0,0.0,0.0,0.0,0.0,0.0,0.0,0.0,0.0,0.0,0.0,0.0,0.0,0.0,0.0,0.0,0.0,0.0,0.0,0.0,0.0,0.0,0.0,0.0,0.0,0.0,0.0,0.0,0.0,0.0,0.0,0.0,0.0,0.0,0.0,0.0,0.0,0.0,0.0,0.0,0.0,0.0,1.0401,0.0,0.0,0.0,0.0,0.0,0.0,0.0,0.0,0.0,0.0,0.0,0.0,0.0,0.0,0.0,0.0,0.0,0.0,0.0,0.0,0.0,0.0,0.0,0.0,0.0,0.0,0.0,0.0,0.0,0.0,0.0,0.0,0.0,0.0,0.0,0.0,0.0,0.0,0.0,0.0,0.0,0.0,0.0,0.0,0.0,0.0,0.0,0.0,0.0,0.0,0.0,0.0,0.0,0.0,0.0,0.0,0.0,0.0,0.0,0.3991,0.3357,0.358,0.3949,0.4382,0.465,0.5402,0.0,0.0,0.0,0.0,0.0,0.0,0.0,0.0,0.0,0.0,0.0,0.0,0.0,0.0,0.0,0.0,0.0,0.0,0.0,0.0,0.0,0.0,0.0,0.0,0.0,0.0,0.0,0.0,0.0,0.0,0.0,0.0,0.0,0.0,0.0,0.0,0.0,0.0,0.0,0.0,0.0,0.0,0.0,0.0,0.0,0.0,0.0,0.0,0.0,0.0,0.0,0.0,0.0,0.0,0.0,0.0,0.0,0.0,0.0,0.0,0.0,0.0,0.0,0.0,0.0,0.0,0.0,0.0,0.0,0.0,0.0,0.0,0.0,0.0,0.0,0.0,0.0,0.0,0.0,0.0,0.0,0.0,0.0,0.0,0.0,0.0,0.0,0.0,0.0,0.0,0.0,0.0,0.0,0.0,0.0,0.0,0.0,0.0,0.0,0.0,0.0,0.0,0.0,0.0,0.0,0.0,0.0,0.4043,0.3568,0.3202,0.3374,0.3789,0.4307,0.41,0.4806,0.6421,0.0,0.0,0.0,0.0,0.0,0.0,0.0,0.0,0.0,0.0,0.0,0.0,0.0,0.0,0.0,0.0,0.0,0.0,0.0,0.0,0.0,0.0,0.0,0.0,0.0,0.0,0.0,0.0,0.0,0.0,0.0,0.0,0.0,0.0,0.0,0.0,0.0,0.0,0.762,0.9031,0.0,0.0,0.0,0.0,0.0,0.0,0.0,0.0,1.1521,0.0,0.0,0.0,0.0,0.0,0.0,0.0,0.0,0.0,0.0,0.0,0.0,0.0,0.0,0.0,0.0,0.0,0.0,0.0,0.0,0.0,0.0,0.0,0.0,0.0,0.0,0.0,0.0,0.0,0.0,0.0,0.0,0.0,0.0,0.0,0.0,0.0,0.0,0.0,0.0,0.0,0.0,0.0,0.0,0.0,0.0,0.0,0.0,0.0,0.0,0.0,0.0,0.0,0.0,0.0,0.0,0.4711,0.5551,0.5,0.3046,0.355,0.3815,0.3583,0.4056,0.4771,0.5633,0.0,0.0,0.0,0.0,0.0,0.0,0.0,0.0,0.0,0.0,0.0,0.0,0.0,0.0,0.0,0.0,0.0,0.0,0.0,0.0,0.0,0.0,0.0,0.0,0.0,0.0,0.0,0.0,0.0,0.0,0.0,0.0,0.0,0.0,0.0,0.0,0.0,0.0,0.0,1.0204,1.1211,0.0,0.0,0.0,0.0,0.0,0.0,0.0,0.0,1.243,0.0,0.0,0.0,0.0,0.0,0.0,0.0,0.0,0.0,0.0,0.0,0.0,0.0,0.0,0.0,0.0,0.0,0.0,0.0,0.0,0.0,0.0,0.0,0.0,0.0,0.0,0.0,0.0,0.0,0.0,0.0,0.0,0.0,0.0,0.0,0.0,0.0,0.0,0.0,0.0,0.0,0.0,0.0,0.0,0.0,0.0,0.0,0.0,0.0,0.0,0.0,0.0,0.0,0.0,0.0,0.4725,0.41,0.3462,0.2776,0.3325,0.3616,0.3661,0.382,0.4483,0.0,0.0,0.0,0.0,0.0,0.0,0.0,0.0,0.0,0.0,0.0,0.0,0.0,0.0,0.0,0.0,0.0,0.0,0.0,0.0,0.0,0.0,0.0,0.0,0.0,0.0,0.0,0.0,0.0,0.0,0.0,0.0,0.0,0.0,0.0,0.0,0.0,0.0,0.0,0.0,1.034,1.1102,1.1638,0.0,0.0,0.0,0.0,0.0,0.0,1.35,1.3471,0.0,0.0,0.0,0.0,0.0,0.0,0.0,0.0,0.0,0.0,0.0,0.0,0.0,0.0,0.0,0.0,0.0,0.0,0.0,0.0,0.0,0.0,0.0,0.0,0.0,0.0,0.0,0.0,0.0,0.0,0.0,0.0,0.0,0.0,0.0,0.0,0.0,0.0,0.0,0.0,0.0,0.0,0.0,0.0,0.0,0.0,0.0,0.0,0.0,0.0,0.0,0.0,0.0,0.0,0.0,0.4599,0.2869,0.2155,0.2574,0.3009,0.3433,0.3853,0.3982,0.4587,0.0,0.0,0.0,0.0,0.0,0.0,0.0,0.0,0.0,0.0,0.0,0.0,0.0,0.0,0.0,0.0,0.0,0.0,0.0,0.0,0.0,0.0,0.0,0.0,0.0,0.0,0.0,0.0,0.0,0.0,0.0,0.0,0.0,0.0,0.0,0.0,0.0,0.0,0.0,0.0,0.0,1.1357,1.2432,1.2909,0.0,0.0,0.0,0.0,1.4802,1.5065,0.0,0.0,0.0,0.0,0.0,0.0,0.0,0.0,0.0,0.0,0.0,0.0,0.0,0.0,0.0,0.0,0.0,0.0,0.0,0.0,0.0,0.0,0.0,0.0,0.0,0.0,0.0,0.0,0.0,0.0,0.0,0.0,0.0,0.0,0.0,0.0,0.0,0.0,0.0,0.0,0.0,0.0,0.0,0.0,0.0,0.0,0.0,0.0,0.0,0.0,0.0,0.0,0.0,0.0,0.0,0.0,0.4571,0.4198,0.3535,0.2605,0.306,0.3503,0.3825,0.5385,0.5914,0.0,0.0,0.0,0.0,0.0,0.0,0.0,0.0,0.0,0.0,0.0,0.0,0.0,0.0,0.0,0.0,0.0,0.0,0.0,0.0,0.0,0.0,0.0,0.0,0.0,0.0,0.0,0.0,0.0,0.0,0.0,0.0,0.0,0.0,0.0,0.0,0.0,0.0,0.0,0.0,0.0,1.3144,1.3854,1.4749,1.5357,0.0,0.0,1.6458,1.6147,1.7075,0.0,0.0,0.0,0.0,0.0,0.0,0.0,0.0,0.0,0.0,0.0,0.0,0.0,0.0,0.0,0.0,0.0,0.0,0.0,0.0,0.0,0.0,0.0,0.0,0.0,0.0,0.0,0.0,0.0,0.0,0.0,0.0,0.0,0.0,0.0,0.0,0.0,0.0,0.0,0.0,0.0,0.0,0.0,0.0,0.0,0.0,0.0,0.0,0.0,0.0,0.0,0.0,0.0,0.0,0.0,0.5055,0.4427,0.3479,0.2822,0.2499,0.3154,0.363,0.3907,0.5462,0.6113,0.0,0.0,0.0,0.0,0.0,0.0,0.0,0.0,0.0,0.0,0.0,0.0,0.0,0.0,0.0,0.0,0.0,0.0,0.0,0.0,0.0,0.0,0.0,0.0,0.0,0.0,0.0,0.0,0.0,0.0,0.0,0.0,0.0,0.0,0.0,0.0,0.0,0.0,0.0,0.0,0.0,0.0,1.4367,1.5497,0.0,0.0,0.0,1.7715,1.7547,0.0,0.0,0.0,0.0,0.0,0.0,0.0,0.0,0.0,0.0,0.0,0.0,0.0,0.0,0.0,0.0,0.0,0.0,0.0,0.0,0.0,0.0,0.0,0.0,0.0,0.0,0.0,0.0,0.0,0.0,0.0,0.0,0.0,0.0,0.0,0.0,0.0,0.0,0.0,0.0,0.0,0.0,0.0,0.0,0.0,0.0,0.0,0.0,0.0,0.0,0.0,0.0,0.0,0.0,0.0,0.0,0.0,0.4369,0.2741,0.2063,0.2473,0.3197,0.3741,0.4233,0.5562,0.0,0.0,0.0,0.0,0.0,0.0,0.0,0.0,0.0,0.0,0.0,0.0,0.0,0.0,0.0,0.0,0.0,0.0,0.0,0.0,0.0,0.0,0.0,0.0,0.0,0.0,0.0,0.6542,0.0,0.0,0.0,0.0,0.0,0.0,0.0,0.0,0.0,0.0,0.0,0.0,0.0,0.0,1.3586,1.5122,1.6487,1.7655,0.0,0.0,1.8979,1.9059,1.9495,1.9516,0.0,0.0,0.0,0.0,0.0,0.0,0.0,0.0,0.0,0.0,0.0,0.0,0.0,0.0,0.0,0.0,0.0,0.0,0.0,0.0,0.0,0.0,0.0,0.0,0.0,0.0,0.0,0.0,0.0,0.0,0.0,0.0,0.0,0.0,0.0,0.0,0.0,0.0,0.0,0.0,0.0,0.0,0.0,0.0,0.0,0.0,0.0,0.0,0.0,0.0,0.0,0.0,0.0,0.0,0.4187,0.432,0.2685,0.2087,0.2664,0.313,0.3907,0.4838,0.6072,0.6754,0.0,0.0,0.0,0.0,0.0,0.0,0.0,0.0,0.0,0.0,0.0,0.0,0.0,0.0,0.0,0.0,0.0,0.0,0.0,0.0,0.0,0.0,0.0,0.0,0.0,0.0,0.0,0.0,0.0,0.0,0.0,0.0,0.0,0.0,0.0,0.0,0.0,0.0,0.0,0.0,0.0,1.5915,1.6664,1.8224,1.9508,0.0,2.0115,2.0297,2.0845,2.1254,2.1328,2.0699,0.0,0.0,0.0,0.0,0.0,0.0,0.0,0.0,0.0,0.0,0.0,0.0,0.0,0.0,0.0,0.0,0.0,0.0,0.0,0.0,0.0,0.0,0.0,0.0,0.0,0.0,0.0,0.0,0.0,0.0,0.0,0.0,0.0,0.0,0.0,0.0,0.0,0.0,0.0,0.0,0.0,0.0,0.0,0.0,0.0,0.0,0.0,0.0,0.0,0.0,0.0,0.0,0.0,0.4485,0.4734,0.3389,0.2881,0.3123,0.3522,0.4132,0.4901,0.6077,0.6905,0.0,0.0,0.0,0.0,0.0,0.0,0.0,0.0,0.0,0.0,0.0,0.0,0.0,0.0,0.0,0.0,0.0,0.0,0.0,0.0,0.0,0.0,0.0,0.0,0.0,0.0,0.0,0.0,0.8274,0.8789,0.9301,0.0,0.0,0.0,0.0,0.0,0.0,0.0,0.0,0.0,0.0,1.7286,1.8682,2.0001,0.0,0.0,2.2328,2.2475,2.2834,2.2803,2.2677,2.2507,2.1471,0.0,0.0,0.0,0.0,0.0,0.0,0.0,0.0,0.0,0.0,0.0,0.0,0.0,0.0,0.0,0.0,0.0,0.0,0.0,0.0,0.0,0.0,0.0,0.0,0.0,0.0,0.0,0.0,0.0,0.0,0.0,0.0,0.0,0.0,0.0,0.0,0.0,0.0,0.0,0.0,0.0,0.0,0.0,0.0,0.0,0.0,0.0,0.0,0.0,0.0,0.0,0.0,0.4663,0.5127,0.3886,0.3316,0.3463,0.3968,0.4463,0.4999,0.5756,0.6551,0.0,0.0,0.0,0.0,0.0,0.0,0.0,0.0,0.0,0.0,0.0,0.0,0.0,0.0,0.0,0.0,0.0,0.0,0.0,0.0,0.0,0.0,0.0,0.0,0.0,0.0,0.0,0.0,0.8657,0.905,0.9528,0.0,0.0,0.0,0.0,0.0,0.0,0.0,0.0,0.0,0.0,1.9072,2.057,2.1692,2.2662,2.3637,2.3786,2.3901,2.4227,2.3961,2.3803,2.3903,0.0,0.0,0.0,0.0,0.0,0.0,0.0,0.0,0.0,0.0,0.0,0.0,0.0,0.0,0.0,0.0,0.0,0.0,0.0,0.0,0.0,0.0,0.0,0.0,0.0,0.0,0.0,0.269,0.0,0.0,0.2748,0.0,0.0,0.0,0.0,0.0,0.0,0.0,0.0,0.0,0.0,0.0,0.0,0.0,0.0,0.0,0.0,0.0,0.0,0.0,0.0,0.0,0.0,0.4713,0.5466,0.3941,0.3286,0.3619,0.4294,0.4849,0.5277,0.5161,0.571,0.7178,0.0,0.0,0.0,0.0,0.0,0.0,0.0,0.0,0.0,0.0,0.0,0.0,0.0,0.0,0.0,0.0,0.0,0.0,0.0,0.0,0.0,0.0,0.0,0.0,0.0,0.0,0.9375,0.9659,0.9828,0.0,0.0,0.0,0.0,0.0,0.0,0.0,0.0,0.0,2.0204,2.1082,2.1557,2.2248,2.316,2.3835,2.4098,2.4097,2.424,2.4722,2.4641,2.4654,0.0,0.0,0.0,0.0,0.0,0.0,0.0,0.0,0.0,0.0,0.0,0.0,0.0,0.0,0.0,0.0,0.0,0.0,0.0,0.0,0.0,0.0,0.0,0.0,0.0,0.0,0.0,0.4318,0.38,0.0,0.0,0.0,0.0,0.0,0.0,0.0,0.0,0.0,0.0,0.0,0.5645,0.6259,0.0,0.0,0.0,0.0,0.0,0.0,0.0,0.0,0.0,0.0,0.0,0.0,0.5613,0.5896,0.4679,0.4088,0.4171,0.4622,0.4956,0.5277,0.5214,0.5844,0.7152,0.0,0.0,0.0,0.0,0.0,0.0,0.0,0.0,0.0,0.0,0.0,0.0,0.0,0.0,0.0,0.0,0.0,0.0,0.0,0.0,0.0,0.0,0.0,0.0,0.0,0.9427,0.0,0.0,0.0,0.0,0.0,0.0,0.0,0.0,0.0,0.0,0.0,1.8474,2.1023,2.2179,2.313,2.4053,2.4578,2.508,0.0,0.0,0.0,0.0,0.0,0.0,0.0,0.0,0.0,0.0,0.0,0.0,0.0,0.0,2.4516,2.2813,2.2065,2.1655,2.1558,0.0,0.0,0.0,0.0,0.0,0.0,0.0,0.0,0.0,0.0,0.0,0.0,0.0,0.0,0.4622,0.4248,0.4589,0.0,0.0,0.0,0.0,0.0,0.0,0.0,0.0,0.4502,0.4961,0.5961,0.6677,0.7123,0.7228,0.764,0.7832,0.0,0.0,0.0,0.0,0.0,0.0,0.0,0.0,0.624,0.6551,0.5371,0.4671,0.4556,0.5113,0.5391,0.5437,0.5791,0.6323,0.7135,0.7864,0.8657,0.0,0.0,0.0,0.0,0.0,0.0,0.0,0.0,0.0,0.0,0.0,0.0,0.0,0.0,0.0,0.0,0.0,0.0,0.0,0.0,0.0,0.0,0.0,1.021,0.0,0.0,0.0,0.0,0.0,0.0,0.0,0.0,0.0,1.7385,1.8963,2.081,2.284,2.387,2.4687,2.5357,0.0,0.0,0.0,0.0,0.0,0.0,0.0,2.485,2.4975,2.5255,2.5911,2.7169,2.8812,3.0095,3.0547,0.0,0.0,2.7274,2.6259,2.5906,2.6226,2.6649,2.7204,2.7944,2.8647,2.9369,0.0,0.0,0.0,0.0,0.471,0.0,0.0,0.0,0.3372,0.3765,0.0,0.4709,0.0,0.0,0.0,0.0,0.5449,0.4282,0.0,0.0,0.4426,0.4874,0.6481,0.7136,0.731,0.7199,0.8481,0.8769,0.7995,0.6491,0.0,0.0,0.0,0.0,0.0,0.0,0.6652,0.7375,0.6012,0.5051,0.4663,0.5769,0.6159,0.5706,0.6639,0.7189,0.7143,0.7946,0.8473,0.8633,0.8824,0.0,0.0,0.0,0.0,0.0,0.0,0.0,0.0,0.0,0.0,0.0,0.0,0.0,0.0,0.0,0.0,0.0,0.0,0.0,0.0,1.0886,0.0,0.0,0.0,0.0,0.0,0.0,0.0,0.0,0.0,1.8823,2.0403,2.1796,2.3531,2.5582,0.0,0.0,0.0,0.0,2.6059,2.5379,2.5844,2.6347,2.6539,2.7452,2.8146,2.841,0.0,0.0,3.1564,3.1786,3.2199,3.3184,3.3918,3.3602,3.0624,2.9411,2.9015,2.9645,3.0216,3.0392,3.0451,3.1209,3.1437,0.336,0.0,0.0,0.0,0.0,0.5311,0.5378,0.5297,0.5755,0.5811,0.5637,0.5798,0.0,0.0,0.0,0.0,0.0,0.0,0.5751,0.582,0.5748,0.5898,0.6161,0.6432,0.6689,0.6927,0.7332,0.7364,0.7065,0.6529,0.6908,0.8114,0.0,0.0,0.0,0.0,0.7795,0.813,0.7002,0.6352,0.6367,0.6598,0.6657,0.6544,0.7169,0.7518,0.7386,0.8163,0.8783,0.9157,0.8585,0.0,0.0,0.0,0.0,0.0,0.0,0.0,0.0,0.0,0.0,0.0,0.0,0.0,0.0,0.0,0.0,0.0,0.0,0.0,1.1725,1.1766,1.2319,0.0,0.0,0.0,0.0,0.0,0.0,0.0,0.0,0.0,2.4216,2.3247,2.3235,0.0,0.0,2.7125,2.6482,2.7216,2.7756,2.7549,2.7816,0.0,2.8051,2.7742,2.7736,2.8526,3.0658,3.2499,3.3221,3.4135,3.4891,3.5187,3.5476,3.5542,3.5321,3.4522,3.408,3.4576,3.5625,3.6519,3.6693,3.7776,3.8802,0.2663,0.4088,0.4565,0.4693,0.455,0.504,0.5168,0.502,0.55,0.5697,0.5749,0.597,0.6026,0.5932,0.6125,0.0,0.0,0.0,0.6091,0.5765,0.6067,0.6145,0.6024,0.6416,0.6791,0.6985,0.7182,0.7264,0.7309,0.7566,0.8087,0.8864,0.0,0.975,1.0146,0.9156,0.8837,0.9219,0.8306,0.7494,0.689,0.7411,0.7563,0.7306,0.7883,0.8128,0.7959,0.8568,0.8925,0.902,0.8723,0.8696,0.0,0.0,0.0,0.0,0.0,0.0,0.0,0.0,0.0,0.0,0.0,0.8264,0.8415,0.0,0.0,0.0,1.1226,1.2397,1.3615,1.379,0.0,0.0,0.0,0.0,0.0,0.0,0.0,2.1771,2.3162,2.4634,2.6297,2.5376,2.5275,2.7251,2.7801,2.7929,2.7743,0.0,2.8858,2.8496,2.8847,2.9222,2.9473,2.9495,2.9925,3.138,3.3274,3.4752,3.524,3.6006,3.6662,3.7044,3.7195,3.744,3.809,3.7988,3.7914,3.8116,3.9021,3.9892,4.0308,4.1456,4.2423,0.224,0.2666,0.3421,0.3771,0.3828,0.4206,0.3935,0.3192,0.3595,0.4175,0.4852,0.5534,0.6081,0.6557,0.6925,0.0,0.6744,0.6256,0.5832,0.5457,0.5797,0.605,0.6218,0.702,0.7396,0.7396,0.7765,0.8043,0.8302,0.9062,0.9419,0.9259,0.8952,0.958,1.0952,1.0108,0.989,1.0517,0.9868,0.8714,0.7007,0.822,0.8606,0.8014,0.8639,0.8844,0.8626,0.8942,0.8982,0.8598,0.8981,0.8939,0.8332,0.0,0.0,0.0,0.0,0.0,0.0,0.0,0.0,0.0,0.0,0.0,0.0,0.0,0.0,0.0,1.2531,0.0,1.5702,1.6372,0.0,0.0,0.0,1.8978,2.001,2.1253,2.26,2.4026,0.0,0.0,2.7341,2.7988,2.8761,3.0034,2.9244,2.8801,2.9435,2.969,2.9565,2.8903,2.949,3.0289,3.1173,3.2303,3.3761,3.5472,3.6765,3.7209,3.7344,3.7448,3.7886,3.8633,3.8892,3.8997,3.9418,4.0005,4.0632,4.0523,4.087,4.1356,4.2027,4.2654,4.327,0.1852,0.1903,0.2391,0.3009,0.3655,0.3971,0.3993,0.3815,0.4142,0.4487,0.4732,0.5018,0.5377,0.5841,0.6271,0.6411,0.6358,0.6775,0.6881,0.6828,0.7202,0.7503,0.7681,0.7895,0.8103,0.8302,0.8415,0.8573,0.8798,0.9023,0.9401,0.9929,1.0254,1.064,1.1085,1.0981,1.119,1.1713,1.1442,1.0849,0.9966,0.9618,0.924,0.8948,0.8691,0.8633,0.8732,0.8732,0.8758,0.8854,0.8707,0.8714,0.8873,0.9134,0.0,0.0,0.0,0.0,0.0,0.0,0.0,0.0,0.0,1.0403,1.0717,0.0,1.2867,0.0,1.4814,1.5954,1.6835,1.747,0.0,0.0,2.0269,2.089,2.1994,2.3412,2.4623,2.5517,2.6681,2.7969,2.9327,2.9742,3.0369,3.1515,3.0838,3.0107,2.9826,3.0621,3.1173,3.1146,3.2343,3.3563,3.3858,3.5344,3.6604,3.7132,3.7987,3.8637,3.8645,3.8702,3.885,3.9091,3.9264,3.9593,4.0225,4.0716,4.1467,4.2491,4.2894,4.3061,4.335,4.4497,4.5619,0.1962,0.2132,0.2352,0.3202,0.4378,0.371,0.3524,0.3744,0.4184,0.4515,0.4798,0.5066,0.5454,0.5845,0.6123,0.6232,0.6332,0.6918,0.7187,0.7139,0.7568,0.7836,0.8002,0.8215,0.8427,0.8626,0.8784,0.8942,0.9159,0.9159,0.9524,1.0272,1.0849,1.1297,1.1651,1.1997,1.2369,1.276,1.2902,1.2594,1.1913,1.0963,1.0354,1.0174,0.9786,0.9836,1.0368,1.0258,1.0179,1.0267,1.0043,0.9719,0.935,1.0176,1.057,0.0,0.0,0.0,0.0,0.0,0.0,0.0,0.0,0.0,0.0,0.0,1.4419,1.5945,1.6596,1.7382,1.8545,1.9254,2.02,2.144,2.1881,2.257,2.3936,2.4958,2.6069,2.7377,2.8422,2.9631,3.1121,3.1614,3.2249,3.3284,3.3123,3.2449,3.1579,3.2268,3.3003,3.316,3.4411,3.5601,3.6038,3.7292,3.8237,3.8312,3.873,3.9129,3.9202,3.9229,3.9237,3.9317,3.972,4.0215,4.0798,4.1661,4.256,4.3373,4.4068,4.4364,4.4489,4.5604,4.6702,0.2296,0.2691,0.2691,0.3647,0.4964,0.34,0.3222,0.4053,0.4534,0.4931,0.5183,0.5441,0.5786,0.6123,0.6123,0.6228,0.6386,0.6864,0.7031,0.6982,0.7413,0.7729,0.7877,0.8262,0.8527,0.8725,0.9099,0.9309,0.9517,0.9517,0.9851,1.0498,1.1186,1.1811,1.2458,1.3077,1.3496,1.3756,1.4141,1.4015,1.3302,1.2376,1.1833,1.1714,1.15,1.1791,1.2505,1.233,1.21,1.1965,1.1849,1.113,0.979,1.1307,1.178,0.0,1.1705,0.0,0.0,0.0,0.0,0.0,0.0,0.0,0.0,1.4513,1.5984,1.7733,1.807,1.8787,2.0269,2.1131,2.1939,2.276,2.3208,2.4081,2.5592,2.6275,2.7308,2.9164,3.0,3.1066,3.2645,3.3347,3.4023,3.48,3.5079,3.4709,3.3782,3.4165,3.4733,3.4896,3.5823,3.6805,3.7729,3.8544,3.9091,3.9219,3.92,3.9256,3.938,3.9447,3.9485,3.974,4.0384,4.1042,4.1354,4.2659,4.3665,4.4024,4.4704,4.5226,4.5341,4.6187,4.7127,0.2577,0.2579,0.2742,0.3056,0.3359,0.3118,0.4568,0.715,0.7547,0.7328,0.6606,0.5743,0.5517,0.5732,0.585,0.5905,0.5955,0.6864,0.7241,0.7241,0.8156,0.8646,0.8745,0.885,0.9001,0.9249,0.9458,0.9725,1.0043,1.0241,1.0753,1.1458,1.2189,1.2866,1.3429,0.0,0.0,0.0,1.4824,1.4883,1.4907,1.434,1.3975,1.3952,1.371,0.0,1.3359,1.2903,1.251,1.2169,1.1882,0.0,0.0,0.0,0.0,0.0,0.0,0.0,0.0,0.0,0.0,0.0,1.4393,1.4285,1.4038,1.613,1.781,1.8427,1.9575,2.0521,2.098,2.1749,2.2637,2.3564,2.4384,2.528,2.6475,2.7724,2.8902,2.9688,3.115,3.2466,3.3422,3.4146,3.4765,3.5377,3.5522,3.5493,3.5354,3.5587,3.5798,3.5912,3.6897,3.7895,3.8803,3.9212,3.9471,3.9526,3.9556,3.9551,3.9577,4.0146,4.0541,4.0634,4.1434,4.2328,4.3031,4.3621,4.4187,4.4919,4.5285,4.5476,4.5495,4.6758,4.8015,0.3461,0.3572,0.3572,0.4011,0.0,0.4722,0.6097,0.8354,0.6993,0.6324,0.6173,0.5567,0.5462,0.5837,0.6854,0.7192,0.7034,0.8762,0.9169,0.8521,0.9314,0.954,0.9309,0.9375,0.9629,0.9991,1.0345,1.0729,1.1162,1.1547,1.2007,1.243,1.3085,1.3653,1.4053,1.4811,1.5196,1.5245,1.5196,1.5158,1.5146,1.4564,1.443,1.4591,1.3862,0.0,0.0,0.0,0.0,0.0,0.0,0.0,0.0,0.0,0.0,1.1765,1.2698,1.3324,1.3446,1.3669,1.4,1.4453,1.5216,1.5649,1.568,1.7362,1.8706,1.9458,2.0401,2.1332,2.2187,2.2937,2.3727,2.4567,2.5349,2.6318,2.7625,2.869,2.9786,3.1055,3.2252,3.3413,3.4658,3.5368,3.6039,3.6669,3.6953,3.7075,3.7168,3.6936,3.6916,3.7477,3.8126,3.8786,3.9282,3.9477,3.9642,3.9689,3.9712,3.9886,4.0249,4.0684,4.1146,4.1692,4.25,4.3289,4.3781,4.4324,4.4863,4.5342,4.5582,4.5648,4.5706,4.7063,4.8342,0.434,0.4673,0.4457,0.516,0.6426,0.6227,0.7031,0.8266,0.5897,0.0,0.0,0.58,0.6,0.648,0.8137,0.8734,0.8511,1.0421,1.0755,0.966,1.0181,1.0154,0.9666,0.9836,1.0229,1.0808,1.1331,1.1877,1.2378,1.2905,1.3286,1.3506,1.3979,1.4355,1.4686,1.5244,1.5478,1.5468,1.542,1.5302,1.5005,1.4617,1.4592,1.491,1.3993,1.3875,1.4677,1.3772,1.3356,1.3495,1.3248,1.2735,1.2052,1.3134,1.3575,1.3057,1.4086,1.4575,1.4154,1.4389,1.4532,1.4444,1.5698,1.6721,1.7371,1.8246,1.9287,2.0349,2.1023,2.1983,2.3368,2.4098,2.482,2.5595,2.6351,2.7415,2.8806,2.9525,3.0594,3.2264,3.3217,3.4305,3.5847,3.6627,3.7326,3.8053,3.8314,3.8676,3.8656,3.8147,3.8069,3.8858,3.92,3.9464,3.9599,3.9693,3.9739,3.9848,3.9829,4.0097,4.0753,4.1212,4.1711,4.2444,4.3418,4.4072,4.4365,4.4921,4.5475,4.5601,4.5731,4.5814,4.5944,4.7066,4.8211,0.4673,0.4728,0.4901,0.521,0.55,0.5671,0.6128,0.6807,0.7365,0.7691,0.7778,0.766,0.7706,0.7935,0.8581,0.8947,0.9066,0.9487,0.9545,0.9383,0.9598,0.982,0.9947,1.0174,1.0737,1.1538,1.1992,1.2617,1.3346,1.3708,1.409,1.4547,1.4923,1.5319,1.5668,1.5768,1.5788,1.5672,1.5488,1.5449,1.5573,1.5949,1.6116,1.6049,1.6352,1.6208,1.5522,1.5221,1.4867,1.4384,1.4034,1.3455,1.2679,1.3263,1.3481,1.3157,1.3663,1.4446,1.5335,1.5308,1.5612,1.6371,1.7258,1.7847,1.7855,1.8951,1.9934,2.0627,2.181,2.2921,2.3817,2.4476,2.536,2.6652,2.7545,2.851,2.9691,3.053,3.1568,3.2893,3.411,3.5311,3.6564,3.7453,3.8099,3.8609,3.8766,3.8789,3.9036,3.9054,3.9107,3.9433,3.9599,3.9693,3.9781,3.9975,4.0077,4.0138,4.0158,4.0234,4.0422,4.1453,4.2353,4.2695,4.3981,4.4978,4.53,4.5503,4.5684,4.5742,4.58,4.5808,4.5899,4.6783,4.7742,0.6196,0.6248,0.631,0.6372,0.6434,0.6654,0.6934,0.7373,0.8458,0.8391,0.7581,0.8161,0.8775,0.9321,1.0328,1.0591,1.0419,1.1528,1.1731,1.1353,1.1464,1.1575,1.162,1.1496,1.1948,1.2929,1.3125,1.367,1.4517,1.4919,1.5213,1.5422,1.5545,1.5713,1.5904,1.5914,1.5856,1.5798,1.573,1.5672,1.573,1.5766,1.5746,1.568,1.5485,1.5205,1.4797,1.4316,1.3895,1.367,1.3509,1.335,1.3079,1.3515,1.3829,1.3875,1.4271,1.482,1.5468,1.6046,1.6646,1.742,1.8213,1.8828,1.9157,1.9793,2.059,2.1529,2.2777,2.3998,2.5095,2.5857,2.6688,2.7716,2.8539,2.9378,3.0319,3.0993,3.2087,3.3717,3.473,3.5854,3.7424,3.8127,3.8585,3.896,3.9036,3.9208,3.9427,3.9521,3.9551,3.9665,3.9762,3.9911,3.9996,4.0118,4.0215,4.0253,4.0271,4.0498,4.0806,4.1761,4.2449,4.3425,4.4379,4.5026,4.5552,4.5731,4.5771,4.5847,4.5893,4.5929,4.6042,4.6727,4.7806,0.7558,0.7666,0.7661,0.7666,0.7795,0.7957,0.8176,0.8534,0.9467,0.9112,0.8063,0.9028,0.9831,1.053,1.1793,1.2086,1.1918,1.3176,1.3539,1.3004,1.2973,1.2973,1.2996,1.2716,1.3099,1.4057,1.4258,1.4701,1.5426,1.5961,1.6124,1.6029,1.6029,1.6029,1.6029,1.6029,1.5972,1.5972,1.5972,1.5846,1.5682,1.5391,1.5156,1.5029,1.4359,1.4001,1.395,1.339,1.3078,1.3191,1.3199,1.3321,1.345,1.3941,1.4345,1.4717,1.5034,1.5388,1.5822,1.6845,1.7717,1.8295,1.9014,1.976,2.0469,2.0927,2.1521,2.2546,2.3689,2.5009,2.6218,2.7063,2.7864,2.8559,2.9212,2.9919,3.0794,3.1402,3.255,3.45,3.5415,3.6465,3.7913,3.8634,3.8921,3.9175,3.9401,3.9575,3.9689,3.9781,3.9826,3.9848,3.9914,4.0038,4.0177,4.0215,4.0253,4.0307,4.0325,4.0609,4.1159,4.1464,4.211,4.3371,4.4132,4.4681,4.5356,4.5689,4.5808,4.5919,4.5941,4.5997,4.6076,4.682,4.8008,0.7876,0.7925,0.8227,0.8563,0.894,0.9103,0.9395,0.988,1.0481,1.0833,1.0827,1.1071,1.1271,1.1554,1.2229,1.249,1.2442,1.2463,1.2653,1.28,1.2436,1.2622,1.3259,1.334,1.3798,1.4567,1.4984,1.5406,1.6001,1.6275,1.6374,1.6384,1.6327,1.6384,1.6384,1.6316,1.6259,1.6124,1.6056,1.5941,1.5672,1.5381,1.5088,1.4715,1.4529,1.43,1.407,1.395,1.383,1.3769,1.3821,1.395,1.401,1.4488,1.5003,1.5482,1.5824,1.6284,1.701,1.7983,1.8731,1.9279,1.9866,2.0495,2.1205,2.2334,2.3054,2.3395,2.4585,2.5861,2.6745,2.7363,2.8122,2.9014,2.9582,3.0081,3.0969,3.2038,3.349,3.4957,3.6182,3.7421,3.8462,3.8892,3.911,3.938,3.9545,3.9665,3.9712,3.9867,3.9994,4.0036,4.0077,4.0118,4.0196,4.0271,4.0307,4.0362,4.0413,4.0562,4.0773,4.1248,4.195,4.246,4.3378,4.4283,4.4843,4.5286,4.5861,4.5968,4.6005,4.6056,4.6224,4.682,4.7983,0.877,0.8833,0.9154,0.9525,1.001,1.0316,1.0674,1.0991,1.1479,1.1852,1.2095,1.2163,1.2292,1.2377,1.2687,1.2867,1.285,1.3169,1.3407,1.3644,1.3932,1.4326,1.477,1.4619,1.4958,1.5562,1.5472,1.5741,1.6234,1.642,1.6534,1.6534,1.6591,1.6658,1.6648,1.6648,1.6591,1.6524,1.6228,1.6189,1.6343,1.5733,1.5186,1.502,1.4843,1.4656,1.4478,1.4547,1.4488,1.4359,1.4488,1.4606,1.4734,1.5198,1.5578,1.6013,1.6687,1.7328,1.8057,1.8816,1.9605,2.0211,2.09,2.1548,2.2213,2.3244,2.398,2.4444,2.5438,2.6404,2.7255,2.8127,2.8984,2.9738,3.0601,3.1534,3.2415,3.3227,3.4389,3.5996,3.6789,3.7601,3.8659,3.9138,3.9328,3.9489,3.9618,3.9712,3.9823,3.9933,4.0036,4.0118,4.0157,4.0196,4.0253,4.0271,4.0325,4.0396,4.0463,4.0495,4.0588,4.075,4.1239,4.1774,4.2609,4.3559,4.4517,4.4834,4.5289,4.5695,4.6075,4.6127,4.6203,4.6523,4.7313,0.953,0.9652,0.9919,1.0371,1.087,1.1247,1.1553,1.1809,1.2182,1.249,1.2683,1.2867,1.3005,1.3075,1.3111,1.3164,1.3338,1.3863,1.4273,1.4588,1.5177,1.5594,1.5931,1.5685,1.5864,1.6327,1.6032,1.6032,1.6457,1.6581,1.6684,1.674,1.6807,1.6909,1.7022,1.7011,1.7078,1.7123,1.6673,1.6665,1.703,1.6343,1.5713,1.5497,1.531,1.5084,1.4784,1.497,1.5027,1.5053,1.525,1.5436,1.5621,1.5962,1.636,1.6878,1.7646,1.8406,1.9018,1.9658,2.0359,2.1172,2.181,2.2519,2.3198,2.4073,2.4751,2.5342,2.6068,2.6893,2.7619,2.8767,2.9632,3.0307,3.1481,3.2635,3.3437,3.4155,3.5276,3.6618,3.7303,3.7955,3.884,3.9283,3.9508,3.9564,3.9665,3.98,3.9889,3.9994,4.0117,4.0195,4.0215,4.0253,4.031,4.0326,4.0342,4.0411,4.0476,4.0523,4.0573,4.0598,4.0679,4.1301,4.171,4.2305,4.3395,4.3998,4.5025,4.5735,4.6119,4.6177,4.6231,4.6296,4.6544,0.9862,1.0047,1.0371,1.094,1.1567,1.156,1.1872,1.2243,1.2498,1.2683,1.2867,1.3111,1.3346,1.3511,1.3571,1.3683,1.3974,1.4341,1.4864,1.5439,1.5517,1.5768,1.6239,1.614,1.6255,1.657,1.6518,1.6574,1.6761,1.6818,1.6853,1.7011,1.7067,1.7224,1.7623,1.7667,1.7776,1.7875,1.7379,1.7396,1.7716,1.7301,1.6697,1.6186,1.5974,1.5619,1.5134,1.5176,1.5398,1.5843,1.6105,1.6333,1.6717,1.6984,1.7435,1.8214,1.8788,1.9302,1.9987,2.0523,2.1192,2.193,2.2567,2.3173,2.3923,2.465,2.53,2.5853,2.6717,2.7343,2.7911,2.9039,2.9953,3.0687,3.1748,3.2762,3.3524,3.4953,3.5897,3.6748,3.7785,3.8619,3.9137,3.9376,3.9564,3.9679,3.9796,3.9889,3.9954,4.0077,4.0176,4.0215,4.0272,4.031,4.0362,4.0342,4.0375,4.0441,4.0511,4.0523,4.0573,4.0622,4.0703,4.0899,4.1422,4.1938,4.2443,4.3451,4.486,4.569,4.6066,4.6187,4.6253,4.6273,4.6459,1.0238,1.0555,1.1059,1.1373,1.1622,1.1934,1.2182,1.2498,1.2621,1.292,1.3216,1.3398,1.3752,1.4291,1.4519,1.4519,1.4519,1.5391,1.5853,1.5989,1.64,1.6627,1.6581,1.6581,1.6627,1.6842,1.6842,1.7022,1.7256,1.7312,1.7523,1.7788,1.7831,1.8061,1.8429,1.8417,1.8417,1.8309,1.771,1.772,1.8397,1.7945,1.7656,1.7719,1.7235,1.6725,1.626,1.6444,1.6574,1.6599,1.6671,1.6864,1.7159,1.7673,1.835,1.9101,1.9498,2.0096,2.0933,2.1388,2.1889,2.2689,2.3173,2.3793,2.4434,2.5061,2.58,2.6837,2.7506,2.8085,2.8904,2.9782,3.0773,3.1886,3.3062,3.4018,3.489,3.5891,3.6785,3.7446,3.8389,3.9082,3.929,3.9514,3.9679,3.9777,3.9867,3.9954,4.0059,4.0177,4.0234,4.0309,4.0327,4.0326,4.0449,4.0396,4.0394,4.0479,4.0527,4.0554,4.0598,4.0626,4.0725,4.0778,4.1228,4.1656,4.2149,4.3324,4.4698,4.5287,4.5694,4.6054,4.6287,4.6303,4.6289,1.0863,1.1178,1.1498,1.1747,1.1872,1.2243,1.2498,1.2683,1.292,1.3216,1.3511,1.3752,1.4282,1.4883,1.54,1.5575,1.5517,1.6312,1.6673,1.6684,1.7099,1.7222,1.7099,1.6987,1.7145,1.7457,1.7567,1.7788,1.8061,1.792,1.8182,1.8697,1.8483,1.8655,1.9186,1.9081,1.8963,1.8869,1.8449,1.8612,1.9197,1.8901,1.8835,1.9062,1.8617,1.7999,1.7314,1.7346,1.7365,1.7349,1.7379,1.7557,1.7963,1.8433,1.9049,1.9814,2.0226,2.0937,2.1977,2.2378,2.2898,2.3811,2.4107,2.4537,2.5162,2.548,2.6339,2.7461,2.8099,2.8718,2.9831,3.0572,3.1277,3.224,3.3367,3.4368,3.5001,3.605,3.7131,3.8118,3.881,3.9245,3.9446,3.9613,3.9773,3.9889,3.9951,4.0058,4.0158,4.0215,4.0253,4.0381,4.0362,4.0396,4.0463,4.0444,4.046,4.0527,4.0543,4.0583,4.0621,4.0668,4.0707,4.0776,4.1009,4.1392,4.2159,4.3276,4.4079,4.4738,4.5234,4.5629,4.5953,4.6289,4.6264,1.1685,1.1802,1.1809,1.1988,1.2305,1.2552,1.2683,1.2858,1.3277,1.3571,1.3812,1.435,1.4874,1.54,1.614,1.6662,1.6888,1.7056,1.729,1.759,1.749,1.7545,1.77,1.7601,1.781,1.8452,1.8679,1.8934,1.9121,1.8602,1.8709,1.9267,1.8869,1.9133,1.9991,1.9656,1.9617,1.9756,1.9743,1.9929,2.0146,2.0018,1.999,2.0062,1.9944,1.9297,1.7947,1.774,1.784,1.8168,1.8219,1.8544,1.9065,1.9302,1.9759,2.0484,2.0892,2.1846,2.3089,2.3541,2.4217,2.5097,2.5332,2.544,2.5972,2.6147,2.6759,2.7977,2.847,2.9245,3.0799,3.1146,3.1225,3.1445,3.2625,3.3395,3.4001,3.5285,3.7006,3.8512,3.9144,3.9331,3.9526,3.9712,3.9889,3.9954,4.0058,4.0196,4.0234,4.0289,4.0344,4.0379,4.0413,4.0447,4.0476,4.0504,4.0539,4.0588,4.0588,4.0598,4.0654,4.0694,4.0745,4.0812,4.0878,4.1237,4.1618,4.2708,4.3509,4.4142,4.4672,4.533,4.5858,4.6215,4.6191,1.2397,1.2589,1.2421,1.2436,1.256,1.2911,1.3155,1.3268,1.358,1.4052,1.4638,1.4942,1.5584,1.6379,1.6933,1.7335,1.781,1.8084,1.8127,1.8084,1.829,1.8506,1.8602,1.8709,1.8804,1.8922,1.9303,1.9303,1.9093,1.9174,1.954,1.9734,1.9798,2.0118,2.0636,2.0472,2.0258,1.9874,1.9912,1.9885,1.9807,1.9954,2.0142,2.0462,2.0388,2.0158,1.9946,1.9297,1.9124,1.9316,1.9262,1.938,1.9814,2.0226,2.0579,2.1003,2.1905,2.2838,2.3841,2.452,2.5126,2.5778,2.6034,2.6351,2.6764,2.6909,2.7765,2.928,2.9627,3.0116,3.1293,3.1421,3.149,3.2221,3.2811,3.3246,3.3854,3.5473,3.703,3.8173,3.8969,3.9445,3.967,3.9848,3.9975,4.008,4.0158,4.0252,4.0362,4.0379,4.0394,4.0495,4.0511,4.0492,4.0554,4.0579,4.0621,4.064,4.064,4.0635,4.0694,4.0745,4.08,4.0848,4.0926,4.1101,4.1494,4.2022,4.2815,4.3698,4.4393,4.5113,4.589,4.6128,4.6112,1.307,1.3199,1.2964,1.2858,1.292,1.3338,1.3631,1.3872,1.4181,1.4756,1.54,1.5853,1.6358,1.7157,1.7667,1.8007,1.841,1.8934,1.904,1.8815,1.8963,1.9226,1.9448,1.9786,1.9837,1.9747,2.0055,2.0156,1.9952,2.0055,2.0295,2.0646,2.056,2.0723,2.1131,2.0809,2.0474,2.0346,2.0436,2.0366,2.0275,2.0484,2.0711,2.0741,2.0658,2.0711,2.0892,2.0442,2.0183,2.0107,1.9977,2.0107,2.0549,2.0933,2.125,2.167,2.263,2.3802,2.4735,2.5242,2.5978,2.6578,2.6572,2.6778,2.7262,2.7424,2.8293,2.9844,2.9957,3.0336,3.1388,3.1353,3.1506,3.2194,3.2483,3.3076,3.4037,3.563,3.7048,3.8044,3.9014,3.9576,3.9804,3.9937,4.0039,4.0158,4.0233,4.0323,4.0463,4.0499,4.0543,4.0573,4.0569,4.0579,4.064,4.0662,4.07,4.07,4.0707,4.07,4.0718,4.0792,4.0846,4.0907,4.0976,4.1013,4.1323,4.1523,4.2114,4.3065,4.4096,4.4829,4.552,4.5967,4.6026,1.3743,1.3743,1.3511,1.339,1.3511,1.3812,1.4172,1.4647,1.505,1.5575,1.6093,1.681,1.7313,1.7667,1.8278,1.8667,1.8946,1.95,1.9952,1.994,1.9888,1.9978,2.0434,2.0683,2.0795,2.0759,2.0944,2.1202,2.1237,2.0908,2.1006,2.1458,2.0957,2.101,2.1399,2.0888,2.0797,2.117,2.1407,2.1395,2.1093,2.1542,2.1577,2.1031,2.1031,2.1083,2.1262,2.1262,2.106,2.073,2.0669,2.0994,2.1458,2.1624,2.2025,2.242,2.3467,2.4646,2.5525,2.6033,2.6596,2.7448,2.709,2.6891,2.7632,2.778,2.8366,2.9893,2.9874,3.021,3.1209,3.1241,3.1269,3.1559,3.2046,3.2843,3.4466,3.5653,3.6708,3.7984,3.9048,3.9788,3.9876,4.008,4.0177,4.0252,4.0341,4.0408,4.0492,4.0558,4.0583,4.0612,4.0626,4.0662,4.07,4.0718,4.0754,4.0787,4.0784,4.0796,4.0798,4.0858,4.0898,4.096,4.1,4.1031,4.112,4.1328,4.1873,4.2867,4.3759,4.4475,4.5071,4.558,4.5914,1.4638,1.5031,1.4264,1.4273,1.4638,1.4815,1.5118,1.5584,1.5968,1.6482,1.7045,1.7468,1.7984,1.8452,1.8815,1.9239,1.9604,2.0016,2.061,2.1153,2.1299,2.1431,2.1636,2.1636,2.1506,2.1313,2.1506,2.141,2.1091,2.1348,2.1458,2.1458,2.1256,2.1421,2.192,2.1595,2.1524,2.1735,2.2064,2.1948,2.1535,2.1774,2.18,2.1561,2.1588,2.1753,2.2087,2.2396,2.2199,2.1537,2.2016,2.246,2.2754,2.3171,2.3497,2.3914,2.4835,2.5871,2.6532,2.6925,2.7298,2.7543,2.7442,2.7694,2.811,2.8238,2.9059,3.016,3.0263,3.0451,3.1558,3.1602,3.1821,3.255,3.2517,3.2816,3.3943,3.4969,3.6093,3.7397,3.8423,3.9233,3.9851,4.0158,4.0252,4.0379,4.0447,4.0492,4.0573,4.0617,4.0626,4.0673,4.07,4.0725,4.0754,4.0768,4.081,4.0869,4.0888,4.0898,4.0917,4.0935,4.0957,4.0981,4.1042,4.107,4.1091,4.1185,4.1991,4.2672,4.3343,4.402,4.4713,4.5279,4.5626,1.5284,1.5738,1.5089,1.504,1.5468,1.5584,1.5931,1.6436,1.6765,1.7268,1.7886,1.8213,1.859,1.9052,1.9344,1.9695,2.0156,2.0623,2.1202,2.1874,2.2388,2.2495,2.2417,2.2278,2.2137,2.1935,2.203,2.1793,2.1479,2.1698,2.1698,2.1526,2.1618,2.1808,2.1835,2.1896,2.1983,2.2161,2.2356,2.2293,2.2328,2.2504,2.2482,2.2334,2.2372,2.2555,2.2944,2.3305,2.3113,2.258,2.275,2.3182,2.3393,2.3717,2.4318,2.5,2.5625,2.6196,2.7126,2.7298,2.7235,2.737,2.7487,2.7718,2.8246,2.8732,2.9659,3.0222,3.0528,3.1065,3.1573,3.1901,3.2401,3.3027,3.3166,3.3325,3.3972,3.4989,3.5825,3.6826,3.7942,3.8975,3.9661,4.0003,4.0321,4.0463,4.0508,4.0583,4.0673,4.0687,4.07,4.0739,4.0757,4.0796,4.0819,4.0849,4.0867,4.0921,4.0953,4.0984,4.0991,4.1006,4.1007,4.1037,4.1074,4.1136,4.1206,4.1269,4.1599,4.2251,4.2899,4.3676,4.4446,4.5012,4.5368,1.5874,1.6171,1.5853,1.5853,1.6104,1.6218,1.6652,1.7268,1.7545,1.7941,1.8548,1.8934,1.9251,1.9525,1.985,2.0245,2.0795,2.1313,2.186,2.2466,2.3038,2.3187,2.2828,2.2737,2.2646,2.2601,2.2615,2.2417,2.2109,2.2063,2.1888,2.1835,2.2262,2.2246,2.2237,2.218,2.2483,2.3004,2.2959,2.3128,2.3509,2.3598,2.3386,2.3148,2.316,2.3327,2.3649,2.3943,2.3826,2.3318,2.3236,2.3495,2.3735,2.3675,2.4576,2.5823,2.5906,2.6317,2.7318,2.7017,2.6877,2.7248,2.7229,2.7467,2.8396,2.929,3.0036,3.0566,3.1163,3.1587,3.1832,3.2247,3.2885,3.3429,3.3743,3.4049,3.4423,3.5218,3.5861,3.6156,3.77,3.848,3.9104,3.9689,4.0345,4.0104,4.0299,4.0635,4.0732,4.0769,4.0792,4.0804,4.0828,4.084,4.0878,4.0904,4.0937,4.0967,4.1,4.1025,4.1025,4.1037,4.1067,4.109,4.1101,4.1248,4.1465,4.1548,4.1652,4.2194,4.3121,4.3776,4.4388,4.4795,4.5167,1.6285,1.6987,1.657,1.6729,1.7245,1.7168,1.7401,1.7897,1.8441,1.8721,1.8975,1.9448,1.985,2.022,2.051,2.1042,2.1732,2.2063,2.2512,2.3216,2.3436,2.361,2.3436,2.3304,2.3083,2.2994,2.2904,2.2709,2.2572,2.248,2.2495,2.2437,2.2748,2.3091,2.3353,2.3644,2.4283,2.4655,2.4558,2.439,2.4349,2.4394,2.415,2.3741,2.3826,2.406,2.4319,2.4434,2.4434,2.4366,2.438,2.4416,2.4614,2.5101,2.5712,2.625,2.668,2.6754,2.6868,2.7131,2.7176,2.7223,2.7754,2.8305,2.9384,3.0038,3.0843,3.1449,3.19,3.2239,3.2506,3.2885,3.3354,3.3805,3.4105,3.434,3.4555,3.4856,3.5416,3.6083,3.6672,3.7238,3.8046,3.8898,3.9435,3.961,4.0061,4.0584,4.0715,4.0751,4.0868,4.0878,4.0897,4.0924,4.0896,4.0937,4.0994,4.1017,4.1042,4.1058,4.1058,4.1065,4.1094,4.1087,4.1113,4.1287,4.1474,4.1905,4.2018,4.2702,4.3276,4.3853,4.436,4.4693,4.5054,1.6751,1.7379,1.72,1.7423,1.781,1.7788,1.8018,1.8518,1.8827,1.9251,1.9656,1.9965,2.0446,2.1068,2.1251,2.1732,2.2388,2.2844,2.3246,2.3711,2.3925,2.4051,2.3994,2.3852,2.3666,2.3421,2.326,2.3083,2.2844,2.2783,2.2729,2.2918,2.3376,2.3717,2.4075,2.4601,2.4994,2.5208,2.5254,2.5258,2.5398,2.5245,2.4991,2.4708,2.4721,2.4848,2.5032,2.4892,2.4962,2.4973,2.5003,2.4989,2.4957,2.544,2.5886,2.6499,2.6618,2.7032,2.7154,2.7345,2.7565,2.779,2.8517,2.9342,3.0449,3.1364,3.2227,3.2689,3.2975,3.3186,3.3237,3.3458,3.3823,3.408,3.434,3.4539,3.4687,3.479,3.5021,3.5666,3.6174,3.6678,3.737,3.8101,3.8546,3.8791,3.9509,4.0026,4.0334,4.0422,4.0848,4.0963,4.0996,4.0984,4.0941,4.096,4.1013,4.1055,4.1091,4.1086,4.109,4.1092,4.1113,4.1112,4.1105,4.115,4.1363,4.1864,4.2341,4.2616,4.3114,4.3802,4.4443,4.4905,4.5247,1.7134,1.7579,1.77,1.7931,1.815,1.8247,1.8506,1.8987,1.9198,1.9708,2.0372,2.051,2.1104,2.1746,2.1921,2.2296,2.2934,2.3508,2.3967,2.4067,2.4317,2.44,2.4385,2.4313,2.4256,2.3952,2.3739,2.3436,2.3201,2.2979,2.3154,2.3331,2.3946,2.433,2.4504,2.5012,2.5601,2.5877,2.583,2.5854,2.6172,2.6096,2.5853,2.5522,2.5425,2.5425,2.5425,2.5369,2.53,2.5494,2.5355,2.5272,2.5272,2.5313,2.5577,2.6596,2.6669,2.7123,2.772,2.7859,2.8088,2.8905,2.9674,3.0605,3.1655,3.2901,3.3667,3.3922,3.4074,3.4106,3.3905,3.3897,3.4092,3.4288,3.4495,3.4666,3.479,3.487,3.5021,3.5189,3.5692,3.6173,3.6615,3.7209,3.7593,3.8047,3.881,3.9383,3.9664,4.0057,4.0416,4.0813,4.0816,4.1007,4.0993,4.1,4.1055,4.1074,4.1107,4.1113,4.1112,4.1108,4.1105,4.1082,4.1088,4.1159,4.1512,4.221,4.2539,4.2582,4.324,4.4253,4.4795,4.516,4.5362,1.7357,1.7986,1.803,1.8247,1.8494,1.8774,1.8987,1.9279,1.9862,2.0321,2.066,2.1251,2.1766,2.2235,2.2618,2.3113,2.3696,2.4151,2.4359,2.4441,2.4564,2.4645,2.4726,2.4766,2.4766,2.4686,2.4426,2.412,2.3894,2.3867,2.3773,2.388,2.4388,2.4863,2.5361,2.5904,2.6371,2.668,2.6681,2.6659,2.6692,2.6606,2.6394,2.6016,2.5784,2.5688,2.5674,2.5536,2.5439,2.5494,2.5688,2.5948,2.619,2.6229,2.6461,2.6785,2.7314,2.7771,2.8286,2.8473,2.9077,2.9972,3.0878,3.2055,3.3272,3.4304,3.4943,3.5174,3.5007,3.48,3.4917,3.4567,3.4362,3.451,3.4642,3.4728,3.4869,3.4983,3.5073,3.5181,3.5436,3.5649,3.6085,3.6458,3.68,3.7324,3.7996,3.8423,3.8669,3.9225,3.9824,4.022,4.0551,4.0818,4.1056,4.1066,4.1091,4.1086,4.1112,4.1113,4.1107,4.1114,4.1101,4.1101,4.1154,4.1253,4.1782,4.2412,4.3043,4.3288,4.4034,4.478,4.5138,4.5437,4.533,1.7353,1.7641,1.799,1.8277,1.8534,1.8996,1.9448,1.985,2.0359,2.0957,2.1479,2.2049,2.2558,2.2965,2.329,2.3797,2.4291,2.4564,2.4726,2.4791,2.4926,2.5005,2.5132,2.5203,2.5256,2.5256,2.5139,2.4806,2.4508,2.4369,2.4482,2.4756,2.505,2.5421,2.5895,2.6197,2.6693,2.7063,2.7081,2.7045,2.7122,2.6959,2.6606,2.6379,2.6165,2.6002,2.6002,2.5907,2.5907,2.6111,2.6244,2.6602,2.7056,2.7414,2.755,2.7515,2.8012,2.8666,2.9234,2.9736,3.0561,3.1797,3.259,3.3541,3.4685,3.555,3.611,3.6256,3.6374,3.6025,3.5945,3.5305,3.5086,3.5102,3.4988,3.4866,3.4908,3.5039,3.5145,3.5209,3.5337,3.5473,3.5565,3.5862,3.611,3.6598,3.7208,3.7502,3.77,3.8383,3.9117,3.9656,4.0085,4.0622,4.0944,4.1104,4.1099,4.1108,4.1113,4.1112,4.1103,4.1111,4.1113,4.1105,4.1201,4.1259,4.1513,4.1956,4.2955,4.3901,4.4318,4.475,4.5302,4.5602,4.551,1.7678,1.7649,1.827,1.8617,1.8906,1.9418,2.0055,2.0597,2.0993,2.1609,2.236,2.274,2.3157,2.3653,2.4024,2.4405,2.4883,2.5107,2.5377,2.5719,2.5854,2.5892,2.5921,2.5853,2.5924,2.5983,2.5761,2.554,2.5052,2.4895,2.5105,2.5227,2.5378,2.5683,2.6153,2.6132,2.6519,2.6749,2.6807,2.695,2.7151,2.6975,2.6715,2.663,2.6486,2.6447,2.6539,2.6457,2.6563,2.6797,2.7041,2.7297,2.7929,2.8667,2.892,2.8777,2.9014,2.975,3.0483,3.1312,3.21,3.3414,3.4295,3.5029,3.5797,3.6632,3.7292,3.7254,3.7155,3.7169,3.6822,3.6261,3.5885,3.5672,3.5369,3.5057,3.5002,3.5038,3.5127,3.5212,3.5261,3.5354,3.5468,3.5572,3.5863,3.5999,3.6604,3.6658,3.6941,3.7644,3.8364,3.9026,3.9627,4.0291,4.0742,4.1094,4.1101,4.1108,4.1113,4.1131,4.1123,4.1111,4.1117,4.1096,4.1045,4.1123,4.1299,4.1586,4.2461,4.3311,4.4039,4.4621,4.504,4.5515,4.5694,1.8871,1.9302,1.9494,1.9813,2.0142,2.0458,2.0944,2.1479,2.1894,2.2374,2.2889,2.329,2.3653,2.4051,2.4508,2.5177,2.5798,2.6086,2.6487,2.6969,2.7219,2.7299,2.7427,2.7032,2.6934,2.6867,2.6445,2.595,2.5805,2.5691,2.5496,2.5573,2.5544,2.5473,2.6066,2.5895,2.6057,2.6497,2.6531,2.6581,2.672,2.6564,2.6722,2.696,2.7063,2.7063,2.7225,2.7195,2.7333,2.7585,2.7932,2.8304,2.8842,2.9752,3.0545,3.0851,3.1062,3.1155,3.1665,3.251,3.3558,3.4624,3.5238,3.5889,3.6667,3.7381,3.798,3.8227,3.7876,3.7737,3.7716,3.7181,3.6639,3.6249,3.5958,3.5512,3.5268,3.4982,3.5073,3.5162,3.5196,3.532,3.5449,3.5534,3.5646,3.5757,3.5885,3.5998,3.6195,3.6917,3.7708,3.8389,3.9101,3.9784,4.0528,4.0879,4.1103,4.1107,4.1113,4.1131,4.1126,4.1116,4.1117,4.1096,4.1031,4.1,4.1147,4.1516,4.2063,4.2682,4.3404,4.4039,4.4634,4.5131,4.5587,2.0044,1.9499,1.9872,2.0246,2.0636,2.1172,2.1704,2.2142,2.2558,2.3024,2.3421,2.3824,2.4219,2.4614,2.4989,2.5607,2.6389,2.6724,2.716,2.7882,2.8092,2.8155,2.8147,2.8063,2.799,2.7901,2.7557,2.7526,2.7225,2.6854,2.6524,2.6449,2.6249,2.6053,2.6202,2.5719,2.5901,2.6314,2.6553,2.6554,2.6488,2.6796,2.7238,2.7542,2.7795,2.7997,2.8061,2.8079,2.8194,2.8529,2.8888,2.9271,2.9677,3.0283,3.0849,3.1191,3.1799,3.247,3.3322,3.4065,3.4926,3.5826,3.6348,3.6925,3.7596,3.8034,3.8382,3.8603,3.849,3.8517,3.854,3.8047,3.7713,3.7265,3.6637,3.6099,3.5647,3.5135,3.5001,3.5092,3.5219,3.5484,3.5696,3.5824,3.5852,3.5803,3.5911,3.6032,3.5998,3.6163,3.6982,3.7839,3.8546,3.9253,4.0036,4.0659,4.1041,4.1105,4.1112,4.1113,4.111,4.1101,4.1108,4.1113,4.1076,4.107,4.1052,4.1249,4.1645,4.2189,4.2759,4.3319,4.3877,4.4557,4.5053,2.1333,2.0292,2.0653,2.0937,2.124,2.1945,2.2452,2.2785,2.3113,2.3566,2.4078,2.4492,2.4918,2.5349,2.5756,2.6472,2.7262,2.7509,2.8191,2.8738,2.8993,2.9192,2.9269,2.9265,2.9121,2.9234,2.8557,2.8696,2.8949,2.8685,2.8129,2.7694,2.7474,2.7222,2.6751,2.6602,2.672,2.6726,2.708,2.6941,2.6729,2.7454,2.7942,2.829,2.8605,2.8919,2.8966,2.898,2.9148,2.9464,2.9745,3.0064,3.0477,3.1031,3.1483,3.1947,3.2659,3.3749,3.4582,3.5295,3.6059,3.6714,3.7339,3.7596,3.805,3.8433,3.8634,3.8785,3.8913,3.9091,3.9197,3.877,3.8445,3.7957,3.7367,3.6795,3.6215,3.5741,3.5439,3.5552,3.5738,3.594,3.6124,3.6194,3.6151,3.5929,3.5949,3.6105,3.6234,3.6304,3.706,3.809,3.8385,3.919,4.0179,4.0746,4.1013,4.1103,4.1111,4.1113,4.1112,4.1108,4.1101,4.1111,4.1117,4.1096,4.107,4.1103,4.1166,4.1673,4.2151,4.2539,4.3089,4.3812,4.4337,2.2756,2.2818,2.2457,2.2412,2.2548,2.2995,2.3304,2.3508,2.3681,2.4162,2.4759,2.5346,2.5647,2.6032,2.68,2.7614,2.8465,2.9553,3.019,3.0721,3.1151,3.0946,3.0796,3.0455,3.0236,3.0298,2.973,2.9903,3.0439,3.0282,2.9568,2.8831,2.8743,2.8639,2.8384,2.8076,2.7881,2.7798,2.7898,2.7818,2.7729,2.8194,2.8807,2.9191,2.9326,2.9467,2.9722,2.9821,3.0021,3.0335,3.0584,3.0788,3.1151,3.1803,3.2238,3.2637,3.3523,3.4582,3.5449,3.5872,3.6368,3.7071,3.7703,3.8068,3.8382,3.8578,3.8762,3.8931,3.9064,3.9221,3.9362,3.9358,3.8995,3.8616,3.8064,3.7508,3.6929,3.6362,3.6099,3.6121,3.6311,3.657,3.6771,3.6915,3.6839,3.6658,3.6697,3.6856,3.7239,3.742,3.7965,3.8585,3.8583,3.934,4.0608,4.1042,4.1097,4.1114,4.1103,4.1111,4.1113,4.1112,4.1108,4.1101,4.1111,4.1097,4.1076,4.1103,4.1142,4.1229,4.1535,4.2014,4.2451,4.3081,4.3455,2.3377,2.3523,2.3436,2.3436,2.3377,2.3625,2.3797,2.3937,2.4287,2.4799,2.546,2.5868,2.6388,2.7002,2.7516,2.8522,2.9629,3.0133,3.0986,3.1509,3.1752,3.1842,3.174,3.1689,3.155,3.1411,3.0906,3.0906,3.1637,3.1374,3.1306,3.075,3.0245,2.9712,2.9523,2.9348,2.9138,2.903,2.8868,2.8712,2.916,2.9265,2.9636,2.9876,3.0385,3.0551,3.0723,3.074,3.0902,3.1061,3.1312,3.1487,3.1674,3.2331,3.2669,3.2932,3.3932,3.4884,3.5842,3.6237,3.6897,3.7749,3.8252,3.8465,3.8634,3.8833,3.8939,3.9036,3.9212,3.944,3.938,3.9458,3.9327,3.91,3.87,3.8165,3.7643,3.7079,3.6915,3.7034,3.7128,3.7311,3.7515,3.768,3.7574,3.7433,3.7502,3.7656,3.81,3.8306,3.871,3.9054,3.9078,3.9279,4.0454,4.0847,4.1081,4.1097,4.1094,4.1103,4.1111,4.1113,4.1112,4.111,4.1103,4.1091,4.1094,4.1072,4.1103,4.1169,4.1315,4.1574,4.2004,4.2413,4.2655,2.3812,2.3982,2.4024,2.3982,2.3882,2.4024,2.4177,2.4369,2.4695,2.5329,2.6016,2.6367,2.7029,2.7828,2.8544,2.9317,3.0508,3.115,3.1707,3.2107,3.2351,3.2419,3.2453,3.2401,3.2263,3.2313,3.2017,3.1964,3.2364,3.2019,3.2057,3.2064,3.1807,3.1245,3.0765,3.0453,3.0404,3.0456,3.0281,3.0122,3.0607,3.0614,3.0602,3.0762,3.1147,3.1338,3.1393,3.1411,3.1504,3.1691,3.1839,3.2037,3.2232,3.2507,3.2778,3.3312,3.3952,3.4893,3.5933,3.6866,3.762,3.8387,3.8609,3.8792,3.8939,3.9064,3.912,3.923,3.9496,3.9705,3.9612,3.9727,3.9721,3.9513,3.9246,3.8769,3.8364,3.7896,3.7906,3.7947,3.8078,3.8207,3.8714,3.8901,3.862,3.8646,3.8898,3.9007,3.9204,3.9267,3.9093,3.9391,3.956,3.9816,4.0169,4.0649,4.1061,4.1057,4.1074,4.1094,4.1103,4.1111,4.1113,4.1113,4.1112,4.1103,4.1111,4.1097,4.1076,4.1058,4.1214,4.1369,4.1404,4.1758,4.1954,2.4158,2.4276,2.4193,2.4124,2.4067,2.4219,2.4467,2.4775,2.5091,2.5705,2.6522,2.7023,2.773,2.8635,2.9557,3.0495,3.1331,3.2264,3.2827,3.2908,3.2925,3.2988,3.2925,3.2848,3.2816,3.2848,3.266,3.261,3.2898,3.2813,3.2934,3.3032,3.2857,3.2644,3.2497,3.25,3.2435,3.2283,3.1987,3.1829,3.1722,3.1649,3.1595,3.161,3.1752,3.1875,3.1858,3.1913,3.202,3.2144,3.2249,3.2473,3.2816,3.3059,3.3535,3.437,3.4727,3.5695,3.7101,3.7979,3.8517,3.8796,3.891,3.8979,3.9147,3.9229,3.9386,3.9608,4.0106,4.0214,4.0209,4.0178,4.0084,4.0008,3.9736,3.9475,3.9091,3.9138,3.9164,3.8956,3.8975,3.9164,3.9825,4.0178,3.9815,3.9837,4.0226,4.0327,4.0219,4.0098,3.9779,3.985,4.009,4.0224,4.049,4.076,4.1,4.1011,4.1033,4.1094,4.1111,4.1101,4.1105,4.1108,4.1112,4.1112,4.1107,4.1099,4.1218,4.1315,4.1139,4.1156,4.1117,4.1213,4.1536,2.4425,2.4416,2.4317,2.4317,2.4385,2.44,2.4645,2.5091,2.5832,2.6522,2.7188,2.7935,2.8806,2.9702,3.0454,3.1356,3.2321,3.2435,3.2943,3.3386,3.3368,3.3415,3.3357,3.3268,3.3238,3.3327,3.3238,3.3208,3.3426,3.3455,3.3484,3.3512,3.3484,3.328,3.3019,3.293,3.2848,3.2705,3.2521,3.2386,3.237,3.2232,3.2144,3.2108,3.2249,3.2266,3.2249,3.2317,3.247,3.2621,3.2719,3.3148,3.371,3.4051,3.4648,3.5572,3.6166,3.7229,3.8257,3.8915,3.9045,3.9147,3.9194,3.9268,3.9339,3.9373,3.9679,4.0154,4.0656,4.0851,4.117,4.0757,4.0596,4.0696,4.049,4.0249,4.0032,4.042,4.0558,4.0119,3.9943,3.9884,4.0279,4.0411,4.0188,4.0142,4.04,4.0524,4.0462,4.0532,4.0377,4.0477,4.0616,4.0694,4.0837,4.0918,4.0967,4.0981,4.1025,4.1091,4.1109,4.1104,4.1114,4.1116,4.1107,4.1113,4.125,4.1404,4.1572,4.1618,4.1644,4.1335,4.11,4.122,4.1467,2.4591,2.458,2.4441,2.4523,2.463,2.4523,2.4831,2.5556,2.6505,2.724,2.7826,2.8565,2.9429,3.0302,3.1032,3.178,3.2827,3.2957,3.3081,3.3577,3.3615,3.3615,3.3615,3.3605,3.3502,3.3577,3.3615,3.3615,3.3615,3.3815,3.3868,3.3815,3.3807,3.3652,3.3408,3.3309,3.3147,3.3024,3.2848,3.2784,3.2737,3.2639,3.2555,3.2555,3.2639,3.2737,3.2702,3.2798,3.2975,3.3152,3.3527,3.3973,3.4641,3.5282,3.5855,3.6786,3.7774,3.8596,3.9156,3.9769,3.9907,3.99,3.9799,3.9993,4.0251,4.0565,4.0746,4.1083,4.1338,4.1582,4.1807,4.1357,4.1492,4.1588,4.1411,4.1168,4.0876,4.1204,4.1073,4.0711,4.0345,4.0381,4.0413,4.043,4.0351,4.0403,4.0476,4.0549,4.0648,4.0681,4.0694,4.075,4.0807,4.08,4.0811,4.0896,4.0921,4.0953,4.1,4.1064,4.1081,4.1081,4.109,4.1117,4.1133,4.124,4.1521,4.1738,4.2108,4.2378,4.2527,4.2048,4.1308,4.1452,4.1818,2.4673,2.4798,2.4645,2.4686,2.4782,2.4726,2.523,2.6175,2.7004,2.7725,2.8384,2.8676,2.9627,3.0765,3.1245,3.1915,3.2642,3.3063,3.3339,3.3559,3.3671,3.3707,3.3753,3.3716,3.3698,3.3671,3.3726,3.3815,3.3698,3.3947,3.4074,3.4074,3.4049,3.3928,3.3797,3.3652,3.3473,3.3309,3.319,3.3129,3.3037,3.3055,3.2975,3.2975,3.305,3.3142,3.3232,3.3321,3.3575,3.3897,3.443,3.4862,3.5414,3.612,3.7058,3.8014,3.8996,3.9376,3.9838,4.047,4.1047,4.116,4.1154,4.1518,4.1638,4.1669,4.175,4.2081,4.2412,4.2366,4.2348,4.2551,4.2754,4.2618,4.2418,4.2063,4.1582,4.1434,4.1226,4.0883,4.0406,4.0291,4.0344,4.0379,4.0396,4.043,4.0447,4.0476,4.0564,4.0654,4.0668,4.0688,4.075,4.0773,4.0818,4.084,4.0906,4.0932,4.0945,4.0993,4.1007,4.1064,4.1056,4.1091,4.1163,4.153,4.2483,4.2806,4.2851,4.3086,4.3339,4.2866,4.2153,4.2279,4.2565,2.4901,2.4942,2.4806,2.4902,2.5201,2.5647,2.6085,2.6521,2.7053,2.7676,2.8516,2.9248,3.0184,3.1177,3.1839,3.2423,3.2791,3.3099,3.3339,3.3541,3.3734,3.3753,3.3753,3.3807,3.3842,3.3972,3.4049,3.4124,3.4245,3.434,3.4269,3.4293,3.4221,3.4179,3.4124,3.4067,3.3815,3.3625,3.3512,3.3426,3.3386,3.3404,3.3327,3.3291,3.3437,3.3541,3.3532,3.3689,3.4036,3.4832,3.5103,3.5644,3.724,3.7611,3.8159,3.9062,3.9656,4.0031,4.0621,4.1044,4.1654,4.2602,4.2882,4.247,4.244,4.2404,4.2561,4.2961,4.3227,4.3163,4.32,4.3404,4.3502,4.3366,4.3204,4.3,4.2595,4.2444,4.2141,4.111,4.0653,4.033,4.0348,4.0289,4.0307,4.0379,4.0413,4.0427,4.0476,4.0569,4.0626,4.0635,4.0675,4.0713,4.0761,4.0787,4.0849,4.0907,4.0924,4.0988,4.114,4.1162,4.1059,4.1292,4.1719,4.2793,4.4083,4.4078,4.3637,4.3915,4.4116,4.3593,4.3183,4.3296,4.3483,2.5084,2.5123,2.5162,2.5438,2.5921,2.6349,2.6624,2.6892,2.754,2.8103,2.8643,2.9809,3.0797,3.1635,3.221,3.2639,3.2912,3.3178,3.3415,3.3587,3.3815,3.3868,3.3868,3.3972,3.4074,3.4197,3.4293,3.4381,3.4517,3.4517,3.4473,3.4409,3.4363,3.434,3.4293,3.4245,3.4167,3.3972,3.3842,3.3762,3.3726,3.3716,3.3625,3.3578,3.3762,3.3823,3.3895,3.4086,3.4631,3.5541,3.5744,3.6713,3.8145,3.8639,3.9056,3.9851,4.0333,4.0696,4.1231,4.205,4.2851,4.3688,4.4387,4.4241,4.3748,4.3561,4.3655,4.3886,4.3856,4.3849,4.4016,4.4146,4.4082,4.4039,4.3995,4.3942,4.3792,4.3662,4.2766,4.1584,4.0976,4.0577,4.0387,4.033,4.0234,4.0253,4.0271,4.0288,4.0358,4.0441,4.0519,4.0545,4.0607,4.0668,4.07,4.0718,4.0765,4.0818,4.0849,4.0956,4.1207,4.1574,4.1793,4.2147,4.2539,4.3637,4.4694,4.4587,4.4363,4.4688,4.5012,4.4828,4.4487,4.4335,4.4551,2.5242,2.5333,2.5626,2.6068,2.6708,2.6741,2.6923,2.7365,2.8331,2.8774,2.9041,3.0299,3.1393,3.2056,3.2489,3.2672,3.2943,3.3238,3.3491,3.3615,3.3868,3.3998,3.4105,3.4269,3.4221,3.4269,3.434,3.4473,3.4473,3.4539,3.4602,3.4517,3.4473,3.445,3.4431,3.4431,3.4363,3.4269,3.4173,3.4099,3.4023,3.3998,3.4023,3.4023,3.4117,3.4216,3.4452,3.4712,3.4982,3.5953,3.681,3.7721,3.8688,3.9423,3.9905,4.0422,4.092,4.151,4.212,4.2959,4.3738,4.4592,4.5403,4.5565,4.5247,4.4745,4.4782,4.4384,4.4277,4.4214,4.4317,4.4471,4.4487,4.4505,4.4507,4.4433,4.4306,4.4021,4.3276,4.2265,4.1732,4.1336,4.1033,4.0977,4.0673,4.0424,4.0177,4.0196,4.031,4.0381,4.0507,4.0588,4.0554,4.0617,4.0621,4.0642,4.0681,4.0718,4.0889,4.1291,4.177,4.2208,4.2626,4.3062,4.3517,4.4086,4.4798,4.489,4.5157,4.5532,4.5816,4.6041,4.5847,4.5355,4.5305,2.542,2.5562,2.5974,2.6367,2.6707,2.7002,2.7241,2.7504,2.9033,2.9547,2.9557,3.0575,3.1582,3.2403,3.269,3.2898,3.3129,3.3368,3.3587,3.3807,3.3998,3.4154,3.4203,3.4316,3.4316,3.4363,3.4409,3.4495,3.4561,3.4666,3.4747,3.4727,3.4645,3.4623,3.4623,3.4604,3.4561,3.4517,3.4473,3.4358,3.4221,3.4221,3.4245,3.4311,3.44,3.4866,3.5184,3.5566,3.6516,3.7678,3.8083,3.8852,3.9754,4.0043,4.054,4.1113,4.1513,4.2298,4.3062,4.3864,4.4626,4.55,4.6275,4.6629,4.6597,4.6108,4.5583,4.5032,4.4632,4.4551,4.4551,4.4712,4.484,4.4889,4.4943,4.4843,4.4722,4.4224,4.3669,4.3095,4.2544,4.2145,4.1806,4.1485,4.1142,4.0764,4.0307,4.0195,4.0367,4.0482,4.0748,4.0799,4.0572,4.0577,4.0611,4.0887,4.1103,4.1241,4.1435,4.1879,4.2388,4.3036,4.3652,4.4062,4.452,4.4948,4.5297,4.5656,4.5955,4.6123,4.6137,4.6151,4.6177,4.5811,4.5874,2.5594,2.5787,2.633,2.6691,2.6985,2.7317,2.777,2.8476,2.966,3.0366,3.0659,3.1417,3.2119,3.2707,3.2948,3.319,3.3426,3.3615,3.386,3.4049,3.4333,3.4344,3.4409,3.4544,3.4495,3.4558,3.4495,3.4539,3.4645,3.4768,3.4829,3.4809,3.4768,3.4747,3.4747,3.4747,3.4727,3.4687,3.4706,3.4661,3.4469,3.4469,3.4454,3.4536,3.4999,3.5499,3.5922,3.636,3.7427,3.8534,3.9069,3.949,4.0196,4.0652,4.0861,4.1338,4.2046,4.3194,4.3963,4.4747,4.5473,4.633,4.7449,4.7895,4.7291,4.679,4.6329,4.576,4.4863,4.4651,4.4605,4.4712,4.4789,4.4846,4.4943,4.4985,4.4843,4.4564,4.4009,4.3436,4.2976,4.2669,4.2332,4.1977,4.1734,4.18,4.1231,4.1083,4.1085,4.0878,4.1054,4.1208,4.1146,4.1061,4.119,4.1508,4.184,4.1928,4.2049,4.2748,4.3427,4.4086,4.4686,4.4924,4.5173,4.544,4.5811,4.5997,4.6066,4.6093,4.6102,4.6111,4.6138,4.6146,4.6098,2.5824,2.6082,2.6607,2.71,2.7487,2.7713,2.8415,2.9454,3.0252,3.115,3.1968,3.2434,3.2866,3.3109,3.3304,3.353,3.3808,3.4223,3.4414,3.468,3.4989,3.5324,3.5367,3.52,3.5176,3.4927,3.4695,3.4639,3.4626,3.479,3.4888,3.4829,3.4809,3.4827,3.4809,3.4809,3.4788,3.4864,3.492,3.5018,3.49,3.48,3.4873,3.5179,3.5677,3.623,3.6709,3.7281,3.8175,3.9071,3.9928,4.0248,4.0724,4.1253,4.1255,4.1675,4.2921,4.3805,4.4518,4.5591,4.6261,4.7119,4.835,4.8666,4.8067,4.7658,4.72,4.6417,4.5502,4.482,4.4801,4.4738,4.4815,4.4821,4.4943,4.5038,4.4924,4.4833,4.4335,4.3775,4.3561,4.3246,4.3026,4.2654,4.255,4.2598,4.253,4.2477,4.2332,4.1977,4.1848,4.2044,4.2125,4.2049,4.1913,4.2136,4.2494,4.2758,4.2964,4.3721,4.438,4.4849,4.5239,4.5524,4.5777,4.5783,4.5828,4.5917,4.5983,4.6046,4.6037,4.6017,4.6027,4.6037,4.6075,2.6227,2.6757,2.7004,2.7474,2.8017,2.821,2.8891,2.9904,3.0666,3.1555,3.2527,3.3231,3.3607,3.3671,3.3815,3.4053,3.4433,3.4894,3.5375,3.5725,3.6166,3.6589,3.6646,3.6281,3.6177,3.5663,3.5061,3.4806,3.4751,3.4888,3.4983,3.4946,3.4907,3.4906,3.4944,3.4963,3.5056,3.5227,3.5644,3.5872,3.5911,3.5871,3.5852,3.6214,3.6727,3.7508,3.8137,3.848,3.9147,3.9947,4.082,4.1001,4.1396,4.2005,4.2274,4.2431,4.3698,4.4626,4.5456,4.6263,4.6932,4.7737,4.8824,4.9472,4.907,4.892,4.8273,4.7381,4.6411,4.5333,4.5076,4.4933,4.4919,4.487,4.4943,4.4919,4.4846,4.4821,4.4581,4.4405,4.4278,4.4183,4.4146,4.3857,4.3623,4.3496,4.3052,4.2981,4.289,4.2765,4.2677,4.2873,4.3088,4.2884,4.2737,4.2871,4.3156,4.3443,4.3805,4.4374,4.4903,4.5372,4.5731,4.5746,4.5761,4.5737,4.5805,4.586,4.5887,4.5925,4.5929,4.5922,4.5933,4.5964,4.5986]}]]